[[{"header":{"parameterUnit":"m.s-1","parameterCategory":1,"la1":31.0,"la2":29.5877,"lo1":-88.7671,"lo2":-86.6584,"dy":0.0162,"dx":0.0185,"nx":115,"ny":88,"refTime":"2023-07-27T06:00:00:Z","depth":0,"parameterNumber":2,"parameterNumberName":"U-component_of_WINDS"},"data":[0.0,0.0,0.0,0.0,0.0,0.0,0.0,0.0,0.0,0.0,0.0,0.0,0.0,0.0,0.0,0.0,0.0,0.0,0.0,0.0,0.0,0.0,0.0,0.0,0.0,0.0,0.0,0.0,0.0,0.0,0.0,0.0,0.0,0.0,0.0,0.0,0.0,0.0,0.0,0.0,0.0,0.0,0.0,0.0,0.0,0.0,0.0,0.0,0.0,0.0,0.0,0.0,0.0,0.0,0.0,0.0,0.0,0.0,0.0,0.0,0.0,0.0,0.0,0.0,0.0,0.0,0.0,0.0,0.0,0.0,0.0,0.0,0.0,0.0,0.0,0.0,0.0,0.0,0.0,0.0,0.0,0.0,0.0,0.0,0.0,0.0,0.0,0.0,0.0,0.0,0.0,0.0,0.0,0.0,0.0,0.0,0.0,0.0,0.0,0.0,0.0,0.0,0.0,0.0,0.0,0.0,0.0,0.0,0.0,0.0,0.0,0.0,0.0,0.0,0.0,0.0,0.0,0.0,0.0,0.0,0.0,0.0,0.0,0.0,0.0,0.0,0.0,0.0,0.0,0.0,0.0,0.0,0.0,0.0,0.0,0.0,0.0,0.0,0.0,0.0,0.0,0.0,0.0,0.0,0.0,0.0,0.0,0.0,0.0,0.0,0.0,0.0,0.0,0.0,0.0,0.0,0.0,0.0,0.0,0.0,0.0,0.0,0.0,0.0,0.0,0.0,0.0,0.0,0.0,0.0,0.0,0.0,0.0,0.0,0.0,0.0,0.0,0.0,0.0,0.0,0.0,0.0,0.0,0.0,0.0,0.0,0.0,0.0,0.0,0.0,0.0,0.0,0.0,0.0,0.0,0.0,0.0,0.0,0.0,0.0,0.0,0.0,0.0,0.0,0.0,0.0,0.0,0.0,0.0,0.0,0.0,0.0,0.0,0.0,0.0,0.0,0.0,0.0,0.0,0.0,0.0,0.0,0.0,0.0,0.0,0.0,0.0,0.0,0.0,0.0,0.0,0.0,0.0,0.0,0.0,0.0,0.0,0.0,0.0,0.0,0.0,0.0,0.0,0.0,0.0,0.0,0.0,0.0,0.0,0.0,0.0,0.0,0.0,0.0,0.0,0.0,0.0,0.0,0.0,0.0,0.0,0.0,0.0,0.0,0.0,0.0,0.0,0.0,0.0,0.0,0.0,0.0,0.0,0.0,0.0,0.0,0.0,0.0,0.0,0.0,0.0,0.0,0.0,0.0,0.0,0.0,0.0,0.0,0.0,0.0,0.0,0.0,0.0,0.0,0.0,0.0,0.0,0.0,0.0,0.0,0.0,0.0,0.0,0.0,0.0,0.0,0.0,0.0,0.0,0.0,0.0,0.0,0.0,0.0,0.0,0.0,0.0,0.0,0.0,0.0,0.0,0.0,0.0,0.0,0.0,0.0,0.0,0.0,0.0,0.0,0.0,0.0,0.0,0.0,0.0,0.0,0.0,0.0,0.0,0.0,0.0,0.0,0.0,0.0,0.0,0.0,0.0,0.0,0.0,0.0,0.0,0.0,0.0,0.0,0.0,0.0,0.0,0.0,0.0,0.0,0.0,0.0,0.0,0.0,0.0,0.0,0.0,0.0,0.0,0.0,0.0,0.0,0.0,0.0,0.0,0.0,0.0,0.0,0.0,0.0,0.0,0.0,0.0,0.0,0.0,0.0,0.0,0.0,0.0,0.0,0.0,0.0,0.0,0.0,0.0,0.0,0.0,0.0,0.0,0.0,0.0,0.0,0.0,0.0,0.0,0.0,0.0,0.0,0.0,0.0,0.0,0.0,0.0,0.0,0.0,0.0,0.0,0.0,0.0,0.0,0.0,0.0,0.0,0.0,0.0,0.0,0.0,0.0,0.0,0.0,0.0,0.0,0.0,0.0,0.0,0.0,0.0,0.0,0.0,0.0,0.0,0.0,0.0,0.0,0.0,0.0,0.0,0.0,0.0,0.0,0.0,0.0,0.0,0.0,0.0,0.0,0.0,0.0,0.0,0.0,0.0,0.0,0.0,0.0,0.0,0.0,0.0,0.0,0.0,0.0,0.0,0.0,0.0,0.0,0.0,0.0,0.0,0.0,0.0,0.0,0.0,0.0,0.0,0.0,0.0,0.0,0.0,0.0,0.0,0.0,0.0,0.0,0.0,0.0,0.0,0.0,0.0,0.0,0.0,0.0,0.0,0.0,0.0,0.0,0.0,0.0,0.0,0.0,0.0,0.0,0.0,0.0,0.0,0.0,0.0,0.0,0.0,0.0,0.0,0.0,0.0,0.0,0.0,0.0,0.0,0.0,0.0,0.0,0.0,0.0,0.0,0.0,0.0,0.0,0.0,0.0,0.0,0.0,0.0,0.0,0.0,0.0,0.0,0.0,0.0,0.0,0.0,0.0,0.0,0.0,0.0,0.0,0.0,0.0,0.0,0.0,0.0,0.0,0.0,0.0,0.0,0.0,0.0,0.0,0.0,0.0,0.0,0.0,0.0,0.0,0.0,0.0,0.0,0.0,0.0,0.0,0.0,0.0,0.0,0.0,0.0,0.0,0.0,0.0,0.0,0.0,0.0,0.0,0.0,0.0,0.0,0.0,0.0,0.0,0.0,0.0,0.0,0.0,0.0,0.0,0.0,0.0,0.0,0.0,0.0,0.0,0.0,0.0,0.0,0.0,0.0,0.0,0.0,0.0,0.0,0.0,0.0,0.0,0.0,0.0,0.0,0.0,0.0,0.0,0.0,0.0,0.0,0.0,0.0,0.0,0.0,0.0,0.0,0.0,0.0,0.0,0.0,0.0,0.0,0.0,0.0,0.0,0.0,0.0,0.0,0.0,0.0,0.0,0.0,0.0,0.0,0.0,0.0,0.0,0.0,0.0,0.0,0.0,0.0,0.0,0.0,0.0,0.0,0.0,0.0,0.0,0.0,0.0,0.0,0.0,0.0,0.0,0.0,0.0,0.0,0.0,0.0,0.0,0.0,0.0,0.0,0.0,0.0,0.0,0.0,0.0,0.0,0.0,0.0,0.0,0.0,0.0,0.0,0.0,0.0,0.0,0.0,0.0,0.0,0.0,0.0,0.0,0.0,0.0,0.0,0.0,0.0,0.0,0.0,0.0,0.0,0.0,0.0,0.0,0.0,0.0,0.0,0.0,0.0,0.0,0.0,0.0,0.0,0.0,0.0,0.0,0.0,0.0,0.0,0.0,0.0,0.0,0.0,0.0,0.0,0.0,0.0,0.0,0.0,0.0,0.0,0.0,0.0,0.0,0.0,0.0,0.0,0.0,0.0,0.0,0.0,0.0,0.0,0.0,0.0,0.0,0.0,0.0,0.0,0.0,0.0,0.0,0.0,0.0,0.0,0.0,0.0,0.0,0.0,0.0,0.0,0.0,0.0,0.0,0.0,0.0,0.0,0.0,0.0,0.0,0.0,0.0,0.0,0.0,0.0,0.0,0.0,0.0,0.0,0.0,0.0,0.0,0.0,0.0,0.0,0.0,0.0,0.0,0.0,0.0,0.0,0.0,0.0,0.0,0.0,0.0,0.0,0.0,0.0,0.0,0.0,0.0,0.0,0.0,0.0,0.0,0.0,0.0,0.0,0.0,0.0,0.0,0.0,0.0,0.0,0.0,0.0,0.0,0.0,0.0,0.0,0.0,0.0,0.0,0.0,0.0,0.0,0.0,0.0,0.0,0.0,0.0,0.0,0.0,0.0,0.0,0.0,0.0,0.0,0.0,0.0,0.0,0.0,0.0,0.0,0.0,0.0,0.0,0.0,0.0,0.0,0.0,0.0,0.0,0.0,0.0,0.0,0.0,0.0,0.0,0.0,0.0,0.0,0.0,0.0,0.0,0.0,0.0,0.0,0.0,0.0,0.0,0.0,0.0,0.0,0.0,0.0,0.0,0.0,0.0,0.0,0.0,0.0,0.0,0.0,0.0,0.0,0.0,0.0,0.0,0.0,0.0,0.0,0.0,0.0,0.0,0.0,0.0,0.0,0.0,0.0,0.0,0.0,0.0,0.0,0.0,0.0,0.0,0.0,0.0,0.0,0.0,0.0,0.0,0.0,0.0,0.0,0.0,0.0,0.0,0.0,0.0,0.0,0.0,0.0,0.0,0.0,0.0,0.0,0.0,0.0,0.0,0.0,0.0,0.0,0.0,0.0,0.0,0.0,0.0,0.0,0.0,0.0,0.0,0.0,0.0,0.0,0.0,0.0,0.0,0.0,0.0,0.0,0.0,0.0,0.0,-4.061,0.0,0.0,0.0,0.0,0.0,0.0,0.0,0.0,0.0,0.0,0.0,0.0,0.0,0.0,0.0,0.0,0.0,0.0,0.0,0.0,0.0,0.0,0.0,0.0,0.0,0.0,0.0,0.0,0.0,0.0,0.0,0.0,0.0,0.0,0.0,0.0,0.0,0.0,0.0,0.0,0.0,0.0,0.0,0.0,0.0,0.0,0.0,0.0,0.0,0.0,0.0,0.0,0.0,0.0,0.0,0.0,0.0,0.0,0.0,0.0,0.0,0.0,0.0,0.0,0.0,0.0,0.0,0.0,0.0,0.0,0.0,0.0,0.0,0.0,0.0,0.0,0.0,0.0,0.0,0.0,0.0,0.0,0.0,0.0,0.0,0.0,0.0,0.0,0.0,0.0,0.0,0.0,0.0,0.0,0.0,0.0,0.0,0.0,0.0,0.0,0.0,0.0,0.0,0.0,0.0,0.0,0.0,0.0,0.0,0.0,-3.9695,-3.9816,-4.0303,-4.0681,-4.0829,0.0,0.0,0.0,0.0,0.0,0.0,0.0,0.0,0.0,0.0,0.0,0.0,0.0,0.0,0.0,0.0,0.0,0.0,0.0,0.0,0.0,0.0,0.0,0.0,0.0,0.0,0.0,0.0,0.0,0.0,0.0,0.0,0.0,0.0,0.0,0.0,0.0,0.0,0.0,0.0,0.0,0.0,0.0,0.0,0.0,0.0,0.0,0.0,0.0,0.0,0.0,0.0,0.0,0.0,0.0,0.0,0.0,0.0,0.0,0.0,0.0,0.0,0.0,0.0,0.0,0.0,0.0,0.0,0.0,0.0,0.0,0.0,0.0,0.0,0.0,0.0,0.0,0.0,0.0,0.0,0.0,0.0,0.0,0.0,0.0,0.0,0.0,0.0,0.0,0.0,0.0,0.0,0.0,0.0,0.0,0.0,0.0,0.0,0.0,0.0,0.0,0.0,0.0,0.0,0.0,0.0,0.0,0.0,0.0,0.0,0.0,0.0,-4.0574,-4.0742,-4.0929,0.0,0.0,0.0,0.0,0.0,0.0,0.0,0.0,0.0,0.0,0.0,0.0,0.0,0.0,0.0,0.0,0.0,0.0,0.0,0.0,0.0,0.0,0.0,0.0,0.0,0.0,0.0,0.0,0.0,0.0,0.0,0.0,0.0,0.0,0.0,0.0,0.0,0.0,0.0,0.0,0.0,0.0,0.0,0.0,0.0,0.0,0.0,0.0,0.0,0.0,0.0,0.0,0.0,0.0,0.0,0.0,0.0,0.0,0.0,0.0,0.0,0.0,0.0,0.0,0.0,0.0,0.0,0.0,0.0,0.0,0.0,0.0,0.0,0.0,0.0,0.0,0.0,0.0,0.0,0.0,0.0,0.0,0.0,0.0,0.0,0.0,0.0,0.0,0.0,0.0,0.0,0.0,0.0,0.0,0.0,0.0,0.0,0.0,0.0,0.0,0.0,0.0,0.0,0.0,0.0,0.0,0.0,0.0,0.0,0.0,-4.0519,-4.0574,-4.0706,0.0,-4.1074,0.0,0.0,0.0,0.0,0.0,0.0,0.0,0.0,0.0,0.0,0.0,0.0,0.0,0.0,0.0,0.0,0.0,0.0,0.0,0.0,0.0,0.0,0.0,0.0,0.0,0.0,0.0,0.0,0.0,0.0,0.0,0.0,0.0,0.0,0.0,0.0,0.0,0.0,0.0,0.0,0.0,0.0,0.0,0.0,0.0,0.0,0.0,0.0,0.0,0.0,0.0,0.0,0.0,0.0,0.0,0.0,0.0,0.0,0.0,0.0,0.0,0.0,0.0,0.0,0.0,0.0,0.0,0.0,0.0,0.0,0.0,0.0,0.0,0.0,0.0,0.0,0.0,0.0,0.0,0.0,0.0,0.0,0.0,0.0,0.0,0.0,0.0,0.0,0.0,0.0,0.0,0.0,0.0,0.0,0.0,0.0,0.0,0.0,0.0,0.0,0.0,0.0,0.0,0.0,0.0,0.0,0.0,0.0,0.0,0.0,-4.0834,-4.1401,-4.1597,-4.15,0.0,0.0,0.0,0.0,0.0,0.0,0.0,0.0,0.0,0.0,0.0,0.0,0.0,0.0,0.0,0.0,0.0,0.0,0.0,0.0,0.0,0.0,0.0,0.0,0.0,0.0,0.0,0.0,0.0,0.0,0.0,0.0,0.0,0.0,0.0,0.0,0.0,0.0,0.0,0.0,0.0,0.0,0.0,0.0,0.0,0.0,0.0,0.0,0.0,0.0,0.0,0.0,0.0,0.0,0.0,0.0,0.0,0.0,0.0,0.0,0.0,0.0,0.0,0.0,0.0,0.0,0.0,0.0,0.0,0.0,0.0,0.0,0.0,0.0,0.0,0.0,0.0,0.0,0.0,0.0,0.0,0.0,0.0,0.0,0.0,0.0,0.0,0.0,0.0,0.0,0.0,0.0,0.0,0.0,0.0,0.0,0.0,0.0,0.0,0.0,0.0,0.0,0.0,0.0,0.0,0.0,0.0,0.0,0.0,0.0,-4.0964,-4.1454,-4.2361,-4.2572,-4.2373,-4.1754,0.0,0.0,0.0,0.0,0.0,0.0,0.0,0.0,0.0,0.0,0.0,0.0,0.0,0.0,0.0,0.0,0.0,0.0,0.0,0.0,0.0,0.0,0.0,0.0,0.0,0.0,0.0,0.0,0.0,0.0,0.0,0.0,0.0,0.0,0.0,0.0,0.0,0.0,0.0,0.0,0.0,0.0,0.0,0.0,0.0,0.0,0.0,0.0,0.0,0.0,0.0,0.0,0.0,0.0,0.0,0.0,0.0,0.0,0.0,0.0,0.0,0.0,0.0,0.0,0.0,0.0,0.0,0.0,0.0,0.0,0.0,0.0,0.0,0.0,0.0,0.0,0.0,0.0,0.0,0.0,0.0,0.0,0.0,0.0,0.0,0.0,0.0,0.0,0.0,0.0,0.0,0.0,0.0,0.0,0.0,0.0,0.0,0.0,0.0,0.0,0.0,0.0,0.0,0.0,0.0,0.0,0.0,0.0,-4.1784,-4.1911,-4.2424,-4.3391,-4.35,-4.3567,0.0,0.0,0.0,0.0,0.0,0.0,0.0,0.0,0.0,0.0,0.0,0.0,0.0,0.0,0.0,0.0,0.0,0.0,0.0,0.0,0.0,0.0,0.0,0.0,0.0,0.0,0.0,0.0,0.0,0.0,0.0,0.0,0.0,0.0,0.0,0.0,0.0,0.0,0.0,0.0,0.0,0.0,0.0,0.0,0.0,0.0,0.0,0.0,0.0,0.0,0.0,0.0,0.0,0.0,0.0,0.0,0.0,0.0,0.0,0.0,0.0,0.0,0.0,0.0,0.0,0.0,0.0,0.0,0.0,0.0,0.0,0.0,0.0,0.0,0.0,0.0,0.0,0.0,0.0,0.0,0.0,0.0,0.0,0.0,0.0,0.0,0.0,0.0,0.0,0.0,0.0,0.0,0.0,0.0,0.0,0.0,0.0,0.0,0.0,0.0,0.0,0.0,0.0,0.0,0.0,0.0,0.0,0.0,0.0,-4.2002,-4.3117,-4.3684,-4.358,-4.4133,-4.4184,0.0,0.0,0.0,0.0,0.0,0.0,0.0,0.0,0.0,0.0,0.0,0.0,0.0,0.0,0.0,0.0,0.0,0.0,0.0,0.0,0.0,0.0,0.0,0.0,0.0,0.0,0.0,0.0,0.0,0.0,0.0,0.0,0.0,0.0,0.0,0.0,0.0,0.0,0.0,0.0,0.0,0.0,0.0,0.0,0.0,0.0,0.0,0.0,0.0,0.0,0.0,0.0,0.0,0.0,0.0,0.0,0.0,0.0,0.0,0.0,0.0,0.0,0.0,0.0,0.0,0.0,0.0,0.0,0.0,0.0,0.0,0.0,0.0,0.0,0.0,0.0,0.0,0.0,0.0,0.0,0.0,0.0,0.0,0.0,0.0,0.0,0.0,0.0,0.0,0.0,0.0,0.0,0.0,0.0,0.0,0.0,0.0,0.0,0.0,0.0,0.0,0.0,0.0,0.0,0.0,0.0,0.0,0.0,0.0,-4.2908,0.0,-4.4908,-4.4501,-4.5035,-4.5073,0.0,0.0,0.0,0.0,0.0,0.0,0.0,0.0,0.0,0.0,0.0,0.0,0.0,0.0,0.0,0.0,0.0,0.0,0.0,0.0,0.0,0.0,0.0,0.0,0.0,0.0,0.0,0.0,0.0,0.0,0.0,0.0,0.0,0.0,0.0,0.0,0.0,0.0,0.0,0.0,0.0,0.0,0.0,0.0,0.0,0.0,0.0,0.0,0.0,0.0,0.0,0.0,0.0,0.0,0.0,0.0,0.0,0.0,0.0,0.0,0.0,0.0,0.0,0.0,0.0,0.0,0.0,0.0,0.0,0.0,0.0,0.0,0.0,0.0,0.0,0.0,0.0,0.0,0.0,0.0,0.0,0.0,0.0,0.0,0.0,0.0,0.0,0.0,0.0,0.0,0.0,0.0,0.0,0.0,0.0,0.0,0.0,0.0,0.0,0.0,0.0,0.0,0.0,0.0,0.0,0.0,0.0,0.0,-4.3102,-4.4754,-4.5654,-4.6118,-4.6206,-4.627,-4.6269,0.0,0.0,0.0,0.0,0.0,0.0,0.0,0.0,0.0,0.0,0.0,0.0,0.0,0.0,0.0,0.0,0.0,0.0,0.0,0.0,0.0,0.0,0.0,0.0,0.0,0.0,0.0,0.0,0.0,0.0,0.0,0.0,0.0,0.0,0.0,0.0,0.0,0.0,0.0,0.0,0.0,0.0,0.0,0.0,0.0,0.0,0.0,0.0,0.0,0.0,0.0,0.0,0.0,0.0,0.0,0.0,0.0,0.0,0.0,0.0,0.0,0.0,0.0,0.0,0.0,0.0,0.0,0.0,0.0,0.0,0.0,0.0,0.0,0.0,0.0,0.0,0.0,0.0,0.0,0.0,0.0,0.0,0.0,0.0,0.0,0.0,0.0,0.0,0.0,0.0,0.0,0.0,0.0,0.0,0.0,0.0,0.0,0.0,0.0,0.0,0.0,0.0,0.0,0.0,0.0,0.0,0.0,0.0,0.0,-4.6625,-4.6924,-4.7094,-4.709,-4.7107,-4.6811,0.0,0.0,0.0,0.0,0.0,0.0,0.0,0.0,0.0,0.0,0.0,0.0,0.0,0.0,0.0,0.0,0.0,0.0,0.0,0.0,0.0,0.0,0.0,0.0,0.0,0.0,0.0,0.0,0.0,0.0,0.0,0.0,0.0,0.0,0.0,0.0,0.0,0.0,0.0,0.0,0.0,0.0,0.0,0.0,0.0,0.0,0.0,0.0,0.0,0.0,0.0,0.0,0.0,0.0,0.0,0.0,0.0,0.0,0.0,0.0,0.0,0.0,0.0,0.0,0.0,0.0,0.0,0.0,0.0,0.0,0.0,0.0,0.0,0.0,0.0,0.0,0.0,0.0,0.0,0.0,0.0,0.0,0.0,0.0,0.0,0.0,0.0,0.0,0.0,0.0,0.0,0.0,0.0,0.0,0.0,0.0,0.0,0.0,0.0,0.0,0.0,0.0,0.0,0.0,0.0,0.0,0.0,0.0,0.0,-4.7955,-4.7988,-4.7994,-4.7968,-4.7673,-4.7217,-4.6593,0.0,0.0,0.0,0.0,0.0,0.0,0.0,0.0,0.0,0.0,0.0,0.0,0.0,0.0,0.0,0.0,0.0,0.0,0.0,0.0,0.0,0.0,0.0,0.0,0.0,0.0,0.0,0.0,0.0,0.0,0.0,0.0,0.0,0.0,0.0,0.0,0.0,0.0,0.0,0.0,0.0,0.0,0.0,0.0,0.0,0.0,0.0,0.0,0.0,0.0,0.0,0.0,0.0,0.0,0.0,0.0,0.0,0.0,0.0,0.0,0.0,0.0,0.0,0.0,0.0,0.0,0.0,0.0,0.0,0.0,0.0,0.0,0.0,0.0,0.0,0.0,0.0,0.0,0.0,0.0,0.0,0.0,0.0,0.0,0.0,0.0,0.0,0.0,0.0,0.0,0.0,0.0,0.0,0.0,0.0,0.0,0.0,0.0,0.0,0.0,0.0,0.0,0.0,0.0,0.0,0.0,0.0,0.0,-4.8858,-4.8903,-4.8924,-4.8863,-4.8017,-4.7501,0.0,0.0,0.0,0.0,0.0,0.0,0.0,0.0,0.0,0.0,0.0,0.0,0.0,0.0,0.0,0.0,0.0,0.0,0.0,0.0,0.0,0.0,0.0,0.0,0.0,0.0,0.0,0.0,0.0,0.0,0.0,0.0,0.0,0.0,0.0,0.0,0.0,0.0,0.0,0.0,0.0,0.0,0.0,0.0,0.0,0.0,0.0,0.0,0.0,0.0,0.0,0.0,0.0,0.0,0.0,0.0,0.0,0.0,0.0,0.0,0.0,0.0,0.0,0.0,0.0,0.0,0.0,0.0,0.0,0.0,0.0,0.0,0.0,0.0,0.0,0.0,0.0,0.0,0.0,0.0,0.0,0.0,0.0,0.0,0.0,0.0,0.0,0.0,0.0,0.0,0.0,0.0,0.0,0.0,0.0,0.0,0.0,0.0,0.0,0.0,0.0,0.0,0.0,0.0,0.0,0.0,0.0,0.0,0.0,-4.9674,-5.0245,-5.0284,-4.9679,-4.886,-4.8027,0.0,0.0,0.0,0.0,0.0,0.0,0.0,0.0,0.0,0.0,0.0,0.0,0.0,0.0,0.0,0.0,0.0,0.0,0.0,0.0,0.0,0.0,0.0,0.0,0.0,0.0,0.0,0.0,0.0,0.0,0.0,0.0,0.0,0.0,0.0,0.0,0.0,0.0,0.0,0.0,0.0,0.0,0.0,0.0,0.0,0.0,0.0,0.0,0.0,0.0,0.0,0.0,0.0,0.0,0.0,0.0,0.0,0.0,0.0,0.0,0.0,0.0,0.0,0.0,0.0,0.0,0.0,0.0,0.0,0.0,0.0,0.0,0.0,0.0,0.0,0.0,0.0,0.0,0.0,0.0,0.0,0.0,0.0,0.0,0.0,0.0,0.0,0.0,0.0,0.0,0.0,0.0,0.0,0.0,0.0,0.0,0.0,0.0,0.0,0.0,0.0,0.0,0.0,0.0,0.0,0.0,0.0,0.0,-4.9126,-4.9944,-5.0724,-5.0897,-5.0432,-4.9576,-4.8677,0.0,0.0,0.0,0.0,0.0,0.0,0.0,0.0,0.0,0.0,0.0,0.0,0.0,0.0,0.0,0.0,0.0,0.0,0.0,0.0,0.0,0.0,0.0,0.0,0.0,0.0,0.0,0.0,0.0,0.0,0.0,0.0,0.0,0.0,0.0,0.0,0.0,0.0,0.0,0.0,0.0,0.0,0.0,0.0,0.0,0.0,0.0,0.0,0.0,0.0,0.0,0.0,0.0,0.0,0.0,0.0,0.0,0.0,0.0,0.0,0.0,0.0,0.0,0.0,0.0,0.0,0.0,0.0,0.0,0.0,0.0,0.0,0.0,0.0,0.0,0.0,0.0,0.0,0.0,0.0,0.0,0.0,0.0,0.0,0.0,0.0,0.0,0.0,0.0,0.0,0.0,0.0,0.0,0.0,0.0,0.0,0.0,0.0,0.0,0.0,0.0,0.0,0.0,0.0,0.0,0.0,0.0,0.0,-4.9051,-5.0004,-5.0655,-5.0976,-5.0956,-5.0123,-4.9262,0.0,0.0,0.0,0.0,0.0,0.0,0.0,0.0,0.0,0.0,0.0,0.0,0.0,0.0,0.0,0.0,0.0,0.0,0.0,0.0,0.0,0.0,0.0,0.0,0.0,0.0,0.0,0.0,0.0,0.0,0.0,0.0,0.0,0.0,0.0,0.0,0.0,0.0,0.0,0.0,0.0,0.0,0.0,0.0,0.0,0.0,0.0,0.0,0.0,0.0,0.0,0.0,0.0,0.0,0.0,0.0,0.0,0.0,0.0,0.0,0.0,0.0,0.0,0.0,0.0,0.0,0.0,0.0,0.0,0.0,0.0,0.0,0.0,0.0,0.0,0.0,0.0,0.0,0.0,0.0,0.0,0.0,0.0,0.0,0.0,0.0,0.0,0.0,0.0,0.0,0.0,0.0,0.0,0.0,0.0,0.0,0.0,0.0,0.0,0.0,0.0,0.0,0.0,0.0,0.0,0.0,0.0,0.0,-4.9239,-5.0733,-5.0825,-5.0861,-5.0861,-4.9994,-4.9112,0.0,0.0,0.0,0.0,0.0,0.0,0.0,0.0,0.0,0.0,0.0,0.0,0.0,0.0,0.0,0.0,0.0,0.0,0.0,0.0,0.0,0.0,0.0,0.0,0.0,0.0,0.0,0.0,0.0,0.0,0.0,0.0,0.0,0.0,0.0,0.0,0.0,0.0,0.0,0.0,0.0,0.0,0.0,0.0,0.0,0.0,0.0,0.0,-4.4148,0.0,0.0,0.0,0.0,0.0,0.0,0.0,0.0,0.0,0.0,0.0,0.0,0.0,0.0,0.0,0.0,0.0,0.0,0.0,0.0,0.0,0.0,0.0,0.0,0.0,0.0,0.0,0.0,0.0,0.0,0.0,0.0,0.0,0.0,0.0,0.0,0.0,0.0,0.0,0.0,0.0,0.0,0.0,0.0,0.0,0.0,0.0,0.0,0.0,0.0,0.0,0.0,0.0,0.0,0.0,0.0,0.0,0.0,0.0,-4.9135,-5.0778,-5.0739,-5.0664,-5.0664,-5.0083,-4.9217,0.0,0.0,0.0,0.0,0.0,0.0,0.0,0.0,0.0,0.0,0.0,0.0,0.0,0.0,0.0,0.0,0.0,0.0,0.0,0.0,0.0,0.0,0.0,0.0,0.0,0.0,0.0,0.0,0.0,0.0,0.0,0.0,0.0,0.0,0.0,0.0,0.0,0.0,0.0,0.0,0.0,0.0,0.0,0.0,0.0,0.0,0.0,0.0,0.0,0.0,0.0,0.0,0.0,0.0,0.0,0.0,0.0,0.0,0.0,0.0,0.0,0.0,0.0,0.0,0.0,0.0,0.0,0.0,0.0,0.0,0.0,0.0,0.0,0.0,0.0,0.0,0.0,0.0,0.0,0.0,0.0,0.0,0.0,0.0,0.0,0.0,0.0,0.0,0.0,0.0,0.0,0.0,0.0,0.0,0.0,0.0,0.0,0.0,0.0,0.0,0.0,0.0,0.0,0.0,0.0,0.0,0.0,-4.8255,-4.9047,-5.0568,-5.0523,-5.0438,-5.0416,-5.0182,-4.9308,-4.7766,0.0,0.0,0.0,0.0,0.0,0.0,0.0,0.0,0.0,0.0,0.0,0.0,0.0,0.0,0.0,0.0,0.0,0.0,0.0,0.0,0.0,0.0,0.0,0.0,0.0,0.0,0.0,0.0,0.0,0.0,0.0,0.0,0.0,0.0,0.0,0.0,0.0,0.0,-4.0938,-4.1764,0.0,0.0,0.0,0.0,0.0,0.0,0.0,0.0,-4.4036,0.0,0.0,0.0,0.0,0.0,0.0,0.0,0.0,0.0,0.0,0.0,0.0,0.0,0.0,0.0,0.0,0.0,0.0,0.0,0.0,0.0,0.0,0.0,0.0,0.0,0.0,0.0,0.0,0.0,0.0,0.0,0.0,0.0,0.0,0.0,0.0,0.0,0.0,0.0,0.0,0.0,0.0,0.0,0.0,0.0,0.0,0.0,0.0,0.0,0.0,0.0,0.0,0.0,0.0,0.0,0.0,-4.8068,-4.8682,-4.9486,-5.0421,-5.0259,-5.0139,-5.0158,-4.9898,-4.8957,-4.7343,0.0,0.0,0.0,0.0,0.0,0.0,0.0,0.0,0.0,0.0,0.0,0.0,0.0,0.0,0.0,0.0,0.0,0.0,0.0,0.0,0.0,0.0,0.0,0.0,0.0,0.0,0.0,0.0,0.0,0.0,0.0,0.0,0.0,0.0,0.0,0.0,0.0,0.0,0.0,-4.2992,-4.397,0.0,0.0,0.0,0.0,0.0,0.0,0.0,0.0,-4.38,0.0,0.0,0.0,0.0,0.0,0.0,0.0,0.0,0.0,0.0,0.0,0.0,0.0,0.0,0.0,0.0,0.0,0.0,0.0,0.0,0.0,0.0,0.0,0.0,0.0,0.0,0.0,0.0,0.0,0.0,0.0,0.0,0.0,0.0,0.0,0.0,0.0,0.0,0.0,0.0,0.0,0.0,0.0,0.0,0.0,0.0,0.0,0.0,0.0,0.0,0.0,0.0,0.0,0.0,0.0,-4.7786,-4.856,-4.931,-5.012,-4.9978,-4.9898,-4.9871,-4.9585,-4.8633,0.0,0.0,0.0,0.0,0.0,0.0,0.0,0.0,0.0,0.0,0.0,0.0,0.0,0.0,0.0,0.0,0.0,0.0,0.0,0.0,0.0,0.0,0.0,0.0,0.0,0.0,0.0,0.0,0.0,0.0,0.0,0.0,0.0,0.0,0.0,0.0,0.0,0.0,0.0,0.0,-4.3475,-4.4326,-4.4671,0.0,0.0,0.0,0.0,0.0,0.0,-4.509,-4.4704,0.0,0.0,0.0,0.0,0.0,0.0,0.0,0.0,0.0,0.0,0.0,0.0,0.0,0.0,0.0,0.0,0.0,0.0,0.0,0.0,0.0,0.0,0.0,0.0,0.0,0.0,0.0,0.0,0.0,0.0,0.0,0.0,0.0,0.0,0.0,0.0,0.0,0.0,0.0,0.0,0.0,0.0,0.0,0.0,0.0,0.0,0.0,0.0,0.0,0.0,0.0,0.0,0.0,0.0,0.0,-4.7542,-4.8441,-4.9197,-4.9759,-4.9673,-4.9604,-4.9604,-4.9276,-4.8329,0.0,0.0,0.0,0.0,0.0,0.0,0.0,0.0,0.0,0.0,0.0,0.0,0.0,0.0,0.0,0.0,0.0,0.0,0.0,0.0,0.0,0.0,0.0,0.0,0.0,0.0,0.0,0.0,0.0,0.0,0.0,0.0,0.0,0.0,0.0,0.0,0.0,0.0,0.0,0.0,0.0,-4.4725,-4.5322,-4.5892,0.0,0.0,0.0,0.0,-4.6289,-4.6046,0.0,0.0,0.0,0.0,0.0,0.0,0.0,0.0,0.0,0.0,0.0,0.0,0.0,0.0,0.0,0.0,0.0,0.0,0.0,0.0,0.0,0.0,0.0,0.0,0.0,0.0,0.0,0.0,0.0,0.0,0.0,0.0,0.0,0.0,0.0,0.0,0.0,0.0,0.0,0.0,0.0,0.0,0.0,0.0,0.0,0.0,0.0,0.0,0.0,0.0,0.0,0.0,0.0,0.0,0.0,0.0,-4.7313,-4.8777,-4.955,-4.9457,-4.934,-4.9262,-4.9244,-4.8996,-4.806,0.0,0.0,0.0,0.0,0.0,0.0,0.0,0.0,0.0,0.0,0.0,0.0,0.0,0.0,0.0,0.0,0.0,0.0,0.0,0.0,0.0,0.0,0.0,0.0,0.0,0.0,0.0,0.0,0.0,0.0,0.0,0.0,0.0,0.0,0.0,0.0,0.0,0.0,0.0,0.0,0.0,-4.6031,-4.5981,-4.652,-4.6797,0.0,0.0,-4.6428,-4.6153,-4.6011,0.0,0.0,0.0,0.0,0.0,0.0,0.0,0.0,0.0,0.0,0.0,0.0,0.0,0.0,0.0,0.0,0.0,0.0,0.0,0.0,0.0,0.0,0.0,0.0,0.0,0.0,0.0,0.0,0.0,0.0,0.0,0.0,0.0,0.0,0.0,0.0,0.0,0.0,0.0,0.0,0.0,0.0,0.0,0.0,0.0,0.0,0.0,0.0,0.0,0.0,0.0,0.0,0.0,0.0,0.0,-4.7211,-4.6982,-4.8558,-4.9308,-4.9127,-4.9012,-4.8962,-4.8943,-4.8751,-4.7849,0.0,0.0,0.0,0.0,0.0,0.0,0.0,0.0,0.0,0.0,0.0,0.0,0.0,0.0,0.0,0.0,0.0,0.0,0.0,0.0,0.0,0.0,0.0,0.0,0.0,0.0,0.0,0.0,0.0,0.0,0.0,0.0,0.0,0.0,0.0,0.0,0.0,0.0,0.0,0.0,0.0,0.0,-4.5946,-4.6786,0.0,0.0,0.0,-4.7572,-4.7353,0.0,0.0,0.0,0.0,0.0,0.0,0.0,0.0,0.0,0.0,0.0,0.0,0.0,0.0,0.0,0.0,0.0,0.0,0.0,0.0,0.0,0.0,0.0,0.0,0.0,0.0,0.0,0.0,0.0,0.0,0.0,0.0,0.0,0.0,0.0,0.0,0.0,0.0,0.0,0.0,0.0,0.0,0.0,0.0,0.0,0.0,0.0,0.0,0.0,0.0,0.0,0.0,0.0,0.0,0.0,0.0,0.0,-4.6688,-4.8273,-4.9046,-4.882,-4.8732,-4.8715,-4.866,-4.855,0.0,0.0,0.0,0.0,0.0,0.0,0.0,0.0,0.0,0.0,0.0,0.0,0.0,0.0,0.0,0.0,0.0,0.0,0.0,0.0,0.0,0.0,0.0,0.0,0.0,0.0,0.0,-3.5905,0.0,0.0,0.0,0.0,0.0,0.0,0.0,0.0,0.0,0.0,0.0,0.0,0.0,0.0,-4.6149,-4.6269,-4.7298,-4.7999,0.0,0.0,-4.8401,-4.8229,-4.7974,-4.7487,0.0,0.0,0.0,0.0,0.0,0.0,0.0,0.0,0.0,0.0,0.0,0.0,0.0,0.0,0.0,0.0,0.0,0.0,0.0,0.0,0.0,0.0,0.0,0.0,0.0,0.0,0.0,0.0,0.0,0.0,0.0,0.0,0.0,0.0,0.0,0.0,0.0,0.0,0.0,0.0,0.0,0.0,0.0,0.0,0.0,0.0,0.0,0.0,0.0,0.0,0.0,0.0,0.0,0.0,-4.6713,-4.6583,-4.8073,-4.882,-4.8623,-4.855,-4.8457,-4.8344,-4.8247,-4.7746,0.0,0.0,0.0,0.0,0.0,0.0,0.0,0.0,0.0,0.0,0.0,0.0,0.0,0.0,0.0,0.0,0.0,0.0,0.0,0.0,0.0,0.0,0.0,0.0,0.0,0.0,0.0,0.0,0.0,0.0,0.0,0.0,0.0,0.0,0.0,0.0,0.0,0.0,0.0,0.0,0.0,-4.69,-4.7569,-4.8259,-4.8623,0.0,-4.8269,-4.8229,-4.8032,-4.7847,-4.7597,-4.7291,0.0,0.0,0.0,0.0,0.0,0.0,0.0,0.0,0.0,0.0,0.0,0.0,0.0,0.0,0.0,0.0,0.0,0.0,0.0,0.0,0.0,0.0,0.0,0.0,0.0,0.0,0.0,0.0,0.0,0.0,0.0,0.0,0.0,0.0,0.0,0.0,0.0,0.0,0.0,0.0,0.0,0.0,0.0,0.0,0.0,0.0,0.0,0.0,0.0,0.0,0.0,0.0,0.0,-4.6424,-4.6276,-4.7847,-4.8587,-4.8402,-4.8401,-4.8343,-4.8247,-4.8226,-4.7725,0.0,0.0,0.0,0.0,0.0,0.0,0.0,0.0,0.0,0.0,0.0,0.0,0.0,0.0,0.0,0.0,0.0,0.0,0.0,0.0,0.0,0.0,0.0,0.0,0.0,0.0,0.0,0.0,-3.6165,-3.6717,-3.7717,0.0,0.0,0.0,0.0,0.0,0.0,0.0,0.0,0.0,0.0,-4.7122,-4.7402,-4.7979,0.0,0.0,-4.8053,-4.7933,-4.7705,-4.7493,-4.7214,-4.6898,-4.6572,0.0,0.0,0.0,0.0,0.0,0.0,0.0,0.0,0.0,0.0,0.0,0.0,0.0,0.0,0.0,0.0,0.0,0.0,0.0,0.0,0.0,0.0,0.0,0.0,0.0,0.0,0.0,0.0,0.0,0.0,0.0,0.0,0.0,0.0,0.0,0.0,0.0,0.0,0.0,0.0,0.0,0.0,0.0,0.0,0.0,0.0,0.0,0.0,0.0,0.0,0.0,0.0,-4.635,-4.6469,-4.7813,-4.8457,-4.8324,-4.8267,-4.8208,-4.8108,-4.8068,-4.7674,0.0,0.0,0.0,0.0,0.0,0.0,0.0,0.0,0.0,0.0,0.0,0.0,0.0,0.0,0.0,0.0,0.0,0.0,0.0,0.0,0.0,0.0,0.0,0.0,0.0,0.0,0.0,0.0,-3.6703,-3.7258,-3.8286,0.0,0.0,0.0,0.0,0.0,0.0,0.0,0.0,0.0,0.0,-4.713,-4.7351,-4.7746,-4.797,-4.7829,-4.7728,-4.7603,-4.7363,-4.7125,-4.6835,-4.6572,0.0,0.0,0.0,0.0,0.0,0.0,0.0,0.0,0.0,0.0,0.0,0.0,0.0,0.0,0.0,0.0,0.0,0.0,0.0,0.0,0.0,0.0,0.0,0.0,0.0,0.0,0.0,0.0,0.0,0.0,-4.3804,0.0,0.0,0.0,0.0,0.0,0.0,0.0,0.0,0.0,0.0,0.0,0.0,0.0,0.0,0.0,0.0,0.0,0.0,0.0,0.0,0.0,0.0,-4.6576,-4.7279,-4.8089,-4.8419,-4.8306,-4.8265,-4.809,-4.7834,-4.7747,-4.7529,-4.7169,0.0,0.0,0.0,0.0,0.0,0.0,0.0,0.0,0.0,0.0,0.0,0.0,0.0,0.0,0.0,0.0,0.0,0.0,0.0,0.0,0.0,0.0,0.0,0.0,0.0,0.0,-3.784,-3.8145,-3.8418,0.0,0.0,0.0,0.0,0.0,0.0,0.0,0.0,0.0,0.0,-4.6655,-4.6902,-4.7629,-4.7747,-4.7615,-4.7363,-4.732,-4.7232,-4.7025,-4.6778,-4.6572,0.0,0.0,0.0,0.0,0.0,0.0,0.0,0.0,0.0,0.0,0.0,0.0,0.0,0.0,0.0,0.0,0.0,0.0,0.0,0.0,0.0,0.0,0.0,0.0,0.0,0.0,0.0,-4.5208,-4.4689,0.0,0.0,0.0,0.0,0.0,0.0,0.0,0.0,0.0,0.0,0.0,-4.811,-4.8389,0.0,0.0,0.0,0.0,0.0,0.0,0.0,0.0,0.0,0.0,0.0,0.0,-4.693,-4.7187,-4.7958,-4.8324,-4.8247,-4.813,-4.7911,-4.7621,-4.7493,-4.6874,-4.5764,0.0,0.0,0.0,0.0,0.0,0.0,0.0,0.0,0.0,0.0,0.0,0.0,0.0,0.0,0.0,0.0,0.0,0.0,0.0,0.0,0.0,0.0,0.0,0.0,0.0,-3.7537,0.0,0.0,0.0,0.0,0.0,0.0,0.0,0.0,0.0,0.0,0.0,-4.5479,-4.6043,-4.6539,-4.697,-4.724,-4.7249,-4.716,0.0,0.0,0.0,0.0,0.0,0.0,0.0,0.0,0.0,0.0,0.0,0.0,0.0,0.0,-4.3115,-4.3213,-4.3132,-4.2941,-4.2614,0.0,0.0,0.0,0.0,0.0,0.0,0.0,0.0,0.0,0.0,0.0,0.0,0.0,0.0,-4.5937,0.0,-4.4441,0.0,0.0,0.0,0.0,0.0,0.0,0.0,0.0,-4.7824,-4.825,-4.8679,-4.8679,-4.8624,0.0,-4.8438,-4.7905,0.0,0.0,0.0,0.0,0.0,0.0,0.0,0.0,-4.7241,-4.7478,-4.8011,-4.8208,-4.805,-4.7911,-4.7663,-4.7363,-4.7017,-4.6371,-4.5236,-4.388,-4.2821,0.0,0.0,0.0,0.0,0.0,0.0,0.0,0.0,0.0,0.0,0.0,0.0,0.0,0.0,0.0,0.0,0.0,0.0,0.0,0.0,0.0,0.0,0.0,-3.8453,0.0,0.0,0.0,0.0,0.0,0.0,0.0,0.0,0.0,-4.3492,-4.4698,-4.5602,-4.5886,-4.6365,-4.6731,-4.6731,0.0,0.0,0.0,0.0,0.0,0.0,0.0,-4.558,-4.5477,-4.523,-4.4978,-4.4665,-4.4423,-4.4121,-4.3789,0.0,0.0,-4.3519,-4.3432,-4.3251,-4.2789,-4.268,-4.2445,-4.1866,-4.1785,-4.1654,0.0,0.0,0.0,0.0,0.0,0.0,0.0,0.0,-4.7735,-4.7067,0.0,-4.5184,0.0,0.0,0.0,0.0,0.0,-4.6507,0.0,0.0,-4.82,-4.8569,-4.8513,-4.8513,-4.8419,-4.8306,-4.8324,-4.8306,-4.8233,-4.7497,0.0,0.0,0.0,0.0,0.0,0.0,-4.7478,-4.8151,-4.8169,-4.805,-4.7793,-4.7578,-4.7363,-4.7062,-4.6346,-4.5852,-4.5494,-4.382,-4.2775,-4.2655,-4.1137,0.0,0.0,0.0,0.0,0.0,0.0,0.0,0.0,0.0,0.0,0.0,0.0,0.0,0.0,0.0,0.0,0.0,0.0,0.0,0.0,-3.9259,0.0,0.0,0.0,0.0,0.0,0.0,0.0,0.0,0.0,0.0,-4.378,-4.4558,-4.5295,-4.6081,0.0,0.0,0.0,0.0,-4.6119,-4.5988,-4.5887,-4.5735,-4.558,-4.5336,-4.5177,-4.5177,0.0,0.0,-4.4367,-4.4138,-4.3981,-4.3628,-4.3312,-4.3035,-4.3035,-4.2929,-4.2713,-4.2174,-4.2045,-4.1851,-4.1256,-4.1055,-4.1003,-5.2389,0.0,0.0,0.0,0.0,-4.9788,-4.9394,-4.8819,-4.798,-4.7365,-4.6929,-4.5993,0.0,0.0,0.0,0.0,0.0,0.0,-4.7463,-4.8014,-4.8272,-4.8364,-4.8363,-4.8363,-4.8363,-4.8324,-4.8324,-4.8286,-4.8208,-4.8007,-4.7476,-4.6707,0.0,0.0,0.0,0.0,-4.7795,-4.7915,-4.7893,-4.777,-4.7457,-4.7284,-4.6972,-4.6459,-4.5887,-4.5235,-4.4544,-4.3271,-4.2295,-4.1629,-4.0697,0.0,0.0,0.0,0.0,0.0,0.0,0.0,0.0,0.0,0.0,0.0,0.0,0.0,0.0,0.0,0.0,0.0,0.0,0.0,-3.8805,-3.9069,-3.9309,0.0,0.0,0.0,0.0,0.0,0.0,0.0,0.0,0.0,-4.3786,-4.4699,-4.5389,0.0,0.0,-4.5632,-4.5632,-4.5649,-4.558,-4.5441,0.0,0.0,0.0,-4.4906,-4.4725,-4.4669,-4.448,-4.4212,-4.3848,-4.3687,-4.3432,-4.3007,-4.2618,-4.2285,-4.19,-4.2093,-4.2109,-4.1522,-4.139,-4.1189,-4.0631,-4.0493,-4.0439,-5.2554,-5.1664,-5.0665,-5.0082,-4.9871,-4.9615,-4.934,-4.9042,-4.8268,-4.7886,-4.7703,-4.6783,-4.6379,-4.6379,-4.6397,0.0,0.0,0.0,-4.7847,-4.8324,-4.8324,-4.8324,-4.8324,-4.8324,-4.8267,-4.8229,-4.8247,-4.8208,-4.8032,-4.8032,-4.7715,-4.7157,0.0,0.0,-4.7215,-4.7652,-4.7788,-4.7627,-4.7585,-4.7414,-4.7053,-4.6742,-4.6363,-4.587,-4.52,-4.4542,-4.3938,-4.2686,-4.1765,-4.1221,-4.0493,-3.9749,0.0,0.0,0.0,0.0,0.0,0.0,0.0,0.0,0.0,0.0,0.0,-3.7669,-3.7567,0.0,0.0,0.0,-3.8095,-3.8182,-3.8717,-3.8766,0.0,0.0,0.0,0.0,0.0,0.0,0.0,-4.1154,-4.1882,-4.2681,-4.3622,-4.45,-4.514,-4.523,-4.523,-4.5247,-4.523,0.0,-4.523,-4.514,-4.5015,-4.4906,-4.4797,-4.4463,-4.4219,-4.4162,-4.4006,-4.3772,-4.3492,-4.3235,-4.2929,-4.2492,-4.2045,-4.1573,-4.1189,-4.1241,-4.1241,-4.0851,-4.0699,-4.0578,-4.0076,-4.0005,-3.995,-5.2411,-5.1595,-5.0525,-4.9925,-4.9663,-4.934,-4.9079,-4.8855,-4.8606,-4.8513,-4.842,-4.7591,-4.7223,-4.7205,-4.7205,0.0,-4.7241,-4.7976,-4.8306,-4.8324,-4.8324,-4.8324,-4.8324,-4.8306,-4.8247,-4.8187,-4.8187,-4.8032,-4.7793,-4.7752,-4.7585,-4.7258,-4.7542,-4.7687,-4.7657,-4.7675,-4.7529,-4.7258,-4.7258,-4.7007,-4.6542,-4.6038,-4.5615,-4.5285,-4.4386,-4.378,-4.3467,-4.2001,-4.1187,-4.1102,-4.0443,-3.9783,-3.9123,0.0,0.0,0.0,0.0,0.0,0.0,0.0,0.0,0.0,0.0,0.0,0.0,0.0,0.0,0.0,-3.8432,0.0,-3.8335,-3.8335,0.0,0.0,0.0,-3.8931,-3.9379,-3.9432,-3.9837,-4.0925,0.0,0.0,-4.3348,0.0,-4.4626,-4.4869,-4.4923,-4.4923,-4.4923,-4.4923,-4.4923,-4.4923,-4.4631,-4.4446,-4.4446,-4.4047,-4.3697,-4.3578,-4.3519,-4.3399,-4.3035,-4.2789,-4.2396,-4.2045,-4.1472,-4.0987,-4.0799,-4.0439,-4.0146,-4.0146,-4.013,-4.0091,-3.9753,-3.9681,-3.9625,-5.1913,-5.1505,-5.0399,-4.9843,-4.9663,-4.9358,-4.9046,-4.8822,-4.8569,-4.8457,-4.8344,-4.8104,-4.8031,-4.8012,-4.8031,-4.8012,-4.8031,-4.8214,-4.8324,-4.8324,-4.8324,-4.8324,-4.8324,-4.8247,-4.8226,-4.8187,-4.7992,-4.777,-4.7578,-4.7475,-4.7214,-4.6778,-4.6852,-4.7007,-4.7178,-4.716,-4.7025,-4.676,-4.676,-4.6525,-4.5988,-4.5684,-4.5165,-4.4422,-4.397,-4.3197,-4.1988,-4.1442,-4.0933,-4.0375,-4.0172,-4.0036,-3.9834,-3.9817,0.0,0.0,0.0,0.0,0.0,0.0,0.0,0.0,0.0,-3.8394,-3.8244,0.0,-3.8059,0.0,-3.7828,-3.7653,-3.7653,-3.7653,0.0,0.0,-3.8116,-3.8343,-3.8914,-3.8969,-3.9627,-4.136,-4.1677,-4.2317,-4.3793,-4.4112,-4.4212,-4.4121,-4.4293,-4.4423,-4.431,-4.431,-4.431,-4.4327,-4.4121,-4.3989,-4.3931,-4.3578,-4.3174,-4.2896,-4.2834,-4.271,-4.2412,-4.219,-4.1947,-4.139,-4.1003,-4.0524,-4.0231,-3.998,-3.9737,-3.961,-3.9681,-3.9753,-3.9553,-3.9496,-3.9481,-5.1488,-5.0966,-5.0221,-4.9788,-4.9537,-4.9211,-4.8943,-4.8678,-4.8476,-4.8363,-4.8324,-4.8324,-4.8324,-4.8324,-4.8324,-4.8324,-4.8324,-4.8324,-4.8324,-4.8306,-4.8286,-4.8247,-4.8247,-4.809,-4.801,-4.7947,-4.7705,-4.7414,-4.7187,-4.7053,-4.6742,-4.6235,-4.6253,-4.6235,-4.6284,-4.6542,-4.6542,-4.6332,-4.6137,-4.573,-4.5061,-4.4801,-4.4213,-4.3425,-4.2873,-4.2172,-4.1324,-4.0934,-4.051,-4.0104,-4.0087,-4.0087,-4.0087,-4.0037,-3.9986,0.0,0.0,0.0,0.0,0.0,0.0,0.0,0.0,0.0,0.0,0.0,-3.7535,-3.7508,-3.7254,-3.7074,-3.7074,-3.7074,-3.7118,-3.7401,-3.746,-3.7679,-3.8343,-3.8383,-3.9194,-4.1163,-4.1385,-4.2005,-4.3631,-4.3906,-4.3772,-4.3519,-4.3638,-4.3756,-4.3848,-4.3906,-4.3906,-4.3889,-4.3654,-4.3339,-4.308,-4.2851,-4.2539,-4.2222,-4.2142,-4.2093,-4.1785,-4.1522,-4.1194,-4.0546,-3.9994,-3.9558,-3.9107,-3.8807,-3.8652,-3.8597,-3.8597,-3.8892,-3.929,-3.9424,-3.9424,-5.1086,-5.0278,-5.0031,-4.9712,-4.9384,-4.9027,-4.8785,-4.8587,-4.8382,-4.8324,-4.8324,-4.8324,-4.8324,-4.8324,-4.8324,-4.8324,-4.8324,-4.8324,-4.8306,-4.8267,-4.8226,-4.8187,-4.8148,-4.7911,-4.7747,-4.7657,-4.7363,-4.7035,-4.6731,-4.6572,-4.6253,-4.5786,-4.5752,-4.558,-4.5389,-4.5749,-4.583,-4.5748,-4.539,-4.4767,-4.3906,-4.3695,-4.3144,-4.2362,-4.1577,-4.117,-4.1052,-4.0426,-4.0087,-4.0087,-4.0087,-4.0087,-4.007,-3.9986,-3.9901,0.0,-3.9468,0.0,0.0,0.0,0.0,0.0,0.0,0.0,0.0,-3.7329,-3.7013,-3.6877,-3.6739,-3.66,-3.6585,-3.6476,-3.6523,-3.6799,-3.6784,-3.7087,-3.7711,-3.777,-3.8605,-4.0629,-4.0867,-4.1508,-4.3168,-4.3459,-4.3339,-4.3035,-4.299,-4.3035,-4.3279,-4.3399,-4.3443,-4.3459,-4.3157,-4.2726,-4.2158,-4.198,-4.1851,-4.1522,-4.1456,-4.1343,-4.1017,-4.0764,-4.0291,-3.9471,-3.8895,-3.8385,-3.7729,-3.7533,-3.7434,-3.7509,-3.7524,-3.7853,-3.8766,-3.9035,-3.9155,-5.0569,-5.0278,-5.0012,-4.9712,-4.9384,-4.9027,-4.8785,-4.8587,-4.8364,-4.8324,-4.8324,-4.8324,-4.8324,-4.8324,-4.8324,-4.8324,-4.8324,-4.8324,-4.8286,-4.8226,-4.8206,-4.809,-4.7875,-4.7663,-4.7493,-4.7345,-4.6944,-4.6637,-4.6477,-4.6137,-4.5786,-4.5494,-4.5389,-4.5247,-4.5052,0.0,0.0,0.0,-4.4301,-4.3767,-4.2841,-4.2754,-4.2309,-4.1493,-4.1271,0.0,-4.0324,-4.0138,-4.0087,-4.0087,-4.0087,0.0,0.0,0.0,0.0,0.0,0.0,0.0,0.0,0.0,0.0,0.0,-3.6876,-3.6862,-3.7121,-3.68,-3.6476,-3.6226,-3.6163,-3.61,-3.6148,-3.61,-3.6163,-3.6321,-3.6305,-3.6554,-3.7027,-3.7087,-3.7923,-3.9927,-4.0196,-4.0833,-4.2434,-4.2772,-4.2664,-4.2365,-4.2302,-4.2158,-4.2029,-4.2459,-4.2789,-4.2743,-4.2492,-4.2029,-4.139,-4.1323,-4.1189,-4.0799,-4.073,-4.0446,-3.9831,-3.964,-3.9207,-3.8296,-3.7971,-3.779,-3.7473,-3.7419,-3.733,-3.7389,-3.7375,-3.7479,-3.7734,-3.7793,-3.7793,-5.0416,0.0,-5.0031,-4.9712,0.0,-4.9046,-4.8785,-4.8587,-4.8364,-4.8324,-4.8324,-4.8324,-4.8324,-4.8324,-4.8324,-4.8324,-4.8324,-4.8324,-4.8286,-4.8187,-4.8032,-4.7893,-4.7765,-4.7425,-4.7187,-4.7053,-4.6542,-4.6204,-4.5988,-4.5684,-4.5372,-4.5086,-4.4656,-4.4377,-4.4181,-4.3467,-4.3182,-4.3287,-4.3234,-4.2771,-4.1901,-4.185,-4.1494,-4.0696,0.0,0.0,0.0,0.0,0.0,0.0,0.0,0.0,0.0,0.0,0.0,-3.9255,-3.8788,-3.8343,-3.7812,-3.7433,-3.7013,-3.6616,-3.6336,-3.6304,-3.6507,-3.6367,-3.6163,-3.6022,-3.591,-3.5831,-3.5831,-3.5797,-3.5797,-3.5943,-3.5943,-3.6117,-3.6492,-3.6554,-3.7204,-3.8668,-3.9281,-4.0024,-4.1437,-4.1901,-4.1948,-4.1654,-4.1588,-4.1425,-4.1189,-4.1638,-4.2029,-4.1916,-4.172,-4.1374,-4.0836,-4.0646,-4.0423,-3.9918,-3.9742,-3.9467,-3.8803,-3.8561,-3.8198,-3.736,-3.7143,-3.703,-3.6537,-3.6462,-3.6462,-3.6477,-3.6477,-3.6477,-3.6507,-3.6956,-3.7404,-5.0416,-5.0259,-5.0031,-4.9693,-4.9384,-4.9027,-4.875,-4.8514,0.0,0.0,0.0,-4.8324,-4.8324,-4.8324,-4.8324,-4.8324,-4.8324,-4.8324,-4.8247,-4.8166,-4.7893,-4.7728,-4.759,-4.7178,-4.686,-4.6684,-4.6137,-4.5716,-4.539,-4.5077,-4.4759,-4.4388,-4.3773,-4.3291,-4.2997,-4.2405,-4.2068,-4.2107,-4.2209,-4.185,-4.1035,-4.1018,-4.0713,-4.0087,-4.0087,-4.0087,-4.0087,-4.0087,-4.0087,-4.0087,-4.0087,-4.0037,-3.9901,-3.9659,-3.9325,-3.8985,-3.8399,-3.7828,-3.7342,-3.6892,-3.6523,-3.6148,-3.5973,-3.591,-3.5973,-3.5958,-3.5973,-3.591,-3.5782,-3.5638,-3.5638,-3.5554,-3.5554,-3.5638,-3.5638,-3.5752,-3.607,-3.6133,-3.6597,-3.7716,-3.837,-3.9074,-4.0069,-4.0669,-4.0962,-4.068,-4.052,-4.0494,-4.0269,-4.08,-4.1307,-4.1055,-4.0863,-4.0566,-4.0071,-3.9779,-3.9527,-3.8857,-3.8713,-3.847,-3.794,-3.7609,-3.727,-3.6586,-3.643,-3.6103,-3.5639,-3.5594,-3.5489,-3.5489,-3.5489,-3.5489,-3.5579,-3.6327,-3.6985,-5.0416,-5.0278,-5.0031,-4.9712,-4.9384,-4.9027,-4.8678,-4.8344,-4.8306,-4.8324,-4.8324,-4.8324,-4.8324,-4.8324,-4.8324,-4.8324,-4.8324,-4.8324,-4.819,0.0,-4.7893,-4.7603,-4.7285,-4.6842,-4.6525,-4.6235,-4.5717,-4.5148,-4.4509,-4.4092,-4.3537,-4.2872,-4.2613,-4.2151,-4.1559,-4.1407,-4.1035,-4.0477,-4.1086,-4.0984,-4.0257,-4.0223,-4.0206,-4.0087,-4.0087,-4.0087,-4.0087,-4.0087,-4.0087,-4.0087,-4.0087,-4.002,-3.9901,-3.9642,-3.9272,-3.8843,-3.8286,-3.7637,-3.7027,-3.6708,-3.6289,-3.5831,-3.5668,-3.5604,-3.5752,-3.5767,-3.5703,-3.5554,-3.5554,-3.5554,-3.5489,-3.5504,-3.5504,-3.5554,-3.5554,-3.5619,-3.5767,-3.5752,-3.6186,-3.7241,-3.7441,-3.7843,-3.8688,-3.8936,-3.9025,-3.878,-3.8882,-3.8678,-3.8742,-3.9665,-4.0432,-4.0278,-3.9879,-3.9367,-3.8985,-3.8394,-3.8054,-3.7638,-3.7608,-3.7481,-3.6865,-3.6678,-3.6469,-3.5839,-3.5714,-3.5639,-3.5489,-3.5489,-3.5489,-3.5489,-3.5489,-3.5489,-3.5489,-3.5744,-3.5863,-5.0478,-5.0344,-5.0108,-4.9824,-4.9525,-4.9046,-4.866,-4.8401,-4.8306,-4.8324,-4.8324,-4.8324,-4.8324,-4.8269,-4.7847,-4.7664,-4.7645,-4.7205,-4.689,-4.6679,-4.6521,-4.6254,-4.5889,-4.5425,-4.5082,-4.4844,-4.43,-4.3821,-4.3426,-4.3095,-4.2749,-4.2375,-4.1967,-4.1339,-4.0629,-4.0595,-4.0426,-4.0087,-4.0426,-4.0426,-4.0087,-4.0087,-4.0087,-4.0087,-4.0087,-4.0087,-4.0087,-4.0087,-4.0087,-4.0087,-4.0037,-3.9901,-3.9711,-3.9309,-3.886,-3.8343,-3.7828,-3.7222,-3.6554,-3.6163,-3.5861,-3.5604,-3.5554,-3.5489,-3.5604,-3.5589,-3.5554,-3.5489,-3.5489,-3.5489,-3.5489,-3.5489,-3.5489,-3.5489,-3.5489,-3.5504,-3.5604,-3.5604,-3.5853,-3.6334,-3.6763,-3.7162,-3.7632,-3.7984,-3.8147,-3.7977,-3.791,-3.776,-3.7677,-3.8311,-3.8788,-3.8773,-3.863,-3.8341,-3.806,-3.7781,-3.7368,-3.6985,-3.6911,-3.6641,-3.6103,-3.5953,-3.5833,-3.5579,-3.5489,-3.5489,-3.5489,-3.5489,-3.5489,-3.5489,-3.5489,-3.5489,-3.5489,-3.5489,-3.5489,-5.054,-5.0371,-5.0182,-4.9784,-4.9262,-4.8751,-4.8328,-4.796,-4.7793,-4.7755,-4.7792,-4.7939,-4.8049,-4.7957,-4.7205,-4.6856,-4.6764,-4.6195,-4.5791,-4.5603,-4.5391,-4.5111,-4.4754,-4.4361,-4.3979,-4.365,-4.3162,-4.2774,-4.2484,-4.2191,-4.1948,-4.1745,-4.1221,-4.0663,-4.0087,-4.0087,-4.0087,-4.0087,-4.0087,-4.0087,-4.0087,-4.0087,-4.0087,-4.0087,-4.0087,-4.0087,-4.0087,-4.0087,-4.0087,-4.0087,-3.9986,-3.9798,-3.9484,-3.904,-3.8511,-3.7943,-3.7417,-3.6815,-3.6133,-3.5733,-3.5489,-3.5489,-3.5489,-3.5489,-3.5489,-3.5489,-3.5489,-3.5489,-3.5489,-3.5489,-3.5489,-3.5489,-3.5489,-3.5489,-3.5489,-3.5504,-3.5489,-3.5489,-3.5554,-3.5699,-3.609,-3.6456,-3.6708,-3.7137,-3.7313,-3.718,-3.7053,-3.6985,-3.6985,-3.6985,-3.7068,-3.7166,-3.7323,-3.7413,-3.7195,-3.703,-3.6761,-3.6312,-3.6267,-3.6058,-3.5669,-3.5519,-3.5504,-3.5489,-3.5489,-3.5489,-3.5489,-3.5489,-3.5489,-3.5489,-3.5489,-3.5489,-3.5489,-3.5489,-3.5489,-5.054,-5.039,-5.0163,-4.9296,-4.8103,-4.7813,-4.7235,-4.6414,-4.6195,-4.6104,-4.6269,-4.6893,-4.7167,-4.7131,-4.6379,-4.6012,-4.5993,-4.592,-4.5736,-4.553,-4.5451,-4.5192,-4.4724,-4.4334,-4.4008,-4.3598,-4.3076,-4.2397,-4.1715,-4.1443,-4.0967,-4.0358,-4.0206,-4.0172,-4.0087,-4.0087,-4.0087,-4.0087,-4.0087,-4.0087,-4.0087,-4.0087,-4.0087,-4.0087,-4.0087,-4.0087,-4.0087,-4.0087,-4.0087,-4.0087,-3.9986,-3.9798,-3.9484,-3.9023,-3.8511,-3.7927,-3.7282,-3.66,-3.58,-3.5604,-3.5489,-3.5489,-3.5489,-3.5489,-3.5489,-3.5489,-3.5489,-3.5489,-3.5489,-3.5489,-3.5489,-3.5489,-3.5489,-3.5489,-3.5489,-3.5489,-3.5489,-3.5489,-3.5504,-3.5489,-3.5659,-3.5644,-3.5749,-3.5904,-3.5824,-3.5944,-3.5923,-3.5908,-3.5893,-3.5893,-3.5878,-3.5893,-3.6244,-3.6603,-3.6507,-3.6043,-3.5848,-3.5669,-3.5609,-3.5579,-3.5519,-3.5489,-3.5489,-3.5489,-3.5489,-3.5489,-3.5489,-3.5489,-3.5489,-3.5489,-3.5489,-3.5489,-3.5489,-3.5429,-3.5415,-5.0582,-5.0399,-4.9771,-4.8732,-4.7529,-4.7186,-4.6739,-4.6239,-4.6083,-4.5993,-4.5865,-4.5773,-4.5938,-4.6342,-4.5553,-4.5204,-4.5168,-4.4709,-4.4363,-4.4181,-4.4087,-4.3818,-4.334,-4.3002,-4.2634,-4.2306,-4.1833,-4.1403,-4.0981,-4.0679,-4.0375,-4.0121,-4.0087,-4.0087,-4.0087,-4.0087,-4.0087,-4.0087,-4.0087,-4.0087,-4.0087,-4.0087,-4.0087,-4.0087,-4.0087,-4.0087,-4.0087,-4.0087,-4.0087,-4.0087,-3.9867,-3.9625,-3.9345,-3.886,-3.8303,-3.7653,-3.6815,-3.6196,-3.5752,-3.5604,-3.5489,-3.5489,-3.5489,-3.5489,-3.5489,-3.5489,-3.5489,-3.5489,-3.5489,-3.5489,-3.5489,-3.5489,-3.5489,-3.5489,-3.5489,-3.5489,-3.5489,-3.5489,-3.5489,-3.5489,-3.5489,-3.5489,-3.5489,-3.5489,-3.5489,-3.5489,-3.5489,-3.5489,-3.5489,-3.5489,-3.5489,-3.5534,-3.5759,-3.5878,-3.5893,-3.5714,-3.5519,-3.5489,-3.5489,-3.5489,-3.5489,-3.5489,-3.5489,-3.5489,-3.5489,-3.5489,-3.5489,-3.5489,-3.5489,-3.5429,-3.5444,-3.54,-3.4996,-3.4891,-3.4771,-5.047,-5.0061,-4.9108,-4.7971,-4.6835,-4.6499,-4.6121,-4.569,-4.5506,-4.5348,-4.5222,-4.4635,-4.469,-4.5094,-4.4617,-4.436,-4.4305,-4.3754,-4.3428,-4.3251,-4.316,-4.288,-4.2512,-4.2187,-4.1805,-4.1426,-4.1,-4.0648,-4.0387,-4.0171,-4.0087,-4.0087,-4.0087,-4.0087,-4.0087,-4.0087,-4.0087,-4.0087,-4.0087,-4.0087,-4.0087,-4.0087,-4.0087,-4.0087,-4.0087,-4.0087,-4.0087,-4.0087,-4.0087,-4.0037,-3.9781,-3.9451,-3.9115,-3.8583,-3.7902,-3.7118,-3.6321,-3.5831,-3.5638,-3.5554,-3.5489,-3.5489,-3.5489,-3.5489,-3.5489,-3.5489,-3.5489,-3.5489,-3.5489,-3.5489,-3.5489,-3.5489,-3.5489,-3.5489,-3.5489,-3.5489,-3.5489,-3.5489,-3.5489,-3.5489,-3.5489,-3.5489,-3.5489,-3.5489,-3.5489,-3.5489,-3.5489,-3.5489,-3.5489,-3.5489,-3.5489,-3.5489,-3.5504,-3.5519,-3.5489,-3.5504,-3.5489,-3.5489,-3.5489,-3.5489,-3.5489,-3.5489,-3.5489,-3.5489,-3.5489,-3.5325,-3.5149,-3.5115,-3.5105,-3.4981,-3.4951,-3.4816,-3.4307,-3.4218,-3.4023,-5.0182,-4.9238,-4.8155,-4.7017,-4.593,-4.5686,-4.5016,-4.4265,-4.3919,-4.3781,-4.3821,-4.366,-4.3589,-4.3681,-4.3644,-4.3552,-4.3552,-4.3534,-4.3463,-4.3376,-4.3251,-4.3068,-4.2765,-4.2468,-4.2019,-4.156,-4.1105,-4.0631,-4.0171,-4.0121,-4.0087,-4.0087,-4.0087,-4.0087,-4.0087,-4.0087,-4.0087,-4.0087,-4.0087,-4.0087,-4.0087,-4.0087,-4.0087,-4.0087,-4.0087,-4.0087,-4.0087,-4.0087,-4.0037,-3.9901,-3.9642,-3.9309,-3.8843,-3.823,-3.7417,-3.6445,-3.5928,-3.5608,-3.5509,-3.5415,-3.5385,-3.5429,-3.534,-3.5429,-3.5295,-3.531,-3.531,-3.5444,-3.5325,-3.5355,-3.537,-3.5429,-3.5489,-3.5489,-3.5489,-3.5489,-3.5489,-3.5489,-3.5489,-3.5489,-3.5489,-3.5489,-3.5489,-3.5489,-3.5489,-3.5489,-3.5489,-3.5489,-3.5489,-3.5489,-3.5489,-3.5489,-3.5489,-3.5489,-3.5474,-3.5489,-3.5489,-3.5489,-3.5489,-3.5444,-3.5474,-3.5489,-3.5459,-3.54,-3.52,-3.5011,-3.4685,-3.4448,-3.4237,-3.4117,-3.3933,-3.3739,-3.3604,-3.3559,-3.335,-4.8971,-4.7625,-4.7092,-4.6282,-4.5344,-4.5092,-4.4655,-4.4121,-4.3878,-4.3734,-4.3582,-4.3532,-4.3479,-4.3479,-4.3479,-4.3479,-4.3479,-4.3479,-4.3463,-4.3394,-4.3269,-4.3068,-4.2783,-4.2468,-4.2061,-4.1604,-4.1105,-4.0631,-4.0138,-4.0087,-4.0087,-4.0087,-4.0087,-4.0087,-4.0087,-4.0087,-4.0087,-4.0087,-4.0087,-4.0087,-4.0087,-4.0087,-4.0087,-4.0087,-4.0087,-4.0087,-4.0087,-4.0087,-4.0037,-3.9884,-3.9642,-3.9272,-3.8733,-3.7812,-3.6966,-3.6212,-3.5485,-3.5007,-3.485,-3.4442,-3.4218,-3.4218,-3.4218,-3.4262,-3.4218,-3.4218,-3.4218,-3.4247,-3.4233,-3.4218,-3.4397,-3.4966,-3.5489,-3.5489,-3.5489,-3.5474,-3.5489,-3.5489,-3.5489,-3.5489,-3.5489,-3.5489,-3.5489,-3.5489,-3.5489,-3.5489,-3.5489,-3.5459,-3.5489,-3.5489,-3.5415,-3.5474,-3.5489,-3.534,-3.4846,-3.5265,-3.5489,-3.5489,-3.5444,-3.5145,-3.5055,-3.4891,-3.4801,-3.4457,-3.4409,-3.4304,-3.3935,-3.3726,-3.3547,-3.3486,-3.332,-3.3051,-3.2961,-3.2886,-3.2587,-4.7876,-4.6781,-4.6317,-4.5729,-4.5052,-4.4815,-4.4532,-4.4258,-4.4005,-4.38,-4.3667,-4.3548,-4.3479,-4.3479,-4.3479,-4.3479,-4.3479,-4.3479,-4.3463,-4.3376,-4.3233,-4.3012,-4.2688,-4.2369,-4.1917,-4.1436,-4.0965,-4.0485,-4.0121,-4.0087,-4.0087,-4.0087,-4.0087,-4.0087,-4.0087,-4.0087,-4.0087,-4.0087,-4.0087,-4.0087,-4.0087,-4.0087,-3.9952,-3.9766,-3.9732,-3.9851,-4.0054,-4.0087,-3.98,-3.9428,-3.9118,-3.8525,-3.7623,-3.6589,-3.5905,-3.5431,-3.4772,-3.4282,-3.4175,-3.3739,-3.3514,-3.3499,-3.3514,-3.3499,-3.3499,-3.3499,-3.3499,-3.3499,-3.3499,-3.3499,-3.3664,-3.4322,-3.4921,-3.51,-3.5175,-3.528,-3.5459,-3.5489,-3.5489,-3.5489,-3.5489,-3.5489,-3.5489,-3.5489,-3.5385,-3.5235,-3.5175,-3.513,-3.4906,-3.4861,-3.4861,-3.4861,-3.4756,-3.4562,-3.4262,-3.4427,-3.4577,-3.4607,-3.4756,-3.4562,-3.4412,-3.4247,-3.4023,-3.3649,-3.344,-3.335,-3.32,-3.3006,-3.2931,-3.2931,-3.2691,-3.2377,-3.2287,-3.2198,-3.1945,-4.6896,-4.6609,-4.5783,-4.5335,-4.508,-4.484,-4.4605,-4.4354,-4.4055,-4.3851,-4.3771,-4.36,-4.3479,-4.3479,-4.3479,-4.3479,-4.3479,-4.3479,-4.3481,-4.3376,-4.3215,-4.2936,-4.2591,-4.2145,-4.1657,-4.1163,-4.0614,-4.0238,-4.0138,-4.0087,-4.0087,-4.0087,-4.0087,-4.0087,-4.0087,-4.0087,-4.0054,-3.9986,-3.9952,-3.9969,-4.0054,-3.9901,-3.958,-3.9056,-3.8988,-3.9276,-3.9918,-3.9851,-3.9311,-3.8452,-3.8058,-3.6934,-3.56,-3.4775,-3.4225,-3.4137,-3.3728,-3.3546,-3.3484,-3.341,-3.326,-3.326,-3.3395,-3.326,-3.323,-3.3275,-3.329,-3.326,-3.329,-3.335,-3.3335,-3.3425,-3.3769,-3.4337,-3.4472,-3.4726,-3.5175,-3.5415,-3.5444,-3.534,-3.528,-3.5429,-3.5444,-3.5265,-3.5011,-3.4607,-3.4472,-3.4322,-3.3918,-3.3844,-3.3634,-3.3634,-3.3814,-3.3858,-3.3664,-3.3499,-3.3484,-3.3514,-3.3694,-3.3724,-3.3634,-3.3484,-3.3335,-3.3021,-3.2901,-3.2796,-3.2526,-3.2317,-3.2063,-3.2003,-3.1735,-3.1795,-3.178,-3.175,-3.1544,-4.6511,-4.5898,-4.5534,-4.53,-4.5148,-4.4919,-4.4712,-4.444,-4.4116,-4.3897,-4.3753,-4.36,-4.3479,-4.3479,-4.3479,-4.3461,-4.3479,-4.3479,-4.3463,-4.3339,-4.316,-4.2899,-4.2552,-4.2103,-4.1542,-4.0918,-4.0485,-4.0238,-4.0121,-4.007,-4.0087,-4.0087,-4.0054,-4.0087,-4.002,-4.007,-3.9868,-3.9394,-3.9326,-3.9106,-3.865,-3.8599,-3.8481,-3.8278,-3.8261,-3.8331,-3.8451,-3.8435,-3.812,-3.7518,-3.7228,-3.6448,-3.525,-3.4546,-3.4149,-3.3939,-3.3231,-3.2811,-3.2766,-3.2407,-3.2198,-3.2168,-3.2168,-3.2138,-3.2138,-3.2183,-3.2183,-3.2183,-3.2138,-3.2138,-3.2153,-3.2153,-3.2647,-3.3679,-3.3799,-3.3888,-3.4173,-3.4203,-3.4128,-3.4128,-3.4128,-3.4113,-3.4143,-3.4173,-3.4128,-3.3888,-3.3799,-3.3664,-3.3514,-3.335,-3.3514,-3.3514,-3.3469,-3.3185,-3.2961,-3.2781,-3.2721,-3.2781,-3.2916,-3.2991,-3.2886,-3.2796,-3.2632,-3.2482,-3.2362,-3.2182,-3.194,-3.1717,-3.1569,-3.1467,-3.1571,-3.1571,-3.1511,-3.1424,-3.1292,-4.6068,-4.5551,-4.5438,-4.5321,-4.5233,-4.4991,-4.4764,-4.4468,-4.4128,-4.3762,-4.3398,-4.3159,-4.2855,-4.2653,-4.2616,-4.2616,-4.2598,-4.2598,-4.2548,-4.2556,-4.2941,-4.2824,-4.245,-4.1892,-4.1272,-4.0728,-4.0404,-4.0102,-3.9681,-3.9665,-3.9546,-3.9326,-3.9276,-3.9242,-3.9259,-3.9259,-3.9022,-3.8633,-3.8582,-3.8362,-3.8024,-3.7922,-3.777,-3.7533,-3.7483,-3.7253,-3.6875,-3.6776,-3.6701,-3.6372,-3.5782,-3.4883,-3.4129,-3.3545,-3.3241,-3.3048,-3.26,-3.2138,-3.2108,-3.1765,-3.1467,-3.1467,-3.1467,-3.1482,-3.1482,-3.1467,-3.1467,-3.1467,-3.1511,-3.1467,-3.1482,-3.1482,-3.1943,-3.2647,-3.2991,-3.323,-3.341,-3.3499,-3.3529,-3.3574,-3.3559,-3.3499,-3.3499,-3.3499,-3.338,-3.323,-3.314,-3.2961,-3.2871,-3.2721,-3.2796,-3.2796,-3.2617,-3.2377,-3.2213,-3.2078,-3.1973,-3.2078,-3.2228,-3.2243,-3.2198,-3.2153,-3.2048,-3.1958,-3.1809,-3.1839,-3.1614,-3.1584,-3.1467,-3.1467,-3.1467,-3.1467,-3.1424,-3.1351,-3.1234,-4.5605,-4.5586,-4.5457,-4.5361,-4.5275,-4.5014,-4.4688,-4.4355,-4.4028,-4.3336,-4.2622,-4.2349,-4.1882,-4.1295,-4.1368,-4.1387,-4.1134,-4.1313,-4.1269,-4.1391,-4.196,-4.233,-4.1795,-4.1112,-4.0568,-4.0192,-4.0048,-3.9661,-3.8971,-3.892,-3.8599,-3.8159,-3.8142,-3.7956,-3.8125,-3.7956,-3.8007,-3.7872,-3.7838,-3.7804,-3.7652,-3.7669,-3.7381,-3.6755,-3.6705,-3.6312,-3.5626,-3.5291,-3.5233,-3.5266,-3.3953,-3.3076,-3.2475,-3.2053,-3.1992,-3.1965,-3.1642,-3.1599,-3.1497,-3.1511,-3.1467,-3.1467,-3.1467,-3.1467,-3.1467,-3.1467,-3.1467,-3.1467,-3.1467,-3.1467,-3.1467,-3.1467,-3.1599,-3.1571,-3.2168,-3.2677,-3.3245,-3.329,-3.3155,-3.323,-3.3365,-3.335,-3.32,-3.3215,-3.2961,-3.2647,-3.2467,-3.2228,-3.19,-3.1869,-3.1586,-3.1704,-3.1928,-3.1898,-3.1839,-3.1824,-3.1734,-3.1779,-3.1869,-3.1824,-3.1779,-3.1691,-3.1646,-3.1541,-3.1467,-3.1467,-3.1467,-3.1467,-3.1467,-3.1409,-3.1409,-3.1424,-3.1292,-3.1176,-3.0984,-4.5586,-4.5586,-4.5457,-4.5361,-4.5256,-4.5014,-4.4386,-4.3624,-4.3282,-4.2576,-4.1773,-4.1489,-4.1295,-4.1079,-4.1075,-4.1097,-4.0987,-4.1038,-4.1013,-4.0862,-4.0944,-4.0715,-4.0135,-3.9678,-3.925,-3.8879,-3.8806,-3.8472,-3.821,-3.8193,-3.8058,-3.7939,-3.7787,-3.7855,-3.7922,-3.7821,-3.7584,-3.7161,-3.7077,-3.6789,-3.6349,-3.6299,-3.6146,-3.5994,-3.5886,-3.5664,-3.5105,-3.4448,-3.4099,-3.4124,-3.3356,-3.2695,-3.2398,-3.1981,-3.1784,-3.1727,-3.1597,-3.1467,-3.1467,-3.1467,-3.1467,-3.1467,-3.1467,-3.1467,-3.1467,-3.1467,-3.1467,-3.1467,-3.1467,-3.1467,-3.1467,-3.1467,-3.1467,-3.1497,-3.1749,-3.187,-3.2063,-3.2048,-3.2048,-3.2048,-3.2123,-3.2153,-3.2183,-3.2153,-3.2078,-3.1898,-3.1839,-3.1809,-3.1541,-3.1467,-3.1467,-3.1467,-3.1644,-3.1541,-3.1497,-3.1497,-3.1497,-3.1511,-3.1556,-3.1586,-3.1556,-3.1541,-3.1526,-3.1467,-3.1467,-3.1467,-3.1467,-3.1409,-3.1409,-3.1409,-3.1307,-3.1249,-3.0999,-3.0821,-3.0568,-4.5586,-4.5566,-4.5093,-4.4844,-4.4664,-4.4121,-4.3404,-4.2787,-4.2454,-4.1753,-4.0923,-4.0707,-4.0446,-4.0102,-4.0084,-4.0084,-4.0102,-4.0102,-3.9969,-3.9753,-3.9426,-3.9289,-3.9171,-3.8964,-3.8594,-3.8213,-3.8057,-3.7827,-3.753,-3.7432,-3.7263,-3.6941,-3.6941,-3.6958,-3.6874,-3.6924,-3.6772,-3.6366,-3.6282,-3.6045,-3.5656,-3.5639,-3.5639,-3.5594,-3.552,-3.5354,-3.4804,-3.4101,-3.3642,-3.3398,-3.2873,-3.2437,-3.2231,-3.1883,-3.1655,-3.167,-3.1539,-3.1467,-3.1467,-3.1467,-3.1467,-3.1467,-3.1467,-3.1467,-3.1467,-3.1467,-3.1467,-3.1467,-3.1467,-3.1467,-3.1467,-3.1467,-3.1467,-3.1482,-3.1467,-3.1467,-3.1467,-3.1526,-3.1482,-3.1467,-3.1467,-3.1467,-3.1467,-3.1467,-3.1467,-3.1482,-3.1526,-3.1511,-3.1467,-3.1467,-3.1467,-3.1467,-3.1467,-3.1467,-3.1467,-3.1467,-3.1467,-3.1467,-3.1467,-3.1467,-3.1467,-3.1467,-3.1467,-3.1467,-3.1467,-3.1467,-3.1467,-3.1409,-3.1351,-3.1307,-3.1205,-3.0955,-3.0762,-3.0447,-3.0129,-4.5336,-4.5259,-4.444,-4.4001,-4.3749,-4.2867,-4.2351,-4.1912,-4.1689,-4.0996,-4.0141,-3.989,-3.9522,-3.8707,-3.9001,-3.8781,-3.8799,-3.8964,-3.8729,-3.8522,-3.8221,-3.8229,-3.879,-3.8442,-3.8094,-3.7752,-3.7882,-3.7352,-3.6835,-3.6654,-3.6332,-3.6011,-3.5791,-3.569,-3.591,-3.5774,-3.5656,-3.574,-3.5757,-3.574,-3.5639,-3.5639,-3.5577,-3.5549,-3.5321,-3.5011,-3.4448,-3.3899,-3.345,-3.3043,-3.2523,-3.2191,-3.1981,-3.1655,-3.1539,-3.1524,-3.1524,-3.1467,-3.1467,-3.1467,-3.1467,-3.1467,-3.1467,-3.1467,-3.1467,-3.1467,-3.1467,-3.1467,-3.1467,-3.1467,-3.1467,-3.1467,-3.1467,-3.1467,-3.1467,-3.1467,-3.1467,-3.1467,-3.1467,-3.1467,-3.1467,-3.1467,-3.1467,-3.1467,-3.1467,-3.1467,-3.1467,-3.1467,-3.1467,-3.1467,-3.1467,-3.1467,-3.1467,-3.1467,-3.1467,-3.1467,-3.1467,-3.1467,-3.1467,-3.1467,-3.1467,-3.1467,-3.1467,-3.1467,-3.1467,-3.1467,-3.1409,-3.1351,-3.1292,-3.1117,-3.094,-3.0762,-3.0507,-3.019,-2.987,-4.3624,-4.3624,-4.3344,-4.3176,-4.3005,-4.2709,-4.2033,-4.1186,-4.0929,-4.0235,-3.9404,-3.9128,-3.8946,-3.8707,-3.8707,-3.8707,-3.8707,-3.8676,-3.8564,-3.8289,-3.8003,-3.7719,-3.7729,-3.7359,-3.6887,-3.66,-3.6372,-3.6135,-3.5926,-3.596,-3.5808,-3.569,-3.5639,-3.5639,-3.5639,-3.5639,-3.5639,-3.5639,-3.5639,-3.5622,-3.5577,-3.5594,-3.5549,-3.5458,-3.5041,-3.4497,-3.405,-3.3503,-3.3081,-3.2726,-3.2398,-3.2038,-3.1883,-3.1655,-3.1524,-3.1467,-3.1467,-3.1467,-3.1467,-3.1467,-3.1467,-3.1467,-3.1467,-3.1467,-3.1467,-3.1467,-3.1467,-3.1467,-3.1467,-3.1467,-3.1467,-3.1467,-3.1467,-3.1467,-3.1467,-3.1467,-3.1467,-3.1467,-3.1467,-3.1467,-3.1467,-3.1467,-3.1467,-3.1467,-3.1467,-3.1467,-3.1467,-3.1467,-3.1467,-3.1467,-3.1467,-3.1467,-3.1467,-3.1467,-3.1467,-3.1467,-3.1467,-3.1467,-3.1467,-3.1467,-3.1467,-3.1467,-3.1467,-3.1467,-3.1467,-3.1467,-3.1409,-3.1249,-3.1132,-3.0881,-3.0628,-3.0387,-3.0144,-2.9822,-2.9512,-4.3085,-4.3047,-4.2593,-4.2331,-4.2145,-4.1663,-4.1035,-4.0429,-4.0146,-3.9639,-3.9081,-3.8892,-3.881,-3.8707,-3.8707,-3.8707,-3.8689,-3.8609,-3.8483,-3.8256,-3.8003,-3.7685,-3.7241,-3.6811,-3.6402,-3.6105,-3.5939,-3.5728,-3.5622,-3.5639,-3.5656,-3.5639,-3.5639,-3.5639,-3.5639,-3.5639,-3.5639,-3.5639,-3.5622,-3.5577,-3.5549,-3.5566,-3.5367,-3.5135,-3.4643,-3.4201,-3.3761,-3.3208,-3.278,-3.2453,-3.2135,-3.194,-3.1784,-3.1597,-3.1524,-3.1467,-3.1467,-3.1467,-3.1467,-3.1467,-3.1467,-3.1467,-3.1467,-3.1467,-3.1467,-3.1467,-3.1467,-3.1467,-3.1467,-3.1467,-3.1467,-3.1467,-3.1467,-3.1467,-3.1467,-3.1467,-3.1467,-3.1467,-3.1467,-3.1467,-3.1467,-3.1467,-3.1467,-3.1467,-3.1467,-3.1467,-3.1467,-3.1467,-3.1467,-3.1467,-3.1467,-3.1467,-3.1467,-3.1467,-3.1467,-3.1467,-3.1467,-3.1467,-3.1467,-3.1467,-3.1467,-3.1467,-3.1467,-3.1467,-3.1467,-3.1409,-3.1351,-3.119,-3.0955,-3.0702,-3.0462,-3.0036,-2.9713,-2.9387,-2.9135,-4.272,-4.2643,-4.1841,-4.1485,-4.1283,-4.0539,-4.007,-3.9754,-3.9502,-3.932,-3.9036,-3.8921,-3.8822,-3.8719,-3.8707,-3.8707,-3.8658,-3.8559,-3.8433,-3.8256,-3.8038,-3.7685,-3.7241,-3.6834,-3.6426,-3.6208,-3.5905,-3.5728,-3.5622,-3.5639,-3.5639,-3.5639,-3.5639,-3.5639,-3.5639,-3.5639,-3.5639,-3.5639,-3.5622,-3.5594,-3.552,-3.5492,-3.5182,-3.4691,-3.43,-3.3899,-3.3435,-3.2996,-3.2547,-3.2206,-3.194,-3.1784,-3.1727,-3.1597,-3.1467,-3.1467,-3.1467,-3.1467,-3.1467,-3.1467,-3.1467,-3.1467,-3.1467,-3.1467,-3.1467,-3.1467,-3.1467,-3.1467,-3.1467,-3.1467,-3.1467,-3.1467,-3.1467,-3.1467,-3.1467,-3.1467,-3.1467,-3.1467,-3.1467,-3.1467,-3.1467,-3.1467,-3.1467,-3.1467,-3.1467,-3.1467,-3.1467,-3.1467,-3.1467,-3.1467,-3.1467,-3.1467,-3.1467,-3.1467,-3.1467,-3.1409,-3.1409,-3.1409,-3.1467,-3.1409,-3.1409,-3.1366,-3.1366,-3.1424,-3.1424,-3.1351,-3.1176,-3.1014,-3.0776,-3.0522,-3.0144,-2.9713,-2.9324,-2.9008,-2.8702,-4.0931,-4.0893,-4.0777,-4.0655,-4.0571,-4.031,-4.0059,-3.9848,-3.9599,-3.9331,-3.9101,-3.895,-3.8822,-3.8719,-3.8707,-3.8707,-3.8658,-3.8559,-3.8433,-3.8289,-3.8038,-3.7703,-3.7317,-3.6873,-3.6485,-3.6208,-3.5966,-3.5773,-3.5622,-3.5639,-3.5639,-3.5639,-3.5639,-3.5639,-3.5639,-3.5639,-3.5639,-3.5639,-3.5622,-3.5549,-3.5475,-3.5291,-3.4947,-3.4399,-3.3949,-3.3503,-3.3118,-3.2726,-3.2342,-3.2038,-3.1883,-3.1712,-3.1597,-3.1524,-3.1467,-3.1467,-3.1467,-3.1467,-3.1467,-3.1467,-3.1467,-3.1467,-3.1467,-3.1467,-3.1467,-3.1467,-3.1467,-3.1467,-3.1467,-3.1467,-3.1467,-3.1467,-3.1482,-3.1482,-3.1467,-3.1467,-3.1467,-3.1467,-3.1467,-3.1467,-3.1467,-3.1467,-3.1467,-3.1467,-3.1467,-3.1467,-3.1467,-3.1467,-3.1467,-3.1467,-3.1467,-3.1467,-3.1467,-3.1467,-3.1467,-3.1409,-3.1351,-3.1292,-3.1307,-3.119,-3.119,-3.1205,-3.1205,-3.1176,-3.1176,-3.1117,-3.094,-3.0762,-3.0462,-3.0097,-2.9713,-2.9324,-2.8944,-2.8573,-2.8105,-4.0489,-4.0489,-4.0489,-4.0476,-4.0432,-4.0307,-4.0158,-3.9975,-3.9717,-3.9433,-3.9219,-3.9017,-3.8881,-3.878,-3.8707,-3.8707,-3.8658,-3.864,-3.8515,-3.8336,-3.8104,-3.7792,-3.7429,-3.6992,-3.6609,-3.6276,-3.6019,-3.5773,-3.5622,-3.5639,-3.5639,-3.5639,-3.5639,-3.5639,-3.5639,-3.5639,-3.5639,-3.5639,-3.5577,-3.5532,-3.5337,-3.5041,-3.4497,-3.405,-3.3591,-3.3171,-3.2726,-3.2453,-3.2191,-3.194,-3.1727,-3.1612,-3.1539,-3.1467,-3.1467,-3.1467,-3.1467,-3.1467,-3.1467,-3.1467,-3.1467,-3.1467,-3.1467,-3.1467,-3.1467,-3.1467,-3.1467,-3.1467,-3.1467,-3.1467,-3.1467,-3.1409,-3.1409,-3.1409,-3.1351,-3.1307,-3.1307,-3.1351,-3.1351,-3.1409,-3.1467,-3.1467,-3.1467,-3.1467,-3.1467,-3.1467,-3.1467,-3.1467,-3.1467,-3.1467,-3.1467,-3.1467,-3.1467,-3.1467,-3.1409,-3.1292,-3.1176,-3.1176,-3.1073,-3.0955,-3.0895,-3.0881,-3.0762,-3.0687,-3.0747,-3.0747,-3.0628,-3.0387,-3.0021,-2.9651,-2.9261,-2.8931,-2.8573,-2.8183,-2.7723,-4.0489,-4.0489,-4.0489,-4.0492,-4.0482,-4.0362,-4.0234,-4.0077,-3.9807,-3.9532,-3.9298,-3.9092,-3.8939,-3.8822,-3.8719,-3.8707,-3.8707,-3.8658,-3.8528,-3.8336,-3.8138,-3.7845,-3.7485,-3.7108,-3.6673,-3.6276,-3.6019,-3.5861,-3.5667,-3.5639,-3.5639,-3.5639,-3.5639,-3.5639,-3.5639,-3.5639,-3.5639,-3.5622,-3.5577,-3.5458,-3.5088,-3.4594,-3.405,-3.3642,-3.3346,-3.2904,-3.2453,-3.2191,-3.1981,-3.1769,-3.1597,-3.1524,-3.1467,-3.1467,-3.1467,-3.1467,-3.1467,-3.1467,-3.1467,-3.1467,-3.1467,-3.1467,-3.1467,-3.1467,-3.1467,-3.1467,-3.1467,-3.1467,-3.1467,-3.1467,-3.1409,-3.1351,-3.1292,-3.1234,-3.119,-3.1087,-3.1132,-3.119,-3.1249,-3.1307,-3.1366,-3.1424,-3.1409,-3.1467,-3.1467,-3.1467,-3.1467,-3.1467,-3.1467,-3.1467,-3.1467,-3.1467,-3.1467,-3.1482,-3.1351,-3.1161,-3.1043,-3.0984,-3.0762,-3.0597,-3.0582,-3.0493,-3.0372,-3.019,-3.0129,-3.0068,-3.0068,-3.0007,-2.9588,-2.9198,-2.8867,-2.8481,-2.8118,-2.7723,-2.7323,-4.0489,-4.0489,-4.0489,-4.0492,-4.0466,-4.0342,-4.0215,-4.0077,-3.9826,-3.9532,-3.9298,-3.9073,-3.8921,-3.8792,-3.8719,-3.8707,-3.8658,-3.8609,-3.8496,-3.8303,-3.8088,-3.7757,-3.7317,-3.6873,-3.655,-3.6233,-3.5993,-3.5773,-3.5622,-3.5639,-3.5639,-3.5639,-3.5639,-3.5639,-3.5639,-3.5639,-3.5639,-3.5577,-3.552,-3.5291,-3.4787,-3.4349,-3.3915,-3.3487,-3.2996,-3.2547,-3.2247,-3.1996,-3.1784,-3.1582,-3.1539,-3.1467,-3.1467,-3.1467,-3.1467,-3.1467,-3.1467,-3.1467,-3.1467,-3.1467,-3.1467,-3.1467,-3.1467,-3.1467,-3.1467,-3.1467,-3.1467,-3.1482,-3.1424,-3.1292,-3.1292,-3.119,-3.1132,-3.1073,-3.1014,-3.0969,-3.1014,-3.0881,-3.094,-3.1014,-3.1058,-3.1234,-3.1351,-3.1409,-3.1467,-3.1467,-3.1467,-3.1467,-3.1467,-3.1409,-3.1409,-3.1351,-3.1292,-3.1234,-3.1117,-3.0925,-3.0792,-3.0673,-3.0447,-3.0233,-3.0083,-2.9946,-2.9761,-2.9574,-2.9512,-2.9449,-2.9449,-2.9261,-2.9085,-2.8753,-2.8417,-2.8039,-2.7656,-2.7255,-2.6918,-4.0539,-4.0489,-4.0489,-4.0508,-4.0495,-4.0394,-4.0271,-4.0119,-3.9914,-3.9647,-3.9383,-3.9137,-3.895,-3.878,-3.8707,-3.8707,-3.8707,-3.8609,-3.8496,-3.8336,-3.8122,-3.7828,-3.7466,-3.7048,-3.665,-3.6276,-3.6036,-3.5817,-3.5684,-3.5639,-3.5639,-3.5639,-3.5639,-3.5639,-3.5639,-3.5639,-3.5594,-3.5458,-3.5274,-3.5011,-3.4562,-3.4151,-3.3694,-3.3309,-3.278,-3.2413,-3.2094,-3.1898,-3.1727,-3.1539,-3.1467,-3.1467,-3.1467,-3.1467,-3.1467,-3.1467,-3.1467,-3.1467,-3.1467,-3.1467,-3.1467,-3.1467,-3.1467,-3.1467,-3.1467,-3.1467,-3.1467,-3.1409,-3.1351,-3.1234,-3.1043,-3.0881,-3.0747,-3.0702,-3.0657,-3.0597,-3.0597,-3.0628,-3.0628,-3.0702,-3.0762,-3.0881,-3.0984,-3.1161,-3.1234,-3.1351,-3.1409,-3.1409,-3.1366,-3.1307,-3.1249,-3.1249,-3.1132,-3.0999,-3.0807,-3.0613,-3.0372,-3.0251,-3.0021,-2.9789,-2.9526,-2.9338,-2.9198,-2.8944,-2.8753,-2.8688,-2.8766,-2.8702,-2.856,-2.83,-2.7973,-2.7656,-2.7323,-2.7066,-2.6782,-4.0573,-4.0523,-4.0504,-4.0489,-4.0489,-4.043,-4.0326,-4.0177,-3.9977,-3.9758,-3.9477,-3.9183,-3.8892,-3.875,-3.8707,-3.8707,-3.8707,-3.8658,-3.8546,-3.8368,-3.8138,-3.7863,-3.7429,-3.7048,-3.665,-3.6276,-3.6019,-3.58,-3.5684,-3.5639,-3.5639,-3.5639,-3.5639,-3.5639,-3.5639,-3.5594,-3.5549,-3.5429,-3.5135,-3.4804,-3.4448,-3.3949,-3.3555,-3.3081,-3.2633,-3.2262,-3.1981,-3.1769,-3.1612,-3.1539,-3.1467,-3.1467,-3.1467,-3.1467,-3.1467,-3.1467,-3.1467,-3.1467,-3.1467,-3.1467,-3.1467,-3.1467,-3.1467,-3.1467,-3.1409,-3.1467,-3.1409,-3.1234,-3.1117,-3.0999,-3.0762,-3.0582,-3.0326,-3.0205,-3.0097,-3.005,-2.9988,-3.0083,-3.0129,-3.0144,-3.0205,-3.0266,-3.0447,-3.0747,-3.0984,-3.1117,-3.1234,-3.1351,-3.1234,-3.1073,-3.1014,-3.0999,-3.0821,-3.0628,-3.0433,-3.0251,-3.0068,-2.9761,-2.9526,-2.9275,-2.9008,-2.8817,-2.8624,-2.8365,-2.8118,-2.7987,-2.8052,-2.8039,-2.8039,-2.7776,-2.759,-2.739,-2.7121,-2.6863,-2.6658,-4.0588,-4.0588,-4.0523,-4.0489,-4.0489,-4.043,-4.0307,-4.0177,-3.9977,-3.9735,-3.9427,-3.9101,-3.8851,-3.8738,-3.8707,-3.8707,-3.8707,-3.8559,-3.8433,-3.8289,-3.8038,-3.7721,-3.7334,-3.6913,-3.6509,-3.6208,-3.5993,-3.5756,-3.5622,-3.5639,-3.5639,-3.5639,-3.5639,-3.5639,-3.5594,-3.5594,-3.5503,-3.5337,-3.5088,-3.4739,-3.4349,-3.3899,-3.345,-3.3027,-3.2539,-3.2135,-3.1981,-3.1712,-3.1539,-3.1467,-3.1467,-3.1467,-3.1467,-3.1467,-3.1467,-3.1467,-3.1467,-3.1467,-3.1467,-3.1467,-3.1467,-3.1467,-3.1467,-3.1467,-3.1351,-3.1351,-3.1234,-3.1117,-3.0866,-3.0687,-3.0447,-3.019,-2.9946,-2.9699,-2.9588,-2.954,-2.9477,-2.954,-2.9588,-2.9588,-2.9651,-2.9651,-2.9775,-3.0068,-3.0493,-3.0687,-3.0866,-3.0984,-3.0925,-3.0807,-3.0747,-3.0628,-3.0447,-3.0251,-3.0068,-2.9822,-2.9449,-2.9198,-2.8958,-2.8702,-2.843,-2.83,-2.8183,-2.7908,-2.7656,-2.7469,-2.7335,-2.739,-2.7377,-2.7255,-2.7134,-2.6985,-2.6918,-2.6726,-2.6589,-4.0651,-4.0588,-4.0523,-4.0489,-4.0489,-4.043,-4.0307,-4.0158,-3.9996,-3.9665,-3.9245,-3.9007,-3.8822,-3.8738,-3.8707,-3.8707,-3.8658,-3.8559,-3.8433,-3.8256,-3.8003,-3.7685,-3.7241,-3.6834,-3.6468,-3.6165,-3.5922,-3.5728,-3.5639,-3.5639,-3.5639,-3.5639,-3.5639,-3.5639,-3.5594,-3.5503,-3.5383,-3.5228,-3.4947,-3.4546,-3.4201,-3.371,-3.3224,-3.278,-3.2373,-3.2053,-3.1841,-3.167,-3.1539,-3.1467,-3.1467,-3.1467,-3.1467,-3.1467,-3.1467,-3.1467,-3.1467,-3.1467,-3.1467,-3.1467,-3.1467,-3.1467,-3.1482,-3.1424,-3.1292,-3.1292,-3.1117,-3.0881,-3.0628,-3.0447,-2.996,-2.9699,-2.9435,-2.9247,-2.9071,-2.9022,-2.9035,-2.9035,-2.8972,-2.8958,-2.8958,-2.8972,-2.9149,-2.9275,-2.9761,-3.0251,-3.0433,-3.0568,-3.0507,-3.0387,-3.0312,-3.0129,-2.9946,-2.9699,-2.9449,-2.9135,-2.883,-2.8573,-2.8379,-2.8183,-2.7973,-2.7855,-2.7656,-2.7456,-2.7255,-2.7121,-2.6985,-2.685,-2.6863,-2.693,-2.6863,-2.6714,-2.6658,-2.6533,-2.6533,-4.0673,-4.0603,-4.0573,-4.0504,-4.0508,-4.043,-4.0344,-4.0196,-4.0019,-3.9665,-3.9137,-3.9007,-3.8851,-3.875,-3.8689,-3.8707,-3.8658,-3.8546,-3.8368,-3.8171,-3.7916,-3.7594,-3.7164,-3.6771,-3.6343,-3.6122,-3.5905,-3.5684,-3.5639,-3.5639,-3.5639,-3.5639,-3.5639,-3.5639,-3.5577,-3.5458,-3.5308,-3.5105,-3.4756,-3.43,-3.4,-3.3419,-3.3011,-3.2547,-3.215,-3.1955,-3.1784,-3.1597,-3.1524,-3.1467,-3.1467,-3.1467,-3.1467,-3.1467,-3.1467,-3.1467,-3.1467,-3.1467,-3.1467,-3.1467,-3.1467,-3.1467,-3.1409,-3.1351,-3.1307,-3.1176,-3.0821,-3.0536,-3.0341,-3.0097,-2.9477,-2.9212,-2.8994,-2.8739,-2.8638,-2.8522,-2.8444,-2.8379,-2.8327,-2.8262,-2.8262,-2.8327,-2.8379,-2.856,-2.9212,-2.9699,-2.996,-3.0083,-3.0036,-2.9898,-2.9713,-2.9512,-2.9324,-2.9071,-2.883,-2.8573,-2.8314,-2.7987,-2.7802,-2.7669,-2.7536,-2.7403,-2.7268,-2.7121,-2.6918,-2.6701,-2.6645,-2.6658,-2.6726,-2.6807,-2.6658,-2.6577,-2.6589,-2.6521,-2.6521,-4.0655,-4.0588,-4.0583,-4.0558,-4.0489,-4.0449,-4.0362,-4.0252,-4.0039,-3.9712,-3.9272,-3.9092,-3.891,-3.8792,-3.8719,-3.8707,-3.8676,-3.8515,-3.8318,-3.8086,-3.7828,-3.7429,-3.7009,-3.6591,-3.6276,-3.6019,-3.5756,-3.5639,-3.5639,-3.5639,-3.5639,-3.5639,-3.5639,-3.5594,-3.5577,-3.552,-3.5291,-3.493,-3.4643,-3.4201,-3.3729,-3.314,-3.2711,-3.2398,-3.2038,-3.1841,-3.1727,-3.1597,-3.1539,-3.1467,-3.1467,-3.1467,-3.1467,-3.1467,-3.1467,-3.1467,-3.1467,-3.1467,-3.1467,-3.1467,-3.1467,-3.1467,-3.1409,-3.1307,-3.1073,-3.0836,-3.0522,-3.0219,-2.9913,-2.954,-2.9162,-2.8844,-2.8509,-2.8314,-2.8131,-2.7934,-2.7868,-2.7789,-2.7736,-2.7736,-2.7603,-2.7603,-2.7656,-2.7921,-2.8573,-2.9085,-2.9477,-2.9602,-2.954,-2.9338,-2.9071,-2.8881,-2.8688,-2.843,-2.8183,-2.7987,-2.7723,-2.7403,-2.7281,-2.7281,-2.7134,-2.7066,-2.693,-2.6794,-2.6658,-2.6577,-2.6508,-2.6521,-2.6589,-2.6671,-2.6589,-2.6521,-2.6521,-2.6521,-2.6521,-4.0745,-4.0673,-4.0636,-4.0573,-4.0489,-4.0482,-4.0396,-4.0252,-3.9937,-3.9604,-3.9298,-3.9092,-3.8921,-3.8822,-3.875,-3.8707,-3.8658,-3.8515,-3.8285,-3.8068,-3.7757,-3.7392,-3.697,-3.6568,-3.6191,-3.5975,-3.5756,-3.5639,-3.5639,-3.5639,-3.5639,-3.5639,-3.5594,-3.5594,-3.5475,-3.5337,-3.5041,-3.4739,-3.4349,-3.3899,-3.3539,-3.298,-3.2547,-3.2231,-3.194,-3.1727,-3.167,-3.1539,-3.1539,-3.1467,-3.1467,-3.1467,-3.1467,-3.1467,-3.1467,-3.1467,-3.1467,-3.1467,-3.1467,-3.1467,-3.1467,-3.1467,-3.1366,-3.1249,-3.1073,-3.0762,-3.0387,-2.996,-2.9588,-2.9212,-2.883,-2.8314,-2.7973,-2.7723,-2.7536,-2.7403,-2.7268,-2.7281,-2.7281,-2.7214,-2.7146,-2.7268,-2.7335,-2.739,-2.7908,-2.8249,-2.8638,-2.8894,-2.8894,-2.8624,-2.8365,-2.8235,-2.8039,-2.7855,-2.759,-2.7523,-2.7403,-2.7146,-2.7079,-2.7079,-2.6943,-2.6807,-2.6726,-2.6714,-2.6589,-2.6521,-2.6521,-2.6521,-2.6521,-2.6521,-2.6521,-2.6521,-2.6521,-2.6521,-2.6521,-4.0781,-4.07,-4.0631,-4.0569,-4.0508,-4.0499,-4.0415,-4.0215,-3.9895,-3.9623,-3.9357,-3.911,-3.895,-3.8851,-3.875,-3.8707,-3.8658,-3.8496,-3.8285,-3.8068,-3.7757,-3.7392,-3.697,-3.655,-3.6216,-3.5958,-3.5756,-3.5639,-3.5639,-3.5639,-3.5594,-3.5549,-3.5566,-3.5412,-3.5291,-3.5088,-3.4947,-3.4546,-3.4101,-3.371,-3.3277,-3.278,-3.2342,-3.2135,-3.1883,-3.1597,-3.1524,-3.1467,-3.1467,-3.1467,-3.1467,-3.1467,-3.1467,-3.1467,-3.1467,-3.1467,-3.1467,-3.1467,-3.1467,-3.1467,-3.1467,-3.1467,-3.1366,-3.1132,-3.0881,-3.0507,-3.0083,-2.9637,-2.9261,-2.8817,-2.8379,-2.7842,-2.7656,-2.7403,-2.7201,-2.7079,-2.693,-2.6943,-2.6943,-2.6875,-2.6875,-2.693,-2.7066,-2.7066,-2.7255,-2.7536,-2.7736,-2.8,-2.8249,-2.7987,-2.7776,-2.7709,-2.759,-2.739,-2.7201,-2.7134,-2.6998,-2.6875,-2.6888,-2.6875,-2.6807,-2.6671,-2.6658,-2.6645,-2.6521,-2.6521,-2.6521,-2.6521,-2.6521,-2.6521,-2.6521,-2.6521,-2.6521,-2.6521,-2.6521,-4.0823,-4.07,-4.0621,-4.0564,-4.0523,-4.0499,-4.04,-4.0196,-3.9996,-3.9758,-3.9502,-3.9219,-3.9017,-3.891,-3.878,-3.8689,-3.8658,-3.8496,-3.8285,-3.8034,-3.7739,-3.7392,-3.697,-3.6509,-3.6216,-3.5958,-3.5756,-3.5639,-3.5639,-3.5594,-3.5549,-3.5475,-3.5492,-3.5245,-3.5088,-3.4851,-3.4643,-3.425,-3.3797,-3.3398,-3.2958,-3.2539,-3.2206,-3.194,-3.1712,-3.1597,-3.1467,-3.1467,-3.1467,-3.1467,-3.1467,-3.1467,-3.1467,-3.1467,-3.1467,-3.1467,-3.1467,-3.1467,-3.1467,-3.1467,-3.1424,-3.1424,-3.1249,-3.0955,-3.0642,-3.0251,-2.9761,-2.9338,-2.8894,-2.8365,-2.7908,-2.7656,-2.7403,-2.7201,-2.7079,-2.6875,-2.6726,-2.6726,-2.6671,-2.6602,-2.6589,-2.6658,-2.6726,-2.6794,-2.6863,-2.6998,-2.7201,-2.7335,-2.7523,-2.7523,-2.7323,-2.739,-2.7188,-2.693,-2.6863,-2.6794,-2.6807,-2.6671,-2.6602,-2.6602,-2.6533,-2.6533,-2.6521,-2.6521,-2.6521,-2.6521,-2.6521,-2.6521,-2.6521,-2.6521,-2.6521,-2.6521,-2.6521,-2.6521,-2.6521,-4.0888,-4.0761,-4.0707,-4.0626,-4.0573,-4.0515,-4.0435,-4.0252,-4.0099,-3.9911,-3.9647,-3.9357,-3.911,-3.8968,-3.884,-3.875,-3.8658,-3.8483,-3.8285,-3.8034,-3.7739,-3.7374,-3.6952,-3.655,-3.6216,-3.5958,-3.5756,-3.5639,-3.5594,-3.5549,-3.552,-3.5492,-3.5308,-3.5041,-3.4804,-3.4497,-3.4201,-3.3899,-3.3487,-3.3065,-3.2687,-3.2262,-3.1996,-3.1841,-3.1655,-3.1539,-3.1467,-3.1467,-3.1467,-3.1467,-3.1467,-3.1467,-3.1467,-3.1467,-3.1467,-3.1467,-3.1467,-3.1467,-3.1467,-3.1467,-3.1409,-3.1307,-3.1132,-3.0999,-3.0628,-3.0129,-2.9574,-2.9085,-2.8638,-2.8105,-2.7656,-2.7403,-2.7201,-2.6998,-2.6863,-2.6726,-2.6589,-2.6589,-2.6521,-2.6521,-2.6521,-2.6521,-2.6589,-2.6589,-2.6658,-2.6658,-2.6726,-2.6863,-2.693,-2.6985,-2.6985,-2.7053,-2.6918,-2.6726,-2.6658,-2.6589,-2.6602,-2.6533,-2.6521,-2.6521,-2.6521,-2.6521,-2.6521,-2.6521,-2.6521,-2.6521,-2.6521,-2.6521,-2.6521,-2.6521,-2.6521,-2.6521,-2.6452,-2.6452,-2.6383,-4.0926,-4.0796,-4.072,-4.0646,-4.0573,-4.0531,-4.0447,-4.0307,-4.0157,-3.9954,-3.9712,-3.9408,-3.9192,-3.9007,-3.8851,-3.878,-3.8707,-3.8515,-3.8285,-3.8068,-3.7739,-3.7392,-3.6952,-3.655,-3.6233,-3.5975,-3.5756,-3.5639,-3.5594,-3.552,-3.5508,-3.5383,-3.5135,-3.4851,-3.4546,-3.4134,-3.3797,-3.3435,-3.3134,-3.2742,-3.2413,-3.2109,-3.1898,-3.1784,-3.1612,-3.1539,-3.1467,-3.1467,-3.1467,-3.1467,-3.1467,-3.1467,-3.1467,-3.1467,-3.1467,-3.1467,-3.1467,-3.1467,-3.1467,-3.1467,-3.1351,-3.1249,-3.1132,-3.0881,-3.0507,-3.0021,-2.9463,-2.8908,-2.843,-2.7894,-2.7523,-2.7134,-2.6918,-2.6714,-2.6577,-2.6521,-2.6521,-2.6521,-2.6521,-2.6521,-2.6521,-2.6521,-2.6521,-2.6521,-2.6521,-2.6521,-2.6521,-2.6602,-2.6658,-2.6726,-2.6714,-2.6782,-2.6714,-2.6521,-2.6521,-2.6521,-2.6521,-2.6533,-2.6521,-2.6521,-2.6521,-2.6521,-2.6521,-2.6521,-2.6521,-2.6521,-2.6521,-2.6521,-2.6521,-2.6452,-2.6396,-2.6327,-2.6327,-2.6327,-2.6258,-4.0935,-4.0798,-4.0674,-4.0453,-4.0389,-4.0239,-4.0153,-4.0187,-3.9853,-3.9842,-3.966,-3.9452,-3.9219,-3.9036,-3.8892,-3.878,-3.8689,-3.8496,-3.8318,-3.8101,-3.7828,-3.7429,-3.7048,-3.6591,-3.6318,-3.6019,-3.58,-3.5622,-3.5577,-3.552,-3.54,-3.5291,-3.4994,-3.4643,-3.43,-3.3899,-3.3487,-3.315,-3.2796,-3.2453,-3.2302,-3.2053,-3.1799,-3.1727,-3.1597,-3.1467,-3.1467,-3.1467,-3.1467,-3.1467,-3.1467,-3.1467,-3.1467,-3.1467,-3.1467,-3.1467,-3.1467,-3.1467,-3.1467,-3.1467,-3.1409,-3.1307,-3.119,-3.0821,-3.0387,-2.9898,-2.9415,-2.878,-2.8314,-2.7789,-2.7335,-2.7066,-2.6863,-2.6645,-2.6589,-2.6521,-2.6521,-2.6521,-2.6521,-2.6521,-2.6521,-2.6521,-2.6521,-2.6521,-2.6521,-2.6521,-2.6521,-2.6533,-2.6533,-2.6521,-2.6589,-2.6645,-2.6589,-2.6521,-2.6521,-2.6521,-2.6521,-2.6521,-2.6521,-2.6521,-2.6521,-2.6521,-2.6521,-2.6521,-2.6521,-2.6521,-2.6521,-2.6452,-2.6465,-2.6396,-2.6339,-2.6201,-2.6131,-2.605,-2.598,-4.1025,-4.0876,-4.0072,-3.9662,-3.9495,-3.8869,-3.8597,-3.8482,-3.8395,-3.8918,-3.9656,-3.9537,-3.9231,-3.8869,-3.882,-3.8711,-3.8597,-3.8491,-3.8401,-3.8204,-3.7916,-3.7558,-3.7164,-3.6713,-3.6385,-3.6165,-3.5905,-3.5667,-3.5577,-3.5475,-3.5354,-3.5245,-3.4899,-3.4448,-3.4151,-3.3694,-3.324,-3.2935,-3.2484,-3.2191,-3.2094,-3.194,-3.1727,-3.1655,-3.1467,-3.1467,-3.1467,-3.1467,-3.1467,-3.1467,-3.1467,-3.1467,-3.1467,-3.1467,-3.1467,-3.1467,-3.1467,-3.1467,-3.1467,-3.1467,-3.1424,-3.1249,-3.1073,-3.0642,-3.028,-2.9851,-2.9352,-2.878,-2.8197,-2.7683,-2.7281,-2.7079,-2.6794,-2.6658,-2.6521,-2.6521,-2.6521,-2.6521,-2.6521,-2.6521,-2.6521,-2.6521,-2.6521,-2.6521,-2.6521,-2.6521,-2.6521,-2.6521,-2.6521,-2.6521,-2.6521,-2.6589,-2.6521,-2.6521,-2.6521,-2.6521,-2.6521,-2.6521,-2.6521,-2.6521,-2.6521,-2.6521,-2.6521,-2.6521,-2.6521,-2.6521,-2.6452,-2.6465,-2.6465,-2.6339,-2.6119,-2.591,-2.5606,-2.5453,-2.5453,-4.0818,-4.0299,-3.929,-3.8788,-3.8642,-3.8195,-3.7963,-3.7881,-3.7833,-3.8174,-3.874,-3.8599,-3.834,-3.8234,-3.8313,-3.8346,-3.826,-3.84,-3.8364,-3.8223,-3.7913,-3.7613,-3.7241,-3.6851,-3.6485,-3.6208,-3.5905,-3.5667,-3.5577,-3.5429,-3.5308,-3.5198,-3.4787,-3.4349,-3.405,-3.3607,-3.3134,-3.2757,-3.2262,-3.1996,-3.194,-3.1769,-3.1655,-3.1539,-3.1467,-3.1467,-3.1467,-3.1467,-3.1467,-3.1467,-3.1467,-3.1467,-3.1467,-3.1467,-3.1467,-3.1467,-3.1467,-3.1467,-3.1467,-3.1467,-3.1424,-3.1249,-3.1073,-3.0762,-3.0462,-2.996,-2.9449,-2.8817,-2.8314,-2.7789,-2.7335,-2.7066,-2.6863,-2.6658,-2.6521,-2.6521,-2.6521,-2.6521,-2.6521,-2.6521,-2.6521,-2.6521,-2.6521,-2.6521,-2.6521,-2.6521,-2.6521,-2.6521,-2.6521,-2.6521,-2.6521,-2.6521,-2.6521,-2.6521,-2.6521,-2.6521,-2.6521,-2.6521,-2.6521,-2.6521,-2.6521,-2.6521,-2.6521,-2.6452,-2.6452,-2.6521,-2.6452,-2.6396,-2.6339,-2.6283,-2.598,-2.5606,-2.5241,-2.4802,-2.4659,-4.0363,-3.9424,-3.838,-3.79,-3.7814,-3.7695,-3.7574,-3.7529,-3.7469,-3.7368,-3.7262,-3.7028,-3.6866,-3.7131,-3.7373,-3.7452,-3.7558,-3.7638,-3.7867,-3.7983,-3.7698,-3.7488,-3.7264,-3.693,-3.6527,-3.6148,-3.58,-3.5667,-3.556,-3.5412,-3.5291,-3.5182,-3.4851,-3.4399,-3.405,-3.3642,-3.3187,-3.2742,-3.2358,-3.1996,-3.1826,-3.1597,-3.1539,-3.1539,-3.1467,-3.1467,-3.1467,-3.1467,-3.1467,-3.1467,-3.1467,-3.1467,-3.1467,-3.1467,-3.1467,-3.1467,-3.1467,-3.1467,-3.1467,-3.1467,-3.1409,-3.1292,-3.1176,-3.094,-3.0568,-3.0129,-2.956,-2.8994,-2.8417,-2.7908,-2.7523,-2.7134,-2.6863,-2.6658,-2.6589,-2.6521,-2.6521,-2.6521,-2.6521,-2.6521,-2.6521,-2.6521,-2.6521,-2.6521,-2.6521,-2.6521,-2.6521,-2.6521,-2.6521,-2.6521,-2.6521,-2.6521,-2.6521,-2.6521,-2.6521,-2.6521,-2.6521,-2.6521,-2.6521,-2.6521,-2.6452,-2.6465,-2.6396,-2.6396,-2.6396,-2.6314,-2.6245,-2.6188,-2.6131,-2.6062,-2.5606,-2.5158,-2.4743,-2.4311,-2.3801,-3.9466,-3.8488,-3.7538,-3.71,-3.6948,-3.6304,-3.5921,-3.5878,-3.5852,-3.5717,-3.577,-3.5647,-3.5845,-3.6864,-3.6842,-3.6813,-3.6684,-3.6806,-3.7089,-3.7262,-3.7061,-3.7183,-3.7145,-3.6671,-3.6498,-3.6131,-3.5756,-3.5622,-3.5577,-3.5503,-3.54,-3.5291,-3.4994,-3.4611,-3.425,-3.3797,-3.333,-3.2904,-3.2413,-3.2094,-3.1883,-3.1697,-3.1524,-3.1467,-3.1467,-3.1467,-3.1467,-3.1467,-3.1467,-3.1467,-3.1467,-3.1467,-3.1467,-3.1467,-3.1467,-3.1467,-3.1467,-3.1467,-3.1467,-3.1467,-3.1409,-3.1351,-3.1176,-3.0999,-3.0642,-3.0326,-2.9761,-2.9296,-2.8725,-2.8105,-2.7656,-2.7214,-2.6875,-2.6739,-2.6589,-2.6521,-2.6521,-2.6521,-2.6521,-2.6521,-2.6521,-2.6521,-2.6521,-2.6521,-2.6521,-2.6521,-2.6521,-2.6521,-2.6521,-2.6521,-2.6521,-2.6521,-2.6521,-2.6521,-2.6521,-2.6521,-2.6521,-2.6521,-2.6452,-2.6465,-2.6396,-2.6339,-2.627,-2.6188,-2.6119,-2.605,-2.598,-2.5828,-2.5676,-2.5465,-2.5087,-2.4719,-2.4238,-2.374,-2.3224]},{"header":{"parameterUnit":"m.s-1","parameterCategory":1,"la1":31.0,"la2":29.5877,"lo1":-88.7671,"lo2":-86.6584,"dy":0.0162,"dx":0.0185,"nx":115,"ny":88,"refTime":"2023-07-27T06:00:00:Z","depth":0,"parameterNumber":3,"parameterNumberName":"V-component_of_WINDS"},"data":[0.0,0.0,0.0,0.0,0.0,0.0,0.0,0.0,0.0,0.0,0.0,0.0,0.0,0.0,0.0,0.0,0.0,0.0,0.0,0.0,0.0,0.0,0.0,0.0,0.0,0.0,0.0,0.0,0.0,0.0,0.0,0.0,0.0,0.0,0.0,0.0,0.0,0.0,0.0,0.0,0.0,0.0,0.0,0.0,0.0,0.0,0.0,0.0,0.0,0.0,0.0,0.0,0.0,0.0,0.0,0.0,0.0,0.0,0.0,0.0,0.0,0.0,0.0,0.0,0.0,0.0,0.0,0.0,0.0,0.0,0.0,0.0,0.0,0.0,0.0,0.0,0.0,0.0,0.0,0.0,0.0,0.0,0.0,0.0,0.0,0.0,0.0,0.0,0.0,0.0,0.0,0.0,0.0,0.0,0.0,0.0,0.0,0.0,0.0,0.0,0.0,0.0,0.0,0.0,0.0,0.0,0.0,0.0,0.0,0.0,0.0,0.0,0.0,0.0,0.0,0.0,0.0,0.0,0.0,0.0,0.0,0.0,0.0,0.0,0.0,0.0,0.0,0.0,0.0,0.0,0.0,0.0,0.0,0.0,0.0,0.0,0.0,0.0,0.0,0.0,0.0,0.0,0.0,0.0,0.0,0.0,0.0,0.0,0.0,0.0,0.0,0.0,0.0,0.0,0.0,0.0,0.0,0.0,0.0,0.0,0.0,0.0,0.0,0.0,0.0,0.0,0.0,0.0,0.0,0.0,0.0,0.0,0.0,0.0,0.0,0.0,0.0,0.0,0.0,0.0,0.0,0.0,0.0,0.0,0.0,0.0,0.0,0.0,0.0,0.0,0.0,0.0,0.0,0.0,0.0,0.0,0.0,0.0,0.0,0.0,0.0,0.0,0.0,0.0,0.0,0.0,0.0,0.0,0.0,0.0,0.0,0.0,0.0,0.0,0.0,0.0,0.0,0.0,0.0,0.0,0.0,0.0,0.0,0.0,0.0,0.0,0.0,0.0,0.0,0.0,0.0,0.0,0.0,0.0,0.0,0.0,0.0,0.0,0.0,0.0,0.0,0.0,0.0,0.0,0.0,0.0,0.0,0.0,0.0,0.0,0.0,0.0,0.0,0.0,0.0,0.0,0.0,0.0,0.0,0.0,0.0,0.0,0.0,0.0,0.0,0.0,0.0,0.0,0.0,0.0,0.0,0.0,0.0,0.0,0.0,0.0,0.0,0.0,0.0,0.0,0.0,0.0,0.0,0.0,0.0,0.0,0.0,0.0,0.0,0.0,0.0,0.0,0.0,0.0,0.0,0.0,0.0,0.0,0.0,0.0,0.0,0.0,0.0,0.0,0.0,0.0,0.0,0.0,0.0,0.0,0.0,0.0,0.0,0.0,0.0,0.0,0.0,0.0,0.0,0.0,0.0,0.0,0.0,0.0,0.0,0.0,0.0,0.0,0.0,0.0,0.0,0.0,0.0,0.0,0.0,0.0,0.0,0.0,0.0,0.0,0.0,0.0,0.0,0.0,0.0,0.0,0.0,0.0,0.0,0.0,0.0,0.0,0.0,0.0,0.0,0.0,0.0,0.0,0.0,0.0,0.0,0.0,0.0,0.0,0.0,0.0,0.0,0.0,0.0,0.0,0.0,0.0,0.0,0.0,0.0,0.0,0.0,0.0,0.0,0.0,0.0,0.0,0.0,0.0,0.0,0.0,0.0,0.0,0.0,0.0,0.0,0.0,0.0,0.0,0.0,0.0,0.0,0.0,0.0,0.0,0.0,0.0,0.0,0.0,0.0,0.0,0.0,0.0,0.0,0.0,0.0,0.0,0.0,0.0,0.0,0.0,0.0,0.0,0.0,0.0,0.0,0.0,0.0,0.0,0.0,0.0,0.0,0.0,0.0,0.0,0.0,0.0,0.0,0.0,0.0,0.0,0.0,0.0,0.0,0.0,0.0,0.0,0.0,0.0,0.0,0.0,0.0,0.0,0.0,0.0,0.0,0.0,0.0,0.0,0.0,0.0,0.0,0.0,0.0,0.0,0.0,0.0,0.0,0.0,0.0,0.0,0.0,0.0,0.0,0.0,0.0,0.0,0.0,0.0,0.0,0.0,0.0,0.0,0.0,0.0,0.0,0.0,0.0,0.0,0.0,0.0,0.0,0.0,0.0,0.0,0.0,0.0,0.0,0.0,0.0,0.0,0.0,0.0,0.0,0.0,0.0,0.0,0.0,0.0,0.0,0.0,0.0,0.0,0.0,0.0,0.0,0.0,0.0,0.0,0.0,0.0,0.0,0.0,0.0,0.0,0.0,0.0,0.0,0.0,0.0,0.0,0.0,0.0,0.0,0.0,0.0,0.0,0.0,0.0,0.0,0.0,0.0,0.0,0.0,0.0,0.0,0.0,0.0,0.0,0.0,0.0,0.0,0.0,0.0,0.0,0.0,0.0,0.0,0.0,0.0,0.0,0.0,0.0,0.0,0.0,0.0,0.0,0.0,0.0,0.0,0.0,0.0,0.0,0.0,0.0,0.0,0.0,0.0,0.0,0.0,0.0,0.0,0.0,0.0,0.0,0.0,0.0,0.0,0.0,0.0,0.0,0.0,0.0,0.0,0.0,0.0,0.0,0.0,0.0,0.0,0.0,0.0,0.0,0.0,0.0,0.0,0.0,0.0,0.0,0.0,0.0,0.0,0.0,0.0,0.0,0.0,0.0,0.0,0.0,0.0,0.0,0.0,0.0,0.0,0.0,0.0,0.0,0.0,0.0,0.0,0.0,0.0,0.0,0.0,0.0,0.0,0.0,0.0,0.0,0.0,0.0,0.0,0.0,0.0,0.0,0.0,0.0,0.0,0.0,0.0,0.0,0.0,0.0,0.0,0.0,0.0,0.0,0.0,0.0,0.0,0.0,0.0,0.0,0.0,0.0,0.0,0.0,0.0,0.0,0.0,0.0,0.0,0.0,0.0,0.0,0.0,0.0,0.0,0.0,0.0,0.0,0.0,0.0,0.0,0.0,0.0,0.0,0.0,0.0,0.0,0.0,0.0,0.0,0.0,0.0,0.0,0.0,0.0,0.0,0.0,0.0,0.0,0.0,0.0,0.0,0.0,0.0,0.0,0.0,0.0,0.0,0.0,0.0,0.0,0.0,0.0,0.0,0.0,0.0,0.0,0.0,0.0,0.0,0.0,0.0,0.0,0.0,0.0,0.0,0.0,0.0,0.0,0.0,0.0,0.0,0.0,0.0,0.0,0.0,0.0,0.0,0.0,0.0,0.0,0.0,0.0,0.0,0.0,0.0,0.0,0.0,0.0,0.0,0.0,0.0,0.0,0.0,0.0,0.0,0.0,0.0,0.0,0.0,0.0,0.0,0.0,0.0,0.0,0.0,0.0,0.0,0.0,0.0,0.0,0.0,0.0,0.0,0.0,0.0,0.0,0.0,0.0,0.0,0.0,0.0,0.0,0.0,0.0,0.0,0.0,0.0,0.0,0.0,0.0,0.0,0.0,0.0,0.0,0.0,0.0,0.0,0.0,0.0,0.0,0.0,0.0,0.0,0.0,0.0,0.0,0.0,0.0,0.0,0.0,0.0,0.0,0.0,0.0,0.0,0.0,0.0,0.0,0.0,0.0,0.0,0.0,0.0,0.0,0.0,0.0,0.0,0.0,0.0,0.0,0.0,0.0,0.0,0.0,0.0,0.0,0.0,0.0,0.0,0.0,0.0,0.0,0.0,0.0,0.0,0.0,0.0,0.0,0.0,0.0,0.0,0.0,0.0,0.0,0.0,0.0,0.0,0.0,0.0,0.0,0.0,0.0,0.0,0.0,0.0,0.0,0.0,0.0,0.0,0.0,0.0,0.0,0.0,0.0,0.0,0.0,0.0,0.0,0.0,0.0,0.0,0.0,0.0,0.0,0.0,0.0,0.0,0.0,0.0,0.0,0.0,0.0,0.0,0.0,0.0,0.0,0.0,0.0,0.0,0.0,0.0,0.0,0.0,0.0,0.0,0.0,0.0,0.0,0.0,0.0,0.0,0.0,0.0,0.0,0.0,0.0,0.0,0.0,0.0,0.0,0.0,0.0,0.0,0.0,0.0,0.0,0.0,0.0,0.0,0.0,0.0,0.0,0.0,0.0,0.0,0.0,0.0,0.0,0.0,0.0,0.0,0.0,0.0,0.0,0.0,0.0,0.0,0.0,0.0,0.0,0.0,0.0,0.0,0.0,0.0,0.0,0.0,0.0,0.0,0.0,0.0,0.0,0.0,0.0,0.0,0.0,0.0,0.5166,0.0,0.0,0.0,0.0,0.0,0.0,0.0,0.0,0.0,0.0,0.0,0.0,0.0,0.0,0.0,0.0,0.0,0.0,0.0,0.0,0.0,0.0,0.0,0.0,0.0,0.0,0.0,0.0,0.0,0.0,0.0,0.0,0.0,0.0,0.0,0.0,0.0,0.0,0.0,0.0,0.0,0.0,0.0,0.0,0.0,0.0,0.0,0.0,0.0,0.0,0.0,0.0,0.0,0.0,0.0,0.0,0.0,0.0,0.0,0.0,0.0,0.0,0.0,0.0,0.0,0.0,0.0,0.0,0.0,0.0,0.0,0.0,0.0,0.0,0.0,0.0,0.0,0.0,0.0,0.0,0.0,0.0,0.0,0.0,0.0,0.0,0.0,0.0,0.0,0.0,0.0,0.0,0.0,0.0,0.0,0.0,0.0,0.0,0.0,0.0,0.0,0.0,0.0,0.0,0.0,0.0,0.0,0.0,0.0,0.0,0.8076,0.7559,0.6835,0.5808,0.4652,0.0,0.0,0.0,0.0,0.0,0.0,0.0,0.0,0.0,0.0,0.0,0.0,0.0,0.0,0.0,0.0,0.0,0.0,0.0,0.0,0.0,0.0,0.0,0.0,0.0,0.0,0.0,0.0,0.0,0.0,0.0,0.0,0.0,0.0,0.0,0.0,0.0,0.0,0.0,0.0,0.0,0.0,0.0,0.0,0.0,0.0,0.0,0.0,0.0,0.0,0.0,0.0,0.0,0.0,0.0,0.0,0.0,0.0,0.0,0.0,0.0,0.0,0.0,0.0,0.0,0.0,0.0,0.0,0.0,0.0,0.0,0.0,0.0,0.0,0.0,0.0,0.0,0.0,0.0,0.0,0.0,0.0,0.0,0.0,0.0,0.0,0.0,0.0,0.0,0.0,0.0,0.0,0.0,0.0,0.0,0.0,0.0,0.0,0.0,0.0,0.0,0.0,0.0,0.0,0.0,0.0,0.0,0.0,0.0,0.0,0.0,0.0,0.6517,0.5364,0.3671,0.0,0.0,0.0,0.0,0.0,0.0,0.0,0.0,0.0,0.0,0.0,0.0,0.0,0.0,0.0,0.0,0.0,0.0,0.0,0.0,0.0,0.0,0.0,0.0,0.0,0.0,0.0,0.0,0.0,0.0,0.0,0.0,0.0,0.0,0.0,0.0,0.0,0.0,0.0,0.0,0.0,0.0,0.0,0.0,0.0,0.0,0.0,0.0,0.0,0.0,0.0,0.0,0.0,0.0,0.0,0.0,0.0,0.0,0.0,0.0,0.0,0.0,0.0,0.0,0.0,0.0,0.0,0.0,0.0,0.0,0.0,0.0,0.0,0.0,0.0,0.0,0.0,0.0,0.0,0.0,0.0,0.0,0.0,0.0,0.0,0.0,0.0,0.0,0.0,0.0,0.0,0.0,0.0,0.0,0.0,0.0,0.0,0.0,0.0,0.0,0.0,0.0,0.0,0.0,0.0,0.0,0.0,0.0,0.0,0.0,0.6962,0.6517,0.563,0.0,0.1793,0.0,0.0,0.0,0.0,0.0,0.0,0.0,0.0,0.0,0.0,0.0,0.0,0.0,0.0,0.0,0.0,0.0,0.0,0.0,0.0,0.0,0.0,0.0,0.0,0.0,0.0,0.0,0.0,0.0,0.0,0.0,0.0,0.0,0.0,0.0,0.0,0.0,0.0,0.0,0.0,0.0,0.0,0.0,0.0,0.0,0.0,0.0,0.0,0.0,0.0,0.0,0.0,0.0,0.0,0.0,0.0,0.0,0.0,0.0,0.0,0.0,0.0,0.0,0.0,0.0,0.0,0.0,0.0,0.0,0.0,0.0,0.0,0.0,0.0,0.0,0.0,0.0,0.0,0.0,0.0,0.0,0.0,0.0,0.0,0.0,0.0,0.0,0.0,0.0,0.0,0.0,0.0,0.0,0.0,0.0,0.0,0.0,0.0,0.0,0.0,0.0,0.0,0.0,0.0,0.0,0.0,0.0,0.0,0.0,0.0,0.6742,0.628,0.4647,0.2902,0.0,0.0,0.0,0.0,0.0,0.0,0.0,0.0,0.0,0.0,0.0,0.0,0.0,0.0,0.0,0.0,0.0,0.0,0.0,0.0,0.0,0.0,0.0,0.0,0.0,0.0,0.0,0.0,0.0,0.0,0.0,0.0,0.0,0.0,0.0,0.0,0.0,0.0,0.0,0.0,0.0,0.0,0.0,0.0,0.0,0.0,0.0,0.0,0.0,0.0,0.0,0.0,0.0,0.0,0.0,0.0,0.0,0.0,0.0,0.0,0.0,0.0,0.0,0.0,0.0,0.0,0.0,0.0,0.0,0.0,0.0,0.0,0.0,0.0,0.0,0.0,0.0,0.0,0.0,0.0,0.0,0.0,0.0,0.0,0.0,0.0,0.0,0.0,0.0,0.0,0.0,0.0,0.0,0.0,0.0,0.0,0.0,0.0,0.0,0.0,0.0,0.0,0.0,0.0,0.0,0.0,0.0,0.0,0.0,0.0,0.6671,0.6195,0.5483,0.3725,0.2035,0.0547,0.0,0.0,0.0,0.0,0.0,0.0,0.0,0.0,0.0,0.0,0.0,0.0,0.0,0.0,0.0,0.0,0.0,0.0,0.0,0.0,0.0,0.0,0.0,0.0,0.0,0.0,0.0,0.0,0.0,0.0,0.0,0.0,0.0,0.0,0.0,0.0,0.0,0.0,0.0,0.0,0.0,0.0,0.0,0.0,0.0,0.0,0.0,0.0,0.0,0.0,0.0,0.0,0.0,0.0,0.0,0.0,0.0,0.0,0.0,0.0,0.0,0.0,0.0,0.0,0.0,0.0,0.0,0.0,0.0,0.0,0.0,0.0,0.0,0.0,0.0,0.0,0.0,0.0,0.0,0.0,0.0,0.0,0.0,0.0,0.0,0.0,0.0,0.0,0.0,0.0,0.0,0.0,0.0,0.0,0.0,0.0,0.0,0.0,0.0,0.0,0.0,0.0,0.0,0.0,0.0,0.0,0.0,0.0,0.6618,0.617,0.5303,0.3987,0.2851,0.1521,0.0,0.0,0.0,0.0,0.0,0.0,0.0,0.0,0.0,0.0,0.0,0.0,0.0,0.0,0.0,0.0,0.0,0.0,0.0,0.0,0.0,0.0,0.0,0.0,0.0,0.0,0.0,0.0,0.0,0.0,0.0,0.0,0.0,0.0,0.0,0.0,0.0,0.0,0.0,0.0,0.0,0.0,0.0,0.0,0.0,0.0,0.0,0.0,0.0,0.0,0.0,0.0,0.0,0.0,0.0,0.0,0.0,0.0,0.0,0.0,0.0,0.0,0.0,0.0,0.0,0.0,0.0,0.0,0.0,0.0,0.0,0.0,0.0,0.0,0.0,0.0,0.0,0.0,0.0,0.0,0.0,0.0,0.0,0.0,0.0,0.0,0.0,0.0,0.0,0.0,0.0,0.0,0.0,0.0,0.0,0.0,0.0,0.0,0.0,0.0,0.0,0.0,0.0,0.0,0.0,0.0,0.0,0.0,0.0,0.609,0.5581,0.4784,0.3621,0.2409,0.1157,0.0,0.0,0.0,0.0,0.0,0.0,0.0,0.0,0.0,0.0,0.0,0.0,0.0,0.0,0.0,0.0,0.0,0.0,0.0,0.0,0.0,0.0,0.0,0.0,0.0,0.0,0.0,0.0,0.0,0.0,0.0,0.0,0.0,0.0,0.0,0.0,0.0,0.0,0.0,0.0,0.0,0.0,0.0,0.0,0.0,0.0,0.0,0.0,0.0,0.0,0.0,0.0,0.0,0.0,0.0,0.0,0.0,0.0,0.0,0.0,0.0,0.0,0.0,0.0,0.0,0.0,0.0,0.0,0.0,0.0,0.0,0.0,0.0,0.0,0.0,0.0,0.0,0.0,0.0,0.0,0.0,0.0,0.0,0.0,0.0,0.0,0.0,0.0,0.0,0.0,0.0,0.0,0.0,0.0,0.0,0.0,0.0,0.0,0.0,0.0,0.0,0.0,0.0,0.0,0.0,0.0,0.0,0.0,0.0,0.5364,0.0,0.4126,0.3112,0.1966,0.0688,0.0,0.0,0.0,0.0,0.0,0.0,0.0,0.0,0.0,0.0,0.0,0.0,0.0,0.0,0.0,0.0,0.0,0.0,0.0,0.0,0.0,0.0,0.0,0.0,0.0,0.0,0.0,0.0,0.0,0.0,0.0,0.0,0.0,0.0,0.0,0.0,0.0,0.0,0.0,0.0,0.0,0.0,0.0,0.0,0.0,0.0,0.0,0.0,0.0,0.0,0.0,0.0,0.0,0.0,0.0,0.0,0.0,0.0,0.0,0.0,0.0,0.0,0.0,0.0,0.0,0.0,0.0,0.0,0.0,0.0,0.0,0.0,0.0,0.0,0.0,0.0,0.0,0.0,0.0,0.0,0.0,0.0,0.0,0.0,0.0,0.0,0.0,0.0,0.0,0.0,0.0,0.0,0.0,0.0,0.0,0.0,0.0,0.0,0.0,0.0,0.0,0.0,0.0,0.0,0.0,0.0,0.0,0.0,0.434,0.4309,0.3894,0.3225,0.2422,0.1313,0.0,0.0,0.0,0.0,0.0,0.0,0.0,0.0,0.0,0.0,0.0,0.0,0.0,0.0,0.0,0.0,0.0,0.0,0.0,0.0,0.0,0.0,0.0,0.0,0.0,0.0,0.0,0.0,0.0,0.0,0.0,0.0,0.0,0.0,0.0,0.0,0.0,0.0,0.0,0.0,0.0,0.0,0.0,0.0,0.0,0.0,0.0,0.0,0.0,0.0,0.0,0.0,0.0,0.0,0.0,0.0,0.0,0.0,0.0,0.0,0.0,0.0,0.0,0.0,0.0,0.0,0.0,0.0,0.0,0.0,0.0,0.0,0.0,0.0,0.0,0.0,0.0,0.0,0.0,0.0,0.0,0.0,0.0,0.0,0.0,0.0,0.0,0.0,0.0,0.0,0.0,0.0,0.0,0.0,0.0,0.0,0.0,0.0,0.0,0.0,0.0,0.0,0.0,0.0,0.0,0.0,0.0,0.0,0.0,0.0,0.2954,0.287,0.2262,0.1336,0.0411,-0.0715,0.0,0.0,0.0,0.0,0.0,0.0,0.0,0.0,0.0,0.0,0.0,0.0,0.0,0.0,0.0,0.0,0.0,0.0,0.0,0.0,0.0,0.0,0.0,0.0,0.0,0.0,0.0,0.0,0.0,0.0,0.0,0.0,0.0,0.0,0.0,0.0,0.0,0.0,0.0,0.0,0.0,0.0,0.0,0.0,0.0,0.0,0.0,0.0,0.0,0.0,0.0,0.0,0.0,0.0,0.0,0.0,0.0,0.0,0.0,0.0,0.0,0.0,0.0,0.0,0.0,0.0,0.0,0.0,0.0,0.0,0.0,0.0,0.0,0.0,0.0,0.0,0.0,0.0,0.0,0.0,0.0,0.0,0.0,0.0,0.0,0.0,0.0,0.0,0.0,0.0,0.0,0.0,0.0,0.0,0.0,0.0,0.0,0.0,0.0,0.0,0.0,0.0,0.0,0.0,0.0,0.0,0.0,0.0,0.0,0.1151,0.1361,0.1152,0.0314,-0.052,-0.1649,-0.285,0.0,0.0,0.0,0.0,0.0,0.0,0.0,0.0,0.0,0.0,0.0,0.0,0.0,0.0,0.0,0.0,0.0,0.0,0.0,0.0,0.0,0.0,0.0,0.0,0.0,0.0,0.0,0.0,0.0,0.0,0.0,0.0,0.0,0.0,0.0,0.0,0.0,0.0,0.0,0.0,0.0,0.0,0.0,0.0,0.0,0.0,0.0,0.0,0.0,0.0,0.0,0.0,0.0,0.0,0.0,0.0,0.0,0.0,0.0,0.0,0.0,0.0,0.0,0.0,0.0,0.0,0.0,0.0,0.0,0.0,0.0,0.0,0.0,0.0,0.0,0.0,0.0,0.0,0.0,0.0,0.0,0.0,0.0,0.0,0.0,0.0,0.0,0.0,0.0,0.0,0.0,0.0,0.0,0.0,0.0,0.0,0.0,0.0,0.0,0.0,0.0,0.0,0.0,0.0,0.0,0.0,0.0,0.0,-0.0959,-0.0533,-0.0427,-0.064,-0.1677,-0.2697,0.0,0.0,0.0,0.0,0.0,0.0,0.0,0.0,0.0,0.0,0.0,0.0,0.0,0.0,0.0,0.0,0.0,0.0,0.0,0.0,0.0,0.0,0.0,0.0,0.0,0.0,0.0,0.0,0.0,0.0,0.0,0.0,0.0,0.0,0.0,0.0,0.0,0.0,0.0,0.0,0.0,0.0,0.0,0.0,0.0,0.0,0.0,0.0,0.0,0.0,0.0,0.0,0.0,0.0,0.0,0.0,0.0,0.0,0.0,0.0,0.0,0.0,0.0,0.0,0.0,0.0,0.0,0.0,0.0,0.0,0.0,0.0,0.0,0.0,0.0,0.0,0.0,0.0,0.0,0.0,0.0,0.0,0.0,0.0,0.0,0.0,0.0,0.0,0.0,0.0,0.0,0.0,0.0,0.0,0.0,0.0,0.0,0.0,0.0,0.0,0.0,0.0,0.0,0.0,0.0,0.0,0.0,0.0,0.0,-0.2277,-0.2963,-0.2965,-0.2169,-0.2881,-0.3885,0.0,0.0,0.0,0.0,0.0,0.0,0.0,0.0,0.0,0.0,0.0,0.0,0.0,0.0,0.0,0.0,0.0,0.0,0.0,0.0,0.0,0.0,0.0,0.0,0.0,0.0,0.0,0.0,0.0,0.0,0.0,0.0,0.0,0.0,0.0,0.0,0.0,0.0,0.0,0.0,0.0,0.0,0.0,0.0,0.0,0.0,0.0,0.0,0.0,0.0,0.0,0.0,0.0,0.0,0.0,0.0,0.0,0.0,0.0,0.0,0.0,0.0,0.0,0.0,0.0,0.0,0.0,0.0,0.0,0.0,0.0,0.0,0.0,0.0,0.0,0.0,0.0,0.0,0.0,0.0,0.0,0.0,0.0,0.0,0.0,0.0,0.0,0.0,0.0,0.0,0.0,0.0,0.0,0.0,0.0,0.0,0.0,0.0,0.0,0.0,0.0,0.0,0.0,0.0,0.0,0.0,0.0,0.0,-0.3328,-0.3383,-0.4661,-0.4901,-0.4191,-0.4555,-0.5116,0.0,0.0,0.0,0.0,0.0,0.0,0.0,0.0,0.0,0.0,0.0,0.0,0.0,0.0,0.0,0.0,0.0,0.0,0.0,0.0,0.0,0.0,0.0,0.0,0.0,0.0,0.0,0.0,0.0,0.0,0.0,0.0,0.0,0.0,0.0,0.0,0.0,0.0,0.0,0.0,0.0,0.0,0.0,0.0,0.0,0.0,0.0,0.0,0.0,0.0,0.0,0.0,0.0,0.0,0.0,0.0,0.0,0.0,0.0,0.0,0.0,0.0,0.0,0.0,0.0,0.0,0.0,0.0,0.0,0.0,0.0,0.0,0.0,0.0,0.0,0.0,0.0,0.0,0.0,0.0,0.0,0.0,0.0,0.0,0.0,0.0,0.0,0.0,0.0,0.0,0.0,0.0,0.0,0.0,0.0,0.0,0.0,0.0,0.0,0.0,0.0,0.0,0.0,0.0,0.0,0.0,0.0,0.0,-0.4507,-0.4595,-0.5883,-0.6485,-0.6482,-0.6376,-0.6486,0.0,0.0,0.0,0.0,0.0,0.0,0.0,0.0,0.0,0.0,0.0,0.0,0.0,0.0,0.0,0.0,0.0,0.0,0.0,0.0,0.0,0.0,0.0,0.0,0.0,0.0,0.0,0.0,0.0,0.0,0.0,0.0,0.0,0.0,0.0,0.0,0.0,0.0,0.0,0.0,0.0,0.0,0.0,0.0,0.0,0.0,0.0,0.0,0.0,0.0,0.0,0.0,0.0,0.0,0.0,0.0,0.0,0.0,0.0,0.0,0.0,0.0,0.0,0.0,0.0,0.0,0.0,0.0,0.0,0.0,0.0,0.0,0.0,0.0,0.0,0.0,0.0,0.0,0.0,0.0,0.0,0.0,0.0,0.0,0.0,0.0,0.0,0.0,0.0,0.0,0.0,0.0,0.0,0.0,0.0,0.0,0.0,0.0,0.0,0.0,0.0,0.0,0.0,0.0,0.0,0.0,0.0,0.0,-0.5719,-0.5892,-0.703,-0.7601,-0.7601,-0.7583,-0.7669,0.0,0.0,0.0,0.0,0.0,0.0,0.0,0.0,0.0,0.0,0.0,0.0,0.0,0.0,0.0,0.0,0.0,0.0,0.0,0.0,0.0,0.0,0.0,0.0,0.0,0.0,0.0,0.0,0.0,0.0,0.0,0.0,0.0,0.0,0.0,0.0,0.0,0.0,0.0,0.0,0.0,0.0,0.0,0.0,0.0,0.0,0.0,0.0,-1.2555,0.0,0.0,0.0,0.0,0.0,0.0,0.0,0.0,0.0,0.0,0.0,0.0,0.0,0.0,0.0,0.0,0.0,0.0,0.0,0.0,0.0,0.0,0.0,0.0,0.0,0.0,0.0,0.0,0.0,0.0,0.0,0.0,0.0,0.0,0.0,0.0,0.0,0.0,0.0,0.0,0.0,0.0,0.0,0.0,0.0,0.0,0.0,0.0,0.0,0.0,0.0,0.0,0.0,0.0,0.0,0.0,0.0,0.0,0.0,-0.7124,-0.7362,-0.8377,-0.8819,-0.8819,-0.9395,-0.9455,0.0,0.0,0.0,0.0,0.0,0.0,0.0,0.0,0.0,0.0,0.0,0.0,0.0,0.0,0.0,0.0,0.0,0.0,0.0,0.0,0.0,0.0,0.0,0.0,0.0,0.0,0.0,0.0,0.0,0.0,0.0,0.0,0.0,0.0,0.0,0.0,0.0,0.0,0.0,0.0,0.0,0.0,0.0,0.0,0.0,0.0,0.0,0.0,0.0,0.0,0.0,0.0,0.0,0.0,0.0,0.0,0.0,0.0,0.0,0.0,0.0,0.0,0.0,0.0,0.0,0.0,0.0,0.0,0.0,0.0,0.0,0.0,0.0,0.0,0.0,0.0,0.0,0.0,0.0,0.0,0.0,0.0,0.0,0.0,0.0,0.0,0.0,0.0,0.0,0.0,0.0,0.0,0.0,0.0,0.0,0.0,0.0,0.0,0.0,0.0,0.0,0.0,0.0,0.0,0.0,0.0,0.0,-0.8075,-0.8428,-0.8803,-0.9592,-1.0033,-1.0143,-1.124,-1.1384,-1.0589,0.0,0.0,0.0,0.0,0.0,0.0,0.0,0.0,0.0,0.0,0.0,0.0,0.0,0.0,0.0,0.0,0.0,0.0,0.0,0.0,0.0,0.0,0.0,0.0,0.0,0.0,0.0,0.0,0.0,0.0,0.0,0.0,0.0,0.0,0.0,0.0,0.0,0.0,-0.5662,-0.5962,0.0,0.0,0.0,0.0,0.0,0.0,0.0,0.0,-1.4202,0.0,0.0,0.0,0.0,0.0,0.0,0.0,0.0,0.0,0.0,0.0,0.0,0.0,0.0,0.0,0.0,0.0,0.0,0.0,0.0,0.0,0.0,0.0,0.0,0.0,0.0,0.0,0.0,0.0,0.0,0.0,0.0,0.0,0.0,0.0,0.0,0.0,0.0,0.0,0.0,0.0,0.0,0.0,0.0,0.0,0.0,0.0,0.0,0.0,0.0,0.0,0.0,0.0,0.0,0.0,0.0,-0.8584,-0.9133,-0.9507,-0.9915,-1.0798,-1.1345,-1.135,-1.2441,-1.2889,-1.2575,0.0,0.0,0.0,0.0,0.0,0.0,0.0,0.0,0.0,0.0,0.0,0.0,0.0,0.0,0.0,0.0,0.0,0.0,0.0,0.0,0.0,0.0,0.0,0.0,0.0,0.0,0.0,0.0,0.0,0.0,0.0,0.0,0.0,0.0,0.0,0.0,0.0,0.0,0.0,-0.7098,-0.7753,0.0,0.0,0.0,0.0,0.0,0.0,0.0,0.0,-1.4975,0.0,0.0,0.0,0.0,0.0,0.0,0.0,0.0,0.0,0.0,0.0,0.0,0.0,0.0,0.0,0.0,0.0,0.0,0.0,0.0,0.0,0.0,0.0,0.0,0.0,0.0,0.0,0.0,0.0,0.0,0.0,0.0,0.0,0.0,0.0,0.0,0.0,0.0,0.0,0.0,0.0,0.0,0.0,0.0,0.0,0.0,0.0,0.0,0.0,0.0,0.0,0.0,0.0,0.0,0.0,-0.9939,-1.0432,-1.0932,-1.1341,-1.2114,-1.2441,-1.255,-1.3635,-1.406,0.0,0.0,0.0,0.0,0.0,0.0,0.0,0.0,0.0,0.0,0.0,0.0,0.0,0.0,0.0,0.0,0.0,0.0,0.0,0.0,0.0,0.0,0.0,0.0,0.0,0.0,0.0,0.0,0.0,0.0,0.0,0.0,0.0,0.0,0.0,0.0,0.0,0.0,0.0,0.0,-0.7861,-0.8516,-0.9088,0.0,0.0,0.0,0.0,0.0,0.0,-1.5306,-1.594,0.0,0.0,0.0,0.0,0.0,0.0,0.0,0.0,0.0,0.0,0.0,0.0,0.0,0.0,0.0,0.0,0.0,0.0,0.0,0.0,0.0,0.0,0.0,0.0,0.0,0.0,0.0,0.0,0.0,0.0,0.0,0.0,0.0,0.0,0.0,0.0,0.0,0.0,0.0,0.0,0.0,0.0,0.0,0.0,0.0,0.0,0.0,0.0,0.0,0.0,0.0,0.0,0.0,0.0,0.0,-1.1304,-1.1741,-1.2266,-1.2753,-1.331,-1.364,-1.364,-1.4713,-1.5007,0.0,0.0,0.0,0.0,0.0,0.0,0.0,0.0,0.0,0.0,0.0,0.0,0.0,0.0,0.0,0.0,0.0,0.0,0.0,0.0,0.0,0.0,0.0,0.0,0.0,0.0,0.0,0.0,0.0,0.0,0.0,0.0,0.0,0.0,0.0,0.0,0.0,0.0,0.0,0.0,0.0,-0.9405,-1.0151,-1.123,0.0,0.0,0.0,0.0,-1.5601,-1.6306,0.0,0.0,0.0,0.0,0.0,0.0,0.0,0.0,0.0,0.0,0.0,0.0,0.0,0.0,0.0,0.0,0.0,0.0,0.0,0.0,0.0,0.0,0.0,0.0,0.0,0.0,0.0,0.0,0.0,0.0,0.0,0.0,0.0,0.0,0.0,0.0,0.0,0.0,0.0,0.0,0.0,0.0,0.0,0.0,0.0,0.0,0.0,0.0,0.0,0.0,0.0,0.0,0.0,0.0,0.0,0.0,-1.2457,-1.2956,-1.3393,-1.3948,-1.4498,-1.4826,-1.4821,-1.5684,-1.5848,0.0,0.0,0.0,0.0,0.0,0.0,0.0,0.0,0.0,0.0,0.0,0.0,0.0,0.0,0.0,0.0,0.0,0.0,0.0,0.0,0.0,0.0,0.0,0.0,0.0,0.0,0.0,0.0,0.0,0.0,0.0,0.0,0.0,0.0,0.0,0.0,0.0,0.0,0.0,0.0,0.0,-1.0733,-1.1358,-1.2248,-1.3308,0.0,0.0,-1.531,-1.6117,-1.652,0.0,0.0,0.0,0.0,0.0,0.0,0.0,0.0,0.0,0.0,0.0,0.0,0.0,0.0,0.0,0.0,0.0,0.0,0.0,0.0,0.0,0.0,0.0,0.0,0.0,0.0,0.0,0.0,0.0,0.0,0.0,0.0,0.0,0.0,0.0,0.0,0.0,0.0,0.0,0.0,0.0,0.0,0.0,0.0,0.0,0.0,0.0,0.0,0.0,0.0,0.0,0.0,0.0,0.0,0.0,-1.254,-1.3583,-1.4039,-1.4606,-1.5137,-1.5571,-1.5791,-1.5785,-1.643,-1.6593,0.0,0.0,0.0,0.0,0.0,0.0,0.0,0.0,0.0,0.0,0.0,0.0,0.0,0.0,0.0,0.0,0.0,0.0,0.0,0.0,0.0,0.0,0.0,0.0,0.0,0.0,0.0,0.0,0.0,0.0,0.0,0.0,0.0,0.0,0.0,0.0,0.0,0.0,0.0,0.0,0.0,0.0,-1.2204,-1.3416,0.0,0.0,0.0,-1.6497,-1.7001,0.0,0.0,0.0,0.0,0.0,0.0,0.0,0.0,0.0,0.0,0.0,0.0,0.0,0.0,0.0,0.0,0.0,0.0,0.0,0.0,0.0,0.0,0.0,0.0,0.0,0.0,0.0,0.0,0.0,0.0,0.0,0.0,0.0,0.0,0.0,0.0,0.0,0.0,0.0,0.0,0.0,0.0,0.0,0.0,0.0,0.0,0.0,0.0,0.0,0.0,0.0,0.0,0.0,0.0,0.0,0.0,0.0,-1.4497,-1.4989,-1.5464,-1.6099,-1.6424,-1.6537,-1.6636,-1.7073,0.0,0.0,0.0,0.0,0.0,0.0,0.0,0.0,0.0,0.0,0.0,0.0,0.0,0.0,0.0,0.0,0.0,0.0,0.0,0.0,0.0,0.0,0.0,0.0,0.0,0.0,0.0,-2.0108,0.0,0.0,0.0,0.0,0.0,0.0,0.0,0.0,0.0,0.0,0.0,0.0,0.0,0.0,-1.3015,-1.3377,-1.4573,-1.5596,0.0,0.0,-1.7378,-1.7793,-1.8415,-1.9066,0.0,0.0,0.0,0.0,0.0,0.0,0.0,0.0,0.0,0.0,0.0,0.0,0.0,0.0,0.0,0.0,0.0,0.0,0.0,0.0,0.0,0.0,0.0,0.0,0.0,0.0,0.0,0.0,0.0,0.0,0.0,0.0,0.0,0.0,0.0,0.0,0.0,0.0,0.0,0.0,0.0,0.0,0.0,0.0,0.0,0.0,0.0,0.0,0.0,0.0,0.0,0.0,0.0,0.0,-1.4282,-1.5023,-1.562,-1.6099,-1.6624,-1.6955,-1.7279,-1.7477,-1.7799,-1.797,0.0,0.0,0.0,0.0,0.0,0.0,0.0,0.0,0.0,0.0,0.0,0.0,0.0,0.0,0.0,0.0,0.0,0.0,0.0,0.0,0.0,0.0,0.0,0.0,0.0,0.0,0.0,0.0,0.0,0.0,0.0,0.0,0.0,0.0,0.0,0.0,0.0,0.0,0.0,0.0,0.0,-1.4339,-1.4885,-1.568,-1.6505,0.0,-1.7569,-1.7793,-1.8318,-1.8848,-1.9472,-1.9952,0.0,0.0,0.0,0.0,0.0,0.0,0.0,0.0,0.0,0.0,0.0,0.0,0.0,0.0,0.0,0.0,0.0,0.0,0.0,0.0,0.0,0.0,0.0,0.0,0.0,0.0,0.0,0.0,0.0,0.0,0.0,0.0,0.0,0.0,0.0,0.0,0.0,0.0,0.0,0.0,0.0,0.0,0.0,0.0,0.0,0.0,0.0,0.0,0.0,0.0,0.0,0.0,0.0,-1.5196,-1.5821,-1.6358,-1.6849,-1.7259,-1.7378,-1.7595,-1.7799,-1.7911,-1.8081,0.0,0.0,0.0,0.0,0.0,0.0,0.0,0.0,0.0,0.0,0.0,0.0,0.0,0.0,0.0,0.0,0.0,0.0,0.0,0.0,0.0,0.0,0.0,0.0,0.0,0.0,0.0,0.0,-1.9636,-1.9012,-1.8192,0.0,0.0,0.0,0.0,0.0,0.0,0.0,0.0,0.0,0.0,-1.5881,-1.6091,-1.6873,0.0,0.0,-1.8206,-1.852,-1.9153,-1.9672,-2.0285,-2.1003,-2.1717,0.0,0.0,0.0,0.0,0.0,0.0,0.0,0.0,0.0,0.0,0.0,0.0,0.0,0.0,0.0,0.0,0.0,0.0,0.0,0.0,0.0,0.0,0.0,0.0,0.0,0.0,0.0,0.0,0.0,0.0,0.0,0.0,0.0,0.0,0.0,0.0,0.0,0.0,0.0,0.0,0.0,0.0,0.0,0.0,0.0,0.0,0.0,0.0,0.0,0.0,0.0,0.0,-1.5847,-1.6456,-1.6932,-1.7279,-1.7589,-1.7687,-1.7905,-1.8227,-1.8331,-1.854,0.0,0.0,0.0,0.0,0.0,0.0,0.0,0.0,0.0,0.0,0.0,0.0,0.0,0.0,0.0,0.0,0.0,0.0,0.0,0.0,0.0,0.0,0.0,0.0,0.0,0.0,0.0,0.0,-2.024,-1.9706,-1.8984,0.0,0.0,0.0,0.0,0.0,0.0,0.0,0.0,0.0,0.0,-1.7271,-1.7351,-1.797,-1.8534,-1.884,-1.9042,-1.9354,-1.9983,-2.049,-2.1097,-2.1717,0.0,0.0,0.0,0.0,0.0,0.0,0.0,0.0,0.0,0.0,0.0,0.0,0.0,0.0,0.0,0.0,0.0,0.0,0.0,0.0,0.0,0.0,0.0,0.0,0.0,0.0,0.0,0.0,0.0,0.0,-1.5083,0.0,0.0,0.0,0.0,0.0,0.0,0.0,0.0,0.0,0.0,0.0,0.0,0.0,0.0,0.0,0.0,0.0,0.0,0.0,0.0,0.0,0.0,-1.6151,-1.6742,-1.7029,-1.7384,-1.7582,-1.7806,-1.822,-1.8722,-1.9049,-1.9687,-2.0388,0.0,0.0,0.0,0.0,0.0,0.0,0.0,0.0,0.0,0.0,0.0,0.0,0.0,0.0,0.0,0.0,0.0,0.0,0.0,0.0,0.0,0.0,0.0,0.0,0.0,0.0,-2.1409,-2.1144,-2.0643,0.0,0.0,0.0,0.0,0.0,0.0,0.0,0.0,0.0,0.0,-1.8143,-1.8475,-1.8762,-1.9049,-1.948,-1.9983,-2.0086,-2.0292,-2.0814,-2.1318,-2.1717,0.0,0.0,0.0,0.0,0.0,0.0,0.0,0.0,0.0,0.0,0.0,0.0,0.0,0.0,0.0,0.0,0.0,0.0,0.0,0.0,0.0,0.0,0.0,0.0,0.0,0.0,0.0,-1.4254,-1.4844,0.0,0.0,0.0,0.0,0.0,0.0,0.0,0.0,0.0,0.0,0.0,-1.5632,-1.5722,0.0,0.0,0.0,0.0,0.0,0.0,0.0,0.0,0.0,0.0,0.0,0.0,-1.685,-1.7058,-1.7337,-1.7589,-1.7799,-1.8115,-1.8632,-1.9361,-1.9672,-2.0381,-2.1462,0.0,0.0,0.0,0.0,0.0,0.0,0.0,0.0,0.0,0.0,0.0,0.0,0.0,0.0,0.0,0.0,0.0,0.0,0.0,0.0,0.0,0.0,0.0,0.0,0.0,-2.1781,0.0,0.0,0.0,0.0,0.0,0.0,0.0,0.0,0.0,0.0,0.0,-1.9422,-1.9544,-1.9875,-2.0059,-2.0174,-2.03,-2.0506,0.0,0.0,0.0,0.0,0.0,0.0,0.0,0.0,0.0,0.0,0.0,0.0,0.0,0.0,-2.6421,-2.6222,-2.6431,-2.6702,-2.7148,0.0,0.0,0.0,0.0,0.0,0.0,0.0,0.0,0.0,0.0,0.0,0.0,0.0,0.0,-1.4926,0.0,-1.5628,0.0,0.0,0.0,0.0,0.0,0.0,0.0,0.0,-1.6002,-1.6144,-1.6643,-1.6643,-1.6743,0.0,-1.7272,-1.7082,0.0,0.0,0.0,0.0,0.0,0.0,0.0,0.0,-1.7311,-1.7515,-1.7593,-1.7905,-1.8325,-1.8632,-1.9257,-1.9983,-2.0688,-2.15,-2.2554,-2.2721,-2.2888,0.0,0.0,0.0,0.0,0.0,0.0,0.0,0.0,0.0,0.0,0.0,0.0,0.0,0.0,0.0,0.0,0.0,0.0,0.0,0.0,0.0,0.0,0.0,-2.2651,0.0,0.0,0.0,0.0,0.0,0.0,0.0,0.0,0.0,-2.0281,-2.0606,-2.1023,-2.1154,-2.1374,-2.142,-2.142,0.0,0.0,0.0,0.0,0.0,0.0,0.0,-2.3728,-2.3926,-2.443,-2.4932,-2.5528,-2.5907,-2.638,-2.6965,0.0,0.0,-2.7326,-2.7536,-2.782,-2.8456,-2.8653,-2.9035,-2.9863,-2.9943,-3.0125,0.0,0.0,0.0,0.0,0.0,0.0,0.0,0.0,-1.5395,-1.5863,0.0,-1.6223,0.0,0.0,0.0,0.0,0.0,-1.6583,0.0,0.0,-1.6714,-1.6842,-1.7179,-1.7179,-1.7384,-1.7582,-1.7589,-1.7582,-1.7555,-1.7405,0.0,0.0,0.0,0.0,0.0,0.0,-1.7515,-1.8003,-1.801,-1.8325,-1.8826,-1.9465,-1.9983,-2.0585,-2.2106,-2.3111,-2.3683,-2.3422,-2.3467,-2.3644,-2.3156,0.0,0.0,0.0,0.0,0.0,0.0,0.0,0.0,0.0,0.0,0.0,0.0,0.0,0.0,0.0,0.0,0.0,0.0,0.0,0.0,-2.3589,0.0,0.0,0.0,0.0,0.0,0.0,0.0,0.0,0.0,0.0,-2.1709,-2.1853,-2.2214,-2.2475,0.0,0.0,0.0,0.0,-2.2619,-2.2929,-2.3129,-2.3429,-2.3728,-2.4233,-2.4529,-2.4529,0.0,0.0,-2.6004,-2.639,-2.6688,-2.7262,-2.7726,-2.8081,-2.8081,-2.8279,-2.8675,-2.9393,-2.9577,-2.9852,-3.0668,-3.0937,-3.1038,-0.971,0.0,0.0,0.0,0.0,-1.2876,-1.3814,-1.4809,-1.559,-1.6078,-1.6503,-1.6513,0.0,0.0,0.0,0.0,0.0,0.0,-1.7158,-1.7357,-1.7331,-1.7364,-1.7483,-1.7483,-1.7483,-1.7589,-1.7589,-1.7694,-1.7905,-1.783,-1.7633,-1.7347,0.0,0.0,0.0,0.0,-1.8227,-1.8513,-1.8624,-1.8938,-1.9657,-2.0071,-2.079,-2.1912,-2.3129,-2.3799,-2.3809,-2.3862,-2.3808,-2.3793,-2.326,0.0,0.0,0.0,0.0,0.0,0.0,0.0,0.0,0.0,0.0,0.0,0.0,0.0,0.0,0.0,0.0,0.0,0.0,0.0,-2.4366,-2.4532,-2.4444,0.0,0.0,0.0,0.0,0.0,0.0,0.0,0.0,0.0,-2.3527,-2.3517,-2.3502,0.0,0.0,-2.3628,-2.3628,-2.3637,-2.3728,-2.4035,0.0,0.0,0.0,-2.502,-2.5304,-2.5401,-2.581,-2.6304,-2.687,-2.7167,-2.7536,-2.8196,-2.8746,-2.9198,-2.9749,-2.9474,-2.9485,-3.0306,-3.0487,-3.0758,-3.146,-3.1637,-3.1737,-1.0097,-1.0277,-1.0769,-1.1678,-1.255,-1.3527,-1.4498,-1.5345,-1.615,-1.6605,-1.6892,-1.6912,-1.6881,-1.6881,-1.6887,0.0,0.0,0.0,-1.7415,-1.7589,-1.7589,-1.7589,-1.7589,-1.7589,-1.7687,-1.7793,-1.7799,-1.7905,-1.8318,-1.8318,-1.8435,-1.8576,0.0,0.0,-1.848,-1.8651,-1.8945,-1.9242,-1.9346,-1.9761,-2.0704,-2.1302,-2.2114,-2.312,-2.3781,-2.4184,-2.423,-2.4028,-2.3871,-2.3799,-2.3379,-2.2949,0.0,0.0,0.0,0.0,0.0,0.0,0.0,0.0,0.0,0.0,0.0,-2.3197,-2.3361,0.0,0.0,0.0,-2.4858,-2.5153,-2.5263,-2.5295,0.0,0.0,0.0,0.0,0.0,0.0,0.0,-2.3641,-2.4059,-2.4394,-2.4555,-2.4667,-2.4637,-2.443,-2.443,-2.444,-2.443,0.0,-2.443,-2.4637,-2.4824,-2.502,-2.5216,-2.58,-2.6177,-2.6274,-2.6572,-2.6955,-2.7441,-2.7809,-2.8279,-2.8932,-2.9577,-3.0204,-3.0758,-3.0656,-3.0656,-3.1205,-3.1371,-3.156,-3.2164,-3.2251,-3.2351,-1.0425,-1.0614,-1.1317,-1.2332,-1.3423,-1.4498,-1.5357,-1.5992,-1.6855,-1.7179,-1.7265,-1.7204,-1.7188,-1.7181,-1.7181,0.0,-1.7194,-1.7462,-1.7582,-1.7589,-1.7589,-1.7589,-1.7589,-1.7582,-1.7799,-1.8016,-1.8016,-1.8318,-1.8826,-1.893,-1.9346,-2.0181,-1.945,-1.9146,-1.9376,-1.9383,-1.9687,-2.0181,-2.0181,-2.0806,-2.1827,-2.2828,-2.3619,-2.4079,-2.4225,-2.4393,-2.4592,-2.4127,-2.3779,-2.373,-2.335,-2.2969,-2.2588,0.0,0.0,0.0,0.0,0.0,0.0,0.0,0.0,0.0,0.0,0.0,0.0,0.0,0.0,0.0,-2.5801,0.0,-2.5979,-2.5979,0.0,0.0,0.0,-2.5041,-2.4368,-2.4282,-2.4293,-2.4227,0.0,0.0,-2.5153,0.0,-2.5635,-2.5128,-2.503,-2.503,-2.503,-2.503,-2.503,-2.503,-2.5509,-2.579,-2.579,-2.6466,-2.704,-2.7231,-2.7326,-2.7515,-2.8081,-2.8456,-2.9002,-2.9577,-3.0408,-3.1026,-3.1306,-3.1737,-3.2077,-3.2077,-3.2064,-3.2176,-3.2624,-3.2711,-3.281,-1.0326,-1.0948,-1.1867,-1.2659,-1.3423,-1.4504,-1.5464,-1.6217,-1.6961,-1.7279,-1.7477,-1.7508,-1.7482,-1.7475,-1.7482,-1.7475,-1.7482,-1.7549,-1.7589,-1.7589,-1.7589,-1.7589,-1.7589,-1.7799,-1.7911,-1.8016,-1.8422,-1.8938,-1.9465,-1.9665,-2.0285,-2.1318,-2.1105,-2.0806,-2.0514,-2.0506,-2.0814,-2.131,-2.131,-2.1818,-2.2929,-2.3529,-2.3889,-2.3994,-2.4373,-2.4315,-2.3756,-2.3806,-2.3633,-2.331,-2.3193,-2.2999,-2.2998,-2.2988,0.0,0.0,0.0,0.0,0.0,0.0,0.0,0.0,0.0,-2.5292,-2.5554,0.0,-2.6279,0.0,-2.661,-2.6857,-2.6857,-2.6857,0.0,0.0,-2.6196,-2.5863,-2.5031,-2.4946,-2.5003,-2.5098,-2.529,-2.5553,-2.6054,-2.6244,-2.6304,-2.638,-2.6091,-2.5907,-2.61,-2.61,-2.61,-2.611,-2.638,-2.6562,-2.6658,-2.7231,-2.7904,-2.8258,-2.8351,-2.8538,-2.9013,-2.9405,-2.9783,-3.0487,-3.1038,-3.1661,-3.2001,-3.2376,-3.2612,-3.2797,-3.2711,-3.2624,-3.2896,-3.2995,-3.2982,-1.0358,-1.0949,-1.1941,-1.2876,-1.3738,-1.4928,-1.5785,-1.6524,-1.7166,-1.7483,-1.7589,-1.7589,-1.7589,-1.7589,-1.7589,-1.7589,-1.7589,-1.7589,-1.7589,-1.7582,-1.7694,-1.7799,-1.7799,-1.822,-1.8429,-1.8646,-1.9153,-1.9761,-2.0395,-2.0704,-2.1302,-2.2426,-2.2434,-2.2426,-2.2325,-2.1827,-2.1827,-2.2224,-2.2627,-2.305,-2.3583,-2.4073,-2.4256,-2.3947,-2.4133,-2.4103,-2.3619,-2.3514,-2.3389,-2.3154,-2.3144,-2.3144,-2.3144,-2.3232,-2.3319,0.0,0.0,0.0,0.0,0.0,0.0,0.0,0.0,0.0,0.0,0.0,-2.7021,-2.7126,-2.7441,-2.7684,-2.7684,-2.7684,-2.7592,-2.7174,-2.7092,-2.6753,-2.5863,-2.5768,-2.5819,-2.5972,-2.5986,-2.6248,-2.6737,-2.6774,-2.6955,-2.7326,-2.7136,-2.6945,-2.687,-2.6774,-2.6774,-2.6764,-2.7146,-2.761,-2.7977,-2.8362,-2.8828,-2.929,-2.9371,-2.9474,-2.9943,-3.0306,-3.0621,-3.0832,-3.1387,-3.1748,-3.1809,-3.199,-3.2147,-3.2243,-3.2243,-3.2347,-3.2968,-3.3081,-3.3081,-1.0277,-1.0802,-1.1896,-1.3088,-1.4277,-1.5458,-1.6205,-1.673,-1.7371,-1.7589,-1.7589,-1.7589,-1.7589,-1.7589,-1.7589,-1.7589,-1.7589,-1.7589,-1.7582,-1.7687,-1.7911,-1.8016,-1.8122,-1.8632,-1.9049,-1.9376,-1.9983,-2.0696,-2.142,-2.1717,-2.2434,-2.3329,-2.3438,-2.3728,-2.4134,-2.3185,-2.285,-2.3059,-2.3755,-2.4054,-2.3963,-2.4345,-2.441,-2.3967,-2.3884,-2.3769,-2.3701,-2.334,-2.3144,-2.3144,-2.3144,-2.3144,-2.3135,-2.3319,-2.3503,0.0,-2.4186,0.0,0.0,0.0,0.0,0.0,0.0,0.0,0.0,-2.7371,-2.7765,-2.8042,-2.8191,-2.8339,-2.8327,-2.8498,-2.8407,-2.7983,-2.7971,-2.7568,-2.6775,-2.6693,-2.6657,-2.6764,-2.6793,-2.6955,-2.7369,-2.7421,-2.761,-2.8081,-2.8186,-2.8081,-2.7704,-2.7515,-2.741,-2.7421,-2.7893,-2.8549,-2.9382,-2.9669,-2.9852,-3.0306,-3.0397,-3.0453,-3.0629,-3.0998,-3.1197,-3.0977,-3.1357,-3.1642,-3.124,-3.1354,-3.1411,-3.1474,-3.1486,-3.1763,-3.2528,-3.2754,-3.2855,-1.0173,-1.0802,-1.1891,-1.3088,-1.4277,-1.5458,-1.6205,-1.673,-1.7364,-1.7589,-1.7589,-1.7589,-1.7589,-1.7589,-1.7589,-1.7589,-1.7589,-1.7589,-1.7694,-1.7911,-1.8023,-1.822,-1.8617,-1.9257,-1.9672,-1.9975,-2.0901,-2.1623,-2.192,-2.2627,-2.3329,-2.3935,-2.4134,-2.444,-2.4716,0.0,0.0,0.0,-2.4054,-2.4136,-2.3992,-2.4066,-2.4059,-2.3835,-2.3828,0.0,-2.3281,-2.3174,-2.3144,-2.3144,-2.3144,0.0,0.0,0.0,0.0,0.0,0.0,0.0,0.0,0.0,0.0,0.0,-2.7914,-2.803,-2.7719,-2.8111,-2.8498,-2.8816,-2.8895,-2.8973,-2.8882,-2.8973,-2.8895,-2.8633,-2.8621,-2.8303,-2.7649,-2.7568,-2.7552,-2.7698,-2.7755,-2.7933,-2.8354,-2.8445,-2.8642,-2.9117,-2.9209,-2.9382,-2.9566,-2.891,-2.8456,-2.856,-2.8932,-2.9566,-3.0487,-3.0578,-3.0758,-3.1306,-3.1395,-3.1316,-3.112,-3.111,-3.1186,-3.1011,-3.1162,-3.129,-3.1304,-3.1399,-3.1323,-3.1373,-3.1361,-3.1449,-3.1662,-3.1712,-3.1712,-1.0143,0.0,-1.1896,-1.3088,0.0,-1.5464,-1.6205,-1.673,-1.7364,-1.7589,-1.7589,-1.7589,-1.7589,-1.7589,-1.7589,-1.7589,-1.7589,-1.7589,-1.7694,-1.8016,-1.8318,-1.8624,-1.9056,-1.9887,-2.0395,-2.0704,-2.1827,-2.2535,-2.2929,-2.3529,-2.4125,-2.4735,-2.4626,-2.4726,-2.4996,-2.4592,-2.4183,-2.3994,-2.4089,-2.4076,-2.3948,-2.3919,-2.3716,-2.3496,0.0,0.0,0.0,0.0,0.0,0.0,0.0,0.0,0.0,0.0,0.0,-2.4529,-2.5189,-2.5863,-2.6599,-2.7196,-2.7765,-2.8223,-2.8645,-2.8749,-2.8522,-2.8669,-2.8895,-2.904,-2.9209,-2.9275,-2.9275,-2.9378,-2.9378,-2.9106,-2.9106,-2.8858,-2.8383,-2.8303,-2.829,-2.8353,-2.854,-2.8813,-2.9015,-2.934,-2.9646,-3.0125,-3.0216,-3.0374,-3.0758,-3.0114,-2.9566,-2.976,-3.0034,-3.0476,-3.1193,-3.1472,-3.144,-3.161,-3.1612,-3.1393,-3.1004,-3.1087,-3.107,-3.0798,-3.0754,-3.0798,-3.0658,-3.0595,-3.0595,-3.0608,-3.0608,-3.0608,-3.0633,-3.1009,-3.1386,-1.0143,-1.0798,-1.1896,-1.3083,-1.4277,-1.5458,-1.6311,-1.6942,0.0,0.0,0.0,-1.7589,-1.7589,-1.7589,-1.7589,-1.7589,-1.7589,-1.7589,-1.7799,-1.8128,-1.8624,-1.9042,-1.9591,-2.0514,-2.1232,-2.1522,-2.2627,-2.3294,-2.3628,-2.4221,-2.4683,-2.4986,-2.4765,-2.4743,-2.4824,-2.4482,-2.4166,-2.3823,-2.3881,-2.3919,-2.3691,-2.3682,-2.3506,-2.3144,-2.3144,-2.3144,-2.3144,-2.3144,-2.3144,-2.3144,-2.3144,-2.3232,-2.3503,-2.3947,-2.4454,-2.4956,-2.5779,-2.661,-2.7255,-2.7926,-2.8407,-2.8882,-2.9131,-2.9209,-2.9131,-2.9118,-2.9131,-2.9209,-2.9365,-2.9509,-2.9509,-2.9702,-2.9702,-2.9509,-2.9509,-2.9341,-2.8949,-2.887,-2.8851,-2.881,-2.9177,-2.9444,-2.9514,-2.9819,-3.031,-3.0655,-3.0673,-3.0932,-3.1321,-3.0885,-3.0566,-3.0937,-3.0932,-3.1128,-3.1731,-3.1784,-3.1724,-3.1466,-3.1489,-3.1292,-3.086,-3.0865,-3.0723,-3.0294,-3.0298,-3.0294,-2.9905,-2.9867,-2.9779,-2.9779,-2.9779,-2.9779,-2.9854,-3.0482,-3.1035,-1.0143,-1.0802,-1.1896,-1.3088,-1.4277,-1.5458,-1.6524,-1.7477,-1.7582,-1.7589,-1.7589,-1.7589,-1.7589,-1.7589,-1.7589,-1.7589,-1.7589,-1.7589,-1.7898,0.0,-1.8624,-1.9354,-2.0315,-2.1224,-2.1818,-2.2426,-2.342,-2.3754,-2.3666,-2.4315,-2.4507,-2.4256,-2.4355,-2.4336,-2.3994,-2.3906,-2.3691,-2.3252,-2.3602,-2.3662,-2.3242,-2.3223,-2.3213,-2.3144,-2.3144,-2.3144,-2.3144,-2.3144,-2.3144,-2.3144,-2.3144,-2.3222,-2.3503,-2.3937,-2.454,-2.5105,-2.5946,-2.6846,-2.7649,-2.8167,-2.8736,-2.9275,-2.9534,-2.9611,-2.9341,-2.9353,-2.9431,-2.9702,-2.9702,-2.9702,-2.9779,-2.9792,-2.9792,-2.9702,-2.9702,-2.9624,-2.9353,-2.9341,-2.9303,-2.9359,-2.9516,-2.9699,-2.9821,-3.0012,-3.0216,-3.0435,-3.0652,-3.0628,-3.0955,-3.1269,-3.1589,-3.1753,-3.1438,-3.1455,-3.1711,-3.1509,-3.1369,-3.1442,-3.1417,-3.1173,-3.0661,-3.0641,-3.0465,-2.9939,-2.9967,-2.9905,-2.9779,-2.9779,-2.9779,-2.9779,-2.9779,-2.9779,-2.9779,-2.9993,-3.0093,-0.9926,-1.0586,-1.1568,-1.2654,-1.3851,-1.5464,-1.6636,-1.7378,-1.7582,-1.7589,-1.7589,-1.7589,-1.7589,-1.7569,-1.7415,-1.7348,-1.7341,-1.7181,-1.7415,-1.7918,-1.8325,-1.9041,-1.9953,-2.0941,-2.1624,-2.2114,-2.3184,-2.3669,-2.3701,-2.4258,-2.4433,-2.422,-2.4108,-2.3867,-2.3457,-2.3437,-2.334,-2.3144,-2.334,-2.334,-2.3144,-2.3144,-2.3144,-2.3144,-2.3144,-2.3144,-2.3144,-2.3144,-2.3144,-2.3144,-2.3232,-2.3503,-2.3861,-2.4444,-2.5115,-2.5863,-2.661,-2.7418,-2.8303,-2.8895,-2.93,-2.9611,-2.9702,-2.9779,-2.9611,-2.9599,-2.9702,-2.9779,-2.9779,-2.9779,-2.9779,-2.9779,-2.9779,-2.9779,-2.9779,-2.9792,-2.9611,-2.9611,-2.9555,-2.9554,-2.977,-2.9959,-2.9934,-3.0214,-3.0479,-3.0753,-3.0836,-3.0989,-3.1058,-3.1302,-3.1551,-3.1538,-3.1282,-3.1326,-3.1514,-3.1422,-3.1217,-3.1035,-3.0972,-3.0746,-3.0294,-3.0168,-3.0068,-2.9854,-2.9779,-2.9779,-2.9779,-2.9779,-2.9779,-2.9779,-2.9779,-2.9779,-2.9779,-2.9779,-2.9779,-0.971,-1.0363,-1.124,-1.2413,-1.3777,-1.5488,-1.6523,-1.6984,-1.7277,-1.7382,-1.7395,-1.7448,-1.7488,-1.7455,-1.7181,-1.7054,-1.7021,-1.6814,-1.7007,-1.7505,-1.7995,-1.8686,-1.9576,-2.0451,-2.1213,-2.1882,-2.2829,-2.3345,-2.3549,-2.3992,-2.4219,-2.4102,-2.3799,-2.3477,-2.3144,-2.3144,-2.3144,-2.3144,-2.3144,-2.3144,-2.3144,-2.3144,-2.3144,-2.3144,-2.3144,-2.3144,-2.3144,-2.3144,-2.3144,-2.3144,-2.3319,-2.3677,-2.4196,-2.4871,-2.5611,-2.6445,-2.7185,-2.7995,-2.887,-2.9456,-2.9779,-2.9779,-2.9779,-2.9779,-2.9779,-2.9779,-2.9779,-2.9779,-2.9779,-2.9779,-2.9779,-2.9779,-2.9779,-2.9779,-2.9779,-2.9792,-2.9779,-2.9779,-2.9702,-2.9559,-2.9882,-3.0052,-2.9992,-3.0207,-3.0486,-3.0648,-3.0954,-3.1035,-3.1035,-3.1035,-3.0966,-3.091,-3.0904,-3.0979,-3.121,-3.1072,-3.0846,-3.047,-3.0432,-3.0256,-2.993,-2.9804,-2.9792,-2.9779,-2.9779,-2.9779,-2.9779,-2.9779,-2.9779,-2.9779,-2.9779,-2.9779,-2.9779,-2.9779,-2.9779,-0.971,-1.0366,-1.1236,-1.2749,-1.4477,-1.5535,-1.6034,-1.6436,-1.67,-1.678,-1.684,-1.7068,-1.7284,-1.7154,-1.6881,-1.6747,-1.674,-1.6714,-1.6987,-1.7477,-1.7789,-1.8489,-1.9447,-2.0321,-2.1109,-2.1856,-2.2784,-2.314,-2.3123,-2.3567,-2.3652,-2.3301,-2.3213,-2.3193,-2.3144,-2.3144,-2.3144,-2.3144,-2.3144,-2.3144,-2.3144,-2.3144,-2.3144,-2.3144,-2.3144,-2.3144,-2.3144,-2.3144,-2.3144,-2.3144,-2.3319,-2.3677,-2.4196,-2.4861,-2.5611,-2.6434,-2.7336,-2.8211,-2.925,-2.9611,-2.9779,-2.9779,-2.9779,-2.9779,-2.9779,-2.9779,-2.9779,-2.9779,-2.9779,-2.9779,-2.9779,-2.9779,-2.9779,-2.9779,-2.9779,-2.9779,-2.9779,-2.9779,-2.9792,-2.9779,-2.9789,-2.9777,-2.9864,-2.9861,-2.9927,-3.0027,-3.0143,-3.0131,-3.0118,-3.0118,-3.0105,-3.0118,-3.0278,-3.0578,-3.0633,-3.0244,-3.008,-2.993,-2.988,-2.9854,-2.9804,-2.9779,-2.9779,-2.9779,-2.9779,-2.9779,-2.9779,-2.9779,-2.9779,-2.9779,-2.9779,-2.9779,-2.9779,-2.9729,-2.9716,-0.9489,-1.0025,-1.0466,-1.17,-1.3517,-1.4539,-1.5299,-1.5809,-1.6319,-1.6513,-1.6693,-1.666,-1.672,-1.6867,-1.658,-1.6453,-1.644,-1.6273,-1.6477,-1.6959,-1.7255,-1.7927,-1.8957,-1.9711,-2.045,-2.1208,-2.2126,-2.2597,-2.2716,-2.3133,-2.331,-2.3164,-2.3144,-2.3144,-2.3144,-2.3144,-2.3144,-2.3144,-2.3144,-2.3144,-2.3144,-2.3144,-2.3144,-2.3144,-2.3144,-2.3144,-2.3144,-2.3144,-2.3144,-2.3144,-2.3484,-2.3927,-2.4348,-2.5115,-2.5957,-2.6857,-2.7995,-2.8791,-2.9341,-2.9611,-2.9779,-2.9779,-2.9779,-2.9779,-2.9779,-2.9779,-2.9779,-2.9779,-2.9779,-2.9779,-2.9779,-2.9779,-2.9779,-2.9779,-2.9779,-2.9779,-2.9779,-2.9779,-2.9779,-2.9779,-2.9779,-2.9779,-2.9779,-2.9779,-2.9779,-2.9779,-2.9779,-2.9779,-2.9779,-2.9779,-2.9779,-2.9817,-3.0005,-3.0105,-3.0118,-2.9967,-2.9804,-2.9779,-2.9779,-2.9779,-2.9779,-2.9779,-2.9779,-2.9779,-2.9779,-2.9779,-2.9779,-2.9779,-2.9779,-2.9729,-2.9741,-2.9704,-2.9365,-2.9277,-2.9176,-0.924,-0.9618,-1.0103,-1.1185,-1.2659,-1.3774,-1.4542,-1.5177,-1.578,-1.617,-1.6348,-1.6246,-1.6266,-1.6413,-1.6239,-1.6146,-1.6126,-1.5925,-1.6021,-1.6494,-1.6784,-1.7434,-1.8265,-1.9004,-1.9828,-2.0654,-2.1571,-2.2185,-2.2618,-2.296,-2.3144,-2.3144,-2.3144,-2.3144,-2.3144,-2.3144,-2.3144,-2.3144,-2.3144,-2.3144,-2.3144,-2.3144,-2.3144,-2.3144,-2.3144,-2.3144,-2.3144,-2.3144,-2.3144,-2.3232,-2.3667,-2.4176,-2.468,-2.5538,-2.6539,-2.7592,-2.8633,-2.9275,-2.9509,-2.9702,-2.9779,-2.9779,-2.9779,-2.9779,-2.9779,-2.9779,-2.9779,-2.9779,-2.9779,-2.9779,-2.9779,-2.9779,-2.9779,-2.9779,-2.9779,-2.9779,-2.9779,-2.9779,-2.9779,-2.9779,-2.9779,-2.9779,-2.9779,-2.9779,-2.9779,-2.9779,-2.9779,-2.9779,-2.9779,-2.9779,-2.9779,-2.9779,-2.9792,-2.9804,-2.9779,-2.9792,-2.9779,-2.9779,-2.9779,-2.9779,-2.9779,-2.9779,-2.9779,-2.9779,-2.9779,-2.9641,-2.9363,-2.9465,-2.9326,-2.9352,-2.9327,-2.9214,-2.8787,-2.8712,-2.8549,-0.9074,-0.9348,-1.0456,-1.1396,-1.2414,-1.3424,-1.4085,-1.4383,-1.523,-1.5504,-1.5625,-1.5783,-1.5865,-1.5899,-1.5885,-1.5852,-1.5852,-1.5845,-1.5927,-1.6218,-1.6494,-1.6965,-1.7714,-1.8465,-1.9371,-2.0382,-2.1284,-2.2176,-2.296,-2.3047,-2.3144,-2.3144,-2.3144,-2.3144,-2.3144,-2.3144,-2.3144,-2.3144,-2.3144,-2.3144,-2.3144,-2.3144,-2.3144,-2.3144,-2.3144,-2.3144,-2.3144,-2.3144,-2.3232,-2.3503,-2.3937,-2.4444,-2.5105,-2.603,-2.7185,-2.8474,-2.9094,-2.9484,-2.9664,-2.9716,-2.9691,-2.9729,-2.9654,-2.9729,-2.9616,-2.9628,-2.9628,-2.9741,-2.9641,-2.9666,-2.9679,-2.9729,-2.9779,-2.9779,-2.9779,-2.9779,-2.9779,-2.9779,-2.9779,-2.9779,-2.9779,-2.9779,-2.9779,-2.9779,-2.9779,-2.9779,-2.9779,-2.9779,-2.9779,-2.9779,-2.9779,-2.9779,-2.9779,-2.9779,-2.9767,-2.9779,-2.9779,-2.9779,-2.9779,-2.9741,-2.9767,-2.9779,-2.9754,-2.9704,-2.9668,-2.9377,-2.8975,-2.865,-2.8475,-2.8375,-2.8473,-2.831,-2.8197,-2.816,-2.7984,-0.8966,-0.915,-1.001,-1.0685,-1.1411,-1.2294,-1.3121,-1.3806,-1.4682,-1.5166,-1.554,-1.5737,-1.5825,-1.5825,-1.5825,-1.5825,-1.5825,-1.5825,-1.5927,-1.6224,-1.6501,-1.6965,-1.7721,-1.8465,-1.9279,-2.0292,-2.1284,-2.2176,-2.3057,-2.3144,-2.3144,-2.3144,-2.3144,-2.3144,-2.3144,-2.3144,-2.3144,-2.3144,-2.3144,-2.3144,-2.3144,-2.3144,-2.3144,-2.3144,-2.3144,-2.3144,-2.3144,-2.3144,-2.3232,-2.3493,-2.3937,-2.454,-2.5274,-2.6599,-2.773,-2.8676,-2.8864,-2.8986,-2.9113,-2.89,-2.8712,-2.8712,-2.8712,-2.875,-2.8712,-2.8712,-2.8712,-2.8737,-2.8725,-2.8712,-2.8863,-2.934,-2.9779,-2.9779,-2.9779,-2.9767,-2.9779,-2.9779,-2.9779,-2.9779,-2.9779,-2.9779,-2.9779,-2.9779,-2.9779,-2.9779,-2.9779,-2.9754,-2.9779,-2.9779,-2.9716,-2.9767,-2.9779,-2.9654,-2.9239,-2.9591,-2.9779,-2.9779,-2.9741,-2.949,-2.9415,-2.9277,-2.9202,-2.8913,-2.9001,-2.8912,-2.8349,-2.8174,-2.79,-2.7974,-2.7959,-2.7733,-2.7657,-2.7595,-2.7465,-0.8765,-0.8987,-0.9423,-1.0033,-1.0712,-1.159,-1.2559,-1.3426,-1.4298,-1.4975,-1.5356,-1.5635,-1.5825,-1.5825,-1.5825,-1.5825,-1.5825,-1.5825,-1.5927,-1.6218,-1.6595,-1.716,-1.79,-1.8643,-1.9546,-2.0546,-2.1553,-2.2441,-2.3047,-2.3144,-2.3144,-2.3144,-2.3144,-2.3144,-2.3144,-2.3144,-2.3144,-2.3144,-2.3144,-2.3144,-2.3144,-2.3144,-2.3066,-2.2959,-2.2939,-2.3008,-2.3125,-2.3144,-2.3327,-2.3574,-2.3972,-2.4661,-2.5497,-2.6828,-2.7801,-2.8309,-2.841,-2.8512,-2.855,-2.831,-2.8122,-2.8109,-2.8122,-2.8109,-2.8109,-2.8109,-2.8109,-2.8109,-2.8109,-2.8109,-2.8247,-2.88,-2.9302,-2.9453,-2.9515,-2.9603,-2.9754,-2.9779,-2.9779,-2.9779,-2.9779,-2.9779,-2.9779,-2.9779,-2.9691,-2.9566,-2.9515,-2.9478,-2.9289,-2.9252,-2.9252,-2.9252,-2.9164,-2.9001,-2.875,-2.8888,-2.9013,-2.9038,-2.9164,-2.9001,-2.8875,-2.8737,-2.8549,-2.8235,-2.8059,-2.7984,-2.7858,-2.7695,-2.7632,-2.7632,-2.7431,-2.7168,-2.7092,-2.7017,-2.7044,-0.848,-0.8744,-0.9107,-0.9636,-1.0511,-1.1492,-1.237,-1.3244,-1.4208,-1.4885,-1.5178,-1.5547,-1.5825,-1.5825,-1.5825,-1.5825,-1.5825,-1.5825,-1.5933,-1.6218,-1.6697,-1.7347,-1.8079,-1.9096,-2.0093,-2.1087,-2.2167,-2.2882,-2.3057,-2.3144,-2.3144,-2.3144,-2.3144,-2.3144,-2.3144,-2.3144,-2.3125,-2.3086,-2.3066,-2.3076,-2.3125,-2.3037,-2.2852,-2.2549,-2.251,-2.2676,-2.3047,-2.324,-2.3388,-2.3563,-2.4013,-2.4912,-2.5865,-2.6804,-2.7346,-2.7643,-2.7927,-2.8024,-2.8097,-2.8034,-2.7908,-2.7908,-2.8021,-2.7908,-2.7883,-2.7921,-2.7934,-2.7908,-2.7934,-2.7984,-2.7971,-2.8047,-2.8335,-2.8812,-2.8925,-2.9139,-2.9515,-2.9716,-2.9741,-2.9654,-2.9603,-2.9729,-2.9741,-2.9591,-2.9377,-2.9038,-2.8925,-2.88,-2.8461,-2.8398,-2.8222,-2.8222,-2.8373,-2.8411,-2.8247,-2.8109,-2.8097,-2.8122,-2.8273,-2.8298,-2.8222,-2.8097,-2.7971,-2.7708,-2.7485,-2.7398,-2.7172,-2.6997,-2.6904,-2.6854,-2.6747,-2.6798,-2.6785,-2.676,-2.6822,-0.8411,-0.8507,-0.8851,-0.9422,-1.0216,-1.1096,-1.198,-1.2953,-1.4016,-1.4688,-1.5172,-1.5547,-1.5825,-1.5825,-1.5825,-1.5818,-1.5825,-1.5825,-1.5927,-1.6204,-1.6784,-1.7441,-1.8172,-1.9188,-2.0374,-2.1642,-2.2441,-2.2882,-2.3047,-2.3135,-2.3144,-2.3144,-2.3125,-2.3144,-2.3105,-2.3135,-2.3018,-2.2744,-2.2705,-2.2578,-2.2314,-2.2285,-2.2217,-2.21,-2.209,-2.2242,-2.2424,-2.2527,-2.2792,-2.3217,-2.3717,-2.4585,-2.5847,-2.6749,-2.7285,-2.7484,-2.7516,-2.7532,-2.7494,-2.7193,-2.7017,-2.6992,-2.6992,-2.6967,-2.6967,-2.7005,-2.7005,-2.7005,-2.6967,-2.6967,-2.6979,-2.6979,-2.7394,-2.826,-2.836,-2.8436,-2.8674,-2.8699,-2.8637,-2.8637,-2.8637,-2.8624,-2.8649,-2.8674,-2.8637,-2.8436,-2.836,-2.8247,-2.8122,-2.7984,-2.8122,-2.8122,-2.8084,-2.7846,-2.7657,-2.7507,-2.7457,-2.7507,-2.762,-2.7682,-2.7595,-2.7519,-2.7381,-2.7256,-2.7034,-2.6884,-2.6564,-2.6496,-2.649,-2.6521,-2.6609,-2.6609,-2.6559,-2.6602,-2.6726,-0.8227,-0.834,-0.8627,-0.9221,-0.9924,-1.0801,-1.1785,-1.2856,-1.3913,-1.4536,-1.4943,-1.5389,-1.5598,-1.5524,-1.5511,-1.5511,-1.5504,-1.5504,-1.5697,-1.6123,-1.6807,-1.752,-1.8458,-1.9646,-2.0916,-2.1998,-2.2627,-2.2804,-2.291,-2.29,-2.2832,-2.2705,-2.2676,-2.2656,-2.2666,-2.2666,-2.2529,-2.2305,-2.2275,-2.2148,-2.1953,-2.1894,-2.1807,-2.167,-2.1641,-2.1725,-2.1829,-2.188,-2.2271,-2.306,-2.3684,-2.4653,-2.5718,-2.6444,-2.6918,-2.7001,-2.6993,-2.6967,-2.6942,-2.6773,-2.6521,-2.6521,-2.6521,-2.6533,-2.6533,-2.6521,-2.6521,-2.6521,-2.6559,-2.6521,-2.6533,-2.6533,-2.6804,-2.7394,-2.7682,-2.7883,-2.8034,-2.8109,-2.8134,-2.8172,-2.816,-2.8109,-2.8109,-2.8109,-2.8009,-2.7883,-2.7808,-2.7657,-2.7582,-2.7457,-2.7519,-2.7519,-2.7369,-2.7168,-2.703,-2.6917,-2.6829,-2.6917,-2.7042,-2.7055,-2.7017,-2.6979,-2.6892,-2.6816,-2.6691,-2.6716,-2.6527,-2.6502,-2.6521,-2.6521,-2.6521,-2.6521,-2.6602,-2.6658,-2.6794,-0.8041,-0.8038,-0.8528,-0.9126,-0.9727,-1.0703,-1.1765,-1.2823,-1.3776,-1.4395,-1.4676,-1.5101,-1.5244,-1.503,-1.5057,-1.5064,-1.5073,-1.5037,-1.5327,-1.5889,-1.674,-1.7642,-1.8827,-2.0274,-2.1344,-2.2164,-2.2543,-2.2553,-2.25,-2.2471,-2.2285,-2.2031,-2.2021,-2.1914,-2.2012,-2.1914,-2.1943,-2.1865,-2.1846,-2.1826,-2.1738,-2.1748,-2.1582,-2.1221,-2.1191,-2.1283,-2.1406,-2.1732,-2.223,-2.3011,-2.4107,-2.4811,-2.5372,-2.584,-2.6255,-2.635,-2.6433,-2.6515,-2.6546,-2.6559,-2.6521,-2.6521,-2.6521,-2.6521,-2.6521,-2.6521,-2.6521,-2.6521,-2.6521,-2.6521,-2.6521,-2.6521,-2.6515,-2.6609,-2.6992,-2.7419,-2.7896,-2.7934,-2.7821,-2.7883,-2.7996,-2.7984,-2.7858,-2.7871,-2.7657,-2.7394,-2.7243,-2.7042,-2.6886,-2.6741,-2.6622,-2.6603,-2.6791,-2.6766,-2.6716,-2.6703,-2.6628,-2.6666,-2.6741,-2.6703,-2.6666,-2.671,-2.6672,-2.6584,-2.6521,-2.6521,-2.6521,-2.6521,-2.6521,-2.6589,-2.6589,-2.6602,-2.6726,-2.6863,-2.7053,-0.8038,-0.8038,-0.8528,-0.9126,-0.9723,-1.0703,-1.1686,-1.2612,-1.3543,-1.4142,-1.4383,-1.4896,-1.503,-1.5053,-1.495,-1.506,-1.5019,-1.4937,-1.5232,-1.5686,-1.6335,-1.7598,-1.8929,-1.9999,-2.0869,-2.1551,-2.1844,-2.1878,-2.206,-2.2051,-2.1973,-2.1904,-2.1816,-2.1855,-2.1894,-2.1836,-2.1699,-2.1455,-2.1406,-2.124,-2.0986,-2.0957,-2.0869,-2.0781,-2.0928,-2.1113,-2.1512,-2.2478,-2.3108,-2.3453,-2.4235,-2.4862,-2.5312,-2.5898,-2.6201,-2.627,-2.6396,-2.6521,-2.6521,-2.6521,-2.6521,-2.6521,-2.6521,-2.6521,-2.6521,-2.6521,-2.6521,-2.6521,-2.6521,-2.6521,-2.6521,-2.6521,-2.6521,-2.6546,-2.664,-2.6861,-2.6904,-2.6892,-2.6892,-2.6892,-2.6954,-2.6979,-2.7005,-2.6979,-2.6917,-2.6766,-2.6716,-2.6691,-2.6584,-2.6521,-2.6521,-2.6521,-2.6553,-2.6584,-2.6546,-2.6546,-2.6546,-2.6559,-2.6596,-2.6622,-2.6596,-2.6584,-2.6571,-2.6521,-2.6521,-2.6521,-2.6521,-2.6589,-2.6589,-2.6589,-2.6739,-2.6807,-2.7066,-2.7268,-2.7523,-0.8038,-0.8035,-0.8561,-0.9022,-0.9596,-1.0491,-1.1427,-1.2269,-1.3182,-1.3768,-1.4091,-1.4415,-1.4621,-1.4596,-1.4589,-1.4589,-1.4596,-1.4596,-1.4844,-1.5359,-1.613,-1.7493,-1.8999,-1.9853,-2.0521,-2.1182,-2.1422,-2.1511,-2.1559,-2.1611,-2.1514,-2.1328,-2.1328,-2.1338,-2.1289,-2.1318,-2.123,-2.0996,-2.0947,-2.081,-2.0586,-2.0576,-2.0576,-2.0654,-2.0819,-2.1138,-2.1959,-2.3001,-2.3666,-2.4043,-2.4659,-2.5229,-2.5523,-2.605,-2.6327,-2.6339,-2.6465,-2.6521,-2.6521,-2.6521,-2.6521,-2.6521,-2.6521,-2.6521,-2.6521,-2.6521,-2.6521,-2.6521,-2.6521,-2.6521,-2.6521,-2.6521,-2.6521,-2.6533,-2.6521,-2.6521,-2.6521,-2.6571,-2.6533,-2.6521,-2.6521,-2.6521,-2.6521,-2.6521,-2.6521,-2.6533,-2.6571,-2.6559,-2.6521,-2.6521,-2.6521,-2.6521,-2.6521,-2.6521,-2.6521,-2.6521,-2.6521,-2.6521,-2.6521,-2.6521,-2.6521,-2.6521,-2.6521,-2.6521,-2.6521,-2.6521,-2.6521,-2.6589,-2.6658,-2.6739,-2.6888,-2.7146,-2.7335,-2.7656,-2.7973,-0.7994,-0.798,-0.8337,-0.8852,-0.9299,-1.0193,-1.1051,-1.1919,-1.2746,-1.332,-1.3724,-1.4028,-1.419,-1.4088,-1.4195,-1.4115,-1.4122,-1.4182,-1.448,-1.5077,-1.6027,-1.7422,-1.871,-1.9587,-2.0255,-2.0926,-2.1215,-2.124,-2.116,-2.1162,-2.0977,-2.0791,-2.0664,-2.0605,-2.0732,-2.0654,-2.0586,-2.0635,-2.0644,-2.0635,-2.0576,-2.0576,-2.0644,-2.0731,-2.1118,-2.1665,-2.2478,-2.3298,-2.397,-2.4562,-2.5182,-2.5606,-2.5898,-2.6327,-2.6465,-2.6452,-2.6452,-2.6521,-2.6521,-2.6521,-2.6521,-2.6521,-2.6521,-2.6521,-2.6521,-2.6521,-2.6521,-2.6521,-2.6521,-2.6521,-2.6521,-2.6521,-2.6521,-2.6521,-2.6521,-2.6521,-2.6521,-2.6521,-2.6521,-2.6521,-2.6521,-2.6521,-2.6521,-2.6521,-2.6521,-2.6521,-2.6521,-2.6521,-2.6521,-2.6521,-2.6521,-2.6521,-2.6521,-2.6521,-2.6521,-2.6521,-2.6521,-2.6521,-2.6521,-2.6521,-2.6521,-2.6521,-2.6521,-2.6521,-2.6521,-2.6521,-2.6589,-2.6658,-2.6726,-2.693,-2.7134,-2.7335,-2.759,-2.7908,-2.8222,-0.7692,-0.7692,-0.8033,-0.8393,-0.8945,-0.9664,-1.048,-1.1325,-1.2221,-1.2879,-1.328,-1.3664,-1.3887,-1.4088,-1.4088,-1.4088,-1.4088,-1.4173,-1.4419,-1.5082,-1.5839,-1.6794,-1.7895,-1.883,-1.9613,-2.0184,-2.0474,-2.0653,-2.0742,-2.0762,-2.0674,-2.0605,-2.0576,-2.0576,-2.0576,-2.0576,-2.0576,-2.0576,-2.0576,-2.0566,-2.0644,-2.0654,-2.0731,-2.0886,-2.1578,-2.2402,-2.3075,-2.3897,-2.4478,-2.4886,-2.5312,-2.5828,-2.605,-2.6327,-2.6452,-2.6521,-2.6521,-2.6521,-2.6521,-2.6521,-2.6521,-2.6521,-2.6521,-2.6521,-2.6521,-2.6521,-2.6521,-2.6521,-2.6521,-2.6521,-2.6521,-2.6521,-2.6521,-2.6521,-2.6521,-2.6521,-2.6521,-2.6521,-2.6521,-2.6521,-2.6521,-2.6521,-2.6521,-2.6521,-2.6521,-2.6521,-2.6521,-2.6521,-2.6521,-2.6521,-2.6521,-2.6521,-2.6521,-2.6521,-2.6521,-2.6521,-2.6521,-2.6521,-2.6521,-2.6521,-2.6521,-2.6521,-2.6521,-2.6521,-2.6521,-2.6521,-2.6589,-2.6807,-2.6943,-2.7201,-2.7456,-2.7723,-2.7987,-2.83,-2.8624,-0.7597,-0.759,-0.7798,-0.8133,-0.867,-0.9332,-1.0041,-1.0833,-1.1701,-1.2498,-1.3076,-1.3392,-1.3743,-1.4088,-1.4088,-1.4088,-1.4082,-1.4243,-1.458,-1.5166,-1.5839,-1.6582,-1.7465,-1.8353,-1.9152,-1.9706,-2.0127,-2.042,-2.0566,-2.0576,-2.0586,-2.0576,-2.0576,-2.0576,-2.0576,-2.0576,-2.0576,-2.0576,-2.0566,-2.0644,-2.0731,-2.0741,-2.1041,-2.1425,-2.2176,-2.2852,-2.353,-2.4238,-2.4814,-2.5241,-2.5676,-2.598,-2.6201,-2.6396,-2.6452,-2.6521,-2.6521,-2.6521,-2.6521,-2.6521,-2.6521,-2.6521,-2.6521,-2.6521,-2.6521,-2.6521,-2.6521,-2.6521,-2.6521,-2.6521,-2.6521,-2.6521,-2.6521,-2.6521,-2.6521,-2.6521,-2.6521,-2.6521,-2.6521,-2.6521,-2.6521,-2.6521,-2.6521,-2.6521,-2.6521,-2.6521,-2.6521,-2.6521,-2.6521,-2.6521,-2.6521,-2.6521,-2.6521,-2.6521,-2.6521,-2.6521,-2.6521,-2.6521,-2.6521,-2.6521,-2.6521,-2.6521,-2.6521,-2.6521,-2.6521,-2.6589,-2.6658,-2.6875,-2.7146,-2.7403,-2.7669,-2.8131,-2.8444,-2.8753,-2.9008,-0.7533,-0.7519,-0.7566,-0.7876,-0.8399,-0.8987,-0.9712,-1.0559,-1.1327,-1.2209,-1.2966,-1.3307,-1.3652,-1.3997,-1.4088,-1.4088,-1.4166,-1.4321,-1.4657,-1.5166,-1.5756,-1.6582,-1.7465,-1.8264,-1.9063,-1.9557,-2.0108,-2.042,-2.0566,-2.0576,-2.0576,-2.0576,-2.0576,-2.0576,-2.0576,-2.0576,-2.0576,-2.0576,-2.0566,-2.0654,-2.0819,-2.0906,-2.1349,-2.2101,-2.2703,-2.3298,-2.3959,-2.4527,-2.5087,-2.5618,-2.598,-2.6201,-2.627,-2.6396,-2.6521,-2.6521,-2.6521,-2.6521,-2.6521,-2.6521,-2.6521,-2.6521,-2.6521,-2.6521,-2.6521,-2.6521,-2.6521,-2.6521,-2.6521,-2.6521,-2.6521,-2.6521,-2.6521,-2.6521,-2.6521,-2.6521,-2.6521,-2.6521,-2.6521,-2.6521,-2.6521,-2.6521,-2.6521,-2.6521,-2.6521,-2.6521,-2.6521,-2.6521,-2.6521,-2.6521,-2.6521,-2.6521,-2.6521,-2.6521,-2.6521,-2.6589,-2.6589,-2.6589,-2.6521,-2.6589,-2.6589,-2.6671,-2.6671,-2.6602,-2.6602,-2.6658,-2.6863,-2.7079,-2.7348,-2.7603,-2.7987,-2.8444,-2.8817,-2.9135,-2.9463,-0.7217,-0.721,-0.719,-0.7535,-0.7978,-0.8476,-0.9248,-1.012,-1.0982,-1.1837,-1.2705,-1.3222,-1.3652,-1.3997,-1.4088,-1.4088,-1.4166,-1.4321,-1.4657,-1.5082,-1.5756,-1.6492,-1.7302,-1.8184,-1.8993,-1.9557,-2.0039,-2.0342,-2.0566,-2.0576,-2.0576,-2.0576,-2.0576,-2.0576,-2.0576,-2.0576,-2.0576,-2.0576,-2.0566,-2.0731,-2.0896,-2.1205,-2.1731,-2.2553,-2.3224,-2.3897,-2.4394,-2.4886,-2.5382,-2.5828,-2.605,-2.6258,-2.6396,-2.6452,-2.6521,-2.6521,-2.6521,-2.6521,-2.6521,-2.6521,-2.6521,-2.6521,-2.6521,-2.6521,-2.6521,-2.6521,-2.6521,-2.6521,-2.6521,-2.6521,-2.6521,-2.6521,-2.6533,-2.6533,-2.6521,-2.6521,-2.6521,-2.6521,-2.6521,-2.6521,-2.6521,-2.6521,-2.6521,-2.6521,-2.6521,-2.6521,-2.6521,-2.6521,-2.6521,-2.6521,-2.6521,-2.6521,-2.6521,-2.6521,-2.6521,-2.6589,-2.6658,-2.6726,-2.6739,-2.6875,-2.6875,-2.6888,-2.6888,-2.6863,-2.6863,-2.693,-2.7134,-2.7335,-2.7669,-2.8066,-2.8444,-2.8817,-2.9198,-2.9588,-3.0007,-0.7139,-0.7139,-0.7139,-0.7319,-0.7768,-0.8201,-0.8903,-0.9689,-1.0549,-1.1494,-1.2272,-1.296,-1.3483,-1.3828,-1.4088,-1.4088,-1.4166,-1.4159,-1.4496,-1.4908,-1.5492,-1.6237,-1.7057,-1.7942,-1.8754,-1.939,-1.9863,-2.0342,-2.0566,-2.0576,-2.0576,-2.0576,-2.0576,-2.0576,-2.0576,-2.0576,-2.0576,-2.0576,-2.0644,-2.0722,-2.1128,-2.1578,-2.2402,-2.3075,-2.374,-2.4322,-2.4886,-2.5241,-2.5606,-2.598,-2.627,-2.6408,-2.6465,-2.6521,-2.6521,-2.6521,-2.6521,-2.6521,-2.6521,-2.6521,-2.6521,-2.6521,-2.6521,-2.6521,-2.6521,-2.6521,-2.6521,-2.6521,-2.6521,-2.6521,-2.6521,-2.6589,-2.6589,-2.6589,-2.6658,-2.6739,-2.6739,-2.6658,-2.6658,-2.6589,-2.6521,-2.6521,-2.6521,-2.6521,-2.6521,-2.6521,-2.6521,-2.6521,-2.6521,-2.6521,-2.6521,-2.6521,-2.6521,-2.6521,-2.6589,-2.6726,-2.6863,-2.6863,-2.7011,-2.7146,-2.7214,-2.7201,-2.7335,-2.739,-2.7323,-2.7323,-2.7456,-2.7723,-2.8118,-2.8509,-2.8881,-2.9184,-2.9588,-2.996,-3.0387,-0.7139,-0.7139,-0.7139,-0.7231,-0.7503,-0.8028,-0.8644,-0.9345,-1.0202,-1.1149,-1.2015,-1.2796,-1.3313,-1.3652,-1.3997,-1.4088,-1.4088,-1.4166,-1.4405,-1.4908,-1.5409,-1.6064,-1.6886,-1.77,-1.8585,-1.939,-1.9863,-2.0186,-2.0489,-2.0576,-2.0576,-2.0576,-2.0576,-2.0576,-2.0576,-2.0576,-2.0576,-2.0566,-2.0644,-2.0886,-2.1502,-2.2252,-2.3075,-2.3666,-2.4116,-2.4683,-2.5241,-2.5606,-2.5898,-2.6188,-2.6396,-2.6452,-2.6521,-2.6521,-2.6521,-2.6521,-2.6521,-2.6521,-2.6521,-2.6521,-2.6521,-2.6521,-2.6521,-2.6521,-2.6521,-2.6521,-2.6521,-2.6521,-2.6521,-2.6521,-2.6589,-2.6658,-2.6726,-2.6794,-2.6875,-2.7024,-2.6943,-2.6875,-2.6807,-2.6739,-2.6671,-2.6602,-2.6589,-2.6521,-2.6521,-2.6521,-2.6521,-2.6521,-2.6521,-2.6521,-2.6521,-2.6521,-2.6521,-2.6533,-2.6658,-2.685,-2.6985,-2.7053,-2.7335,-2.7549,-2.7536,-2.7577,-2.7709,-2.7908,-2.7973,-2.8039,-2.8039,-2.8105,-2.8573,-2.8944,-2.9247,-2.9623,-3.0021,-3.0387,-3.0747,-0.7139,-0.7139,-0.7139,-0.7231,-0.7591,-0.8025,-0.864,-0.9345,-1.0207,-1.1149,-1.2015,-1.279,-1.3307,-1.3737,-1.3997,-1.4088,-1.4166,-1.4243,-1.4489,-1.4992,-1.5582,-1.6319,-1.7302,-1.8184,-1.8825,-1.9469,-1.9951,-2.0342,-2.0566,-2.0576,-2.0576,-2.0576,-2.0576,-2.0576,-2.0576,-2.0576,-2.0576,-2.0644,-2.0819,-2.1205,-2.1949,-2.2628,-2.3309,-2.3886,-2.4527,-2.5087,-2.5535,-2.591,-2.6201,-2.6383,-2.6465,-2.6521,-2.6521,-2.6521,-2.6521,-2.6521,-2.6521,-2.6521,-2.6521,-2.6521,-2.6521,-2.6521,-2.6521,-2.6521,-2.6521,-2.6521,-2.6521,-2.6533,-2.6602,-2.6726,-2.6726,-2.6875,-2.6943,-2.7011,-2.7079,-2.7159,-2.7079,-2.7201,-2.7134,-2.7079,-2.6998,-2.6794,-2.6658,-2.6589,-2.6521,-2.6521,-2.6521,-2.6521,-2.6521,-2.6589,-2.6589,-2.6658,-2.6726,-2.6794,-2.693,-2.7121,-2.7242,-2.7377,-2.7656,-2.7947,-2.8052,-2.817,-2.8365,-2.856,-2.8624,-2.8688,-2.8688,-2.8881,-2.9085,-2.9387,-2.9685,-3.0068,-3.0447,-3.0807,-3.1102,-0.6966,-0.7139,-0.7139,-0.7143,-0.7323,-0.776,-0.8376,-0.8986,-0.9859,-1.0809,-1.1666,-1.2528,-1.3222,-1.3828,-1.4088,-1.4088,-1.4088,-1.4243,-1.4489,-1.4908,-1.5499,-1.6154,-1.6976,-1.787,-1.8674,-1.939,-1.9872,-2.0264,-2.0498,-2.0576,-2.0576,-2.0576,-2.0576,-2.0576,-2.0576,-2.0576,-2.0654,-2.0886,-2.1195,-2.1665,-2.2338,-2.2927,-2.3593,-2.42,-2.4814,-2.5324,-2.5758,-2.6062,-2.627,-2.6465,-2.6521,-2.6521,-2.6521,-2.6521,-2.6521,-2.6521,-2.6521,-2.6521,-2.6521,-2.6521,-2.6521,-2.6521,-2.6521,-2.6521,-2.6521,-2.6521,-2.6521,-2.6589,-2.6658,-2.6794,-2.6985,-2.7201,-2.7323,-2.7403,-2.7482,-2.7549,-2.7549,-2.7456,-2.7456,-2.7403,-2.7335,-2.7201,-2.7053,-2.685,-2.6794,-2.6658,-2.6589,-2.6589,-2.6671,-2.6739,-2.6807,-2.6807,-2.6943,-2.7066,-2.7255,-2.7443,-2.7709,-2.7842,-2.8118,-2.8392,-2.8638,-2.883,-2.8944,-2.9198,-2.9387,-2.9449,-2.9401,-2.9463,-2.9574,-2.9822,-3.0129,-3.0447,-3.0747,-3.0999,-3.1219,-0.6881,-0.7054,-0.7051,-0.7139,-0.7139,-0.7676,-0.8204,-0.8723,-0.9598,-1.0467,-1.1413,-1.2448,-1.3392,-1.3913,-1.4088,-1.4088,-1.4088,-1.4166,-1.4412,-1.4824,-1.5409,-1.6072,-1.7057,-1.787,-1.8674,-1.939,-1.9863,-2.0255,-2.0498,-2.0576,-2.0576,-2.0576,-2.0576,-2.0576,-2.0576,-2.0654,-2.0731,-2.0974,-2.1425,-2.1959,-2.2478,-2.3224,-2.3824,-2.4478,-2.504,-2.5548,-2.5898,-2.6188,-2.6408,-2.6465,-2.6521,-2.6521,-2.6521,-2.6521,-2.6521,-2.6521,-2.6521,-2.6521,-2.6521,-2.6521,-2.6521,-2.6521,-2.6521,-2.6521,-2.6589,-2.6521,-2.6589,-2.6794,-2.693,-2.7066,-2.7335,-2.7536,-2.7789,-2.7921,-2.8066,-2.8145,-2.821,-2.8052,-2.7973,-2.7987,-2.7921,-2.7855,-2.7656,-2.7323,-2.7053,-2.693,-2.6794,-2.6658,-2.6794,-2.7011,-2.7079,-2.7066,-2.7268,-2.7456,-2.7643,-2.7842,-2.8039,-2.8365,-2.8638,-2.8894,-2.9135,-2.9324,-2.9512,-2.9761,-3.0021,-3.0144,-3.0083,-3.0068,-3.0068,-3.0312,-3.0507,-3.0687,-3.0925,-3.1176,-3.1351,-0.6792,-0.6792,-0.7054,-0.7139,-0.7139,-0.7676,-0.8201,-0.8632,-0.9598,-1.0554,-1.1585,-1.2705,-1.3568,-1.4004,-1.4088,-1.4088,-1.4088,-1.4321,-1.4657,-1.5082,-1.5756,-1.65,-1.731,-1.8103,-1.8904,-1.9557,-1.9951,-2.0333,-2.0566,-2.0576,-2.0576,-2.0576,-2.0576,-2.0576,-2.0654,-2.0654,-2.0809,-2.1128,-2.1502,-2.2025,-2.2628,-2.3298,-2.397,-2.455,-2.5194,-2.5676,-2.5898,-2.6258,-2.6465,-2.6521,-2.6521,-2.6521,-2.6521,-2.6521,-2.6521,-2.6521,-2.6521,-2.6521,-2.6521,-2.6521,-2.6521,-2.6521,-2.6521,-2.6521,-2.6658,-2.6658,-2.6794,-2.693,-2.7188,-2.739,-2.7656,-2.7908,-2.817,-2.843,-2.8573,-2.8651,-2.8716,-2.8651,-2.8573,-2.8573,-2.8509,-2.8509,-2.8379,-2.8039,-2.7577,-2.739,-2.7188,-2.7053,-2.7121,-2.7255,-2.7323,-2.7456,-2.7656,-2.7842,-2.8039,-2.83,-2.8688,-2.8944,-2.9212,-2.9463,-2.9699,-2.9822,-2.996,-3.019,-3.0447,-3.0642,-3.0762,-3.0687,-3.0673,-3.0807,-3.094,-3.1043,-3.1102,-3.1292,-3.1409,-0.6529,-0.6792,-0.7054,-0.7139,-0.7139,-0.7676,-0.8201,-0.8719,-0.9602,-1.0814,-1.2186,-1.3052,-1.3652,-1.4004,-1.4088,-1.4088,-1.4166,-1.4321,-1.4657,-1.5166,-1.5839,-1.6582,-1.7465,-1.8264,-1.8984,-1.9636,-2.0117,-2.042,-2.0576,-2.0576,-2.0576,-2.0576,-2.0576,-2.0576,-2.0654,-2.0809,-2.1051,-2.1272,-2.1731,-2.2327,-2.2852,-2.3604,-2.425,-2.4814,-2.5407,-2.584,-2.6131,-2.6339,-2.6465,-2.6521,-2.6521,-2.6521,-2.6521,-2.6521,-2.6521,-2.6521,-2.6521,-2.6521,-2.6521,-2.6521,-2.6521,-2.6521,-2.6533,-2.6602,-2.6726,-2.6726,-2.693,-2.7201,-2.7456,-2.7656,-2.8183,-2.843,-2.8675,-2.8867,-2.9071,-2.9149,-2.9162,-2.9162,-2.9226,-2.9212,-2.9212,-2.9226,-2.9022,-2.8894,-2.8365,-2.7842,-2.7643,-2.7523,-2.759,-2.7723,-2.7776,-2.7973,-2.817,-2.843,-2.8688,-2.9008,-2.9338,-2.9588,-2.9775,-2.996,-3.0129,-3.0266,-3.0447,-3.0628,-3.0807,-3.0925,-3.1043,-3.1161,-3.1176,-3.1117,-3.1176,-3.1278,-3.1351,-3.1482,-3.1482,-0.626,-0.6704,-0.6881,-0.7051,-0.7143,-0.7676,-0.8116,-0.8636,-0.9423,-1.0814,-1.2528,-1.3052,-1.3568,-1.3913,-1.4082,-1.4088,-1.4166,-1.4412,-1.4824,-1.5325,-1.5997,-1.6738,-1.7627,-1.8434,-1.9222,-1.9715,-2.0108,-2.0498,-2.0576,-2.0576,-2.0576,-2.0576,-2.0576,-2.0576,-2.0644,-2.0886,-2.1215,-2.1512,-2.2035,-2.2703,-2.315,-2.3948,-2.4539,-2.5087,-2.5688,-2.5992,-2.6201,-2.6396,-2.6452,-2.6521,-2.6521,-2.6521,-2.6521,-2.6521,-2.6521,-2.6521,-2.6521,-2.6521,-2.6521,-2.6521,-2.6521,-2.6521,-2.6589,-2.6658,-2.6739,-2.6863,-2.7268,-2.7616,-2.7802,-2.8066,-2.8716,-2.8958,-2.9121,-2.9373,-2.9526,-2.9665,-2.9713,-2.9775,-2.9851,-2.9913,-2.9913,-2.9851,-2.9775,-2.9574,-2.8958,-2.843,-2.8183,-2.8052,-2.8131,-2.8249,-2.8444,-2.8624,-2.8817,-2.9071,-2.9338,-2.9588,-2.9837,-3.0144,-3.0341,-3.0462,-3.0582,-3.0702,-3.0821,-3.0925,-3.1102,-3.1263,-3.1336,-3.1351,-3.1292,-3.1249,-3.1351,-3.1394,-3.1409,-3.1467,-3.1467,-0.5985,-0.6428,-0.67,-0.6969,-0.7139,-0.768,-0.8028,-0.8372,-0.9336,-1.0641,-1.21,-1.2796,-1.3398,-1.3737,-1.3997,-1.4088,-1.4173,-1.4496,-1.4901,-1.5484,-1.6154,-1.7057,-1.7951,-1.8745,-1.939,-1.9863,-2.0333,-2.0576,-2.0576,-2.0576,-2.0576,-2.0576,-2.0576,-2.0654,-2.0644,-2.0819,-2.1205,-2.1721,-2.2176,-2.2852,-2.3508,-2.4299,-2.4874,-2.5312,-2.5828,-2.6131,-2.627,-2.6396,-2.6465,-2.6521,-2.6521,-2.6521,-2.6521,-2.6521,-2.6521,-2.6521,-2.6521,-2.6521,-2.6521,-2.6521,-2.6521,-2.6521,-2.6589,-2.6739,-2.7011,-2.7281,-2.7603,-2.7934,-2.8262,-2.8651,-2.9035,-2.9352,-2.9651,-2.9837,-3.0036,-3.0219,-3.028,-3.0326,-3.0401,-3.0401,-3.0522,-3.0522,-3.0447,-3.0205,-2.9588,-2.9085,-2.8716,-2.8587,-2.8651,-2.883,-2.9071,-2.9261,-2.9449,-2.9699,-2.996,-3.0144,-3.0387,-3.0702,-3.0836,-3.0836,-3.094,-3.0999,-3.1117,-3.1234,-3.1351,-3.1394,-3.1452,-3.1467,-3.1409,-3.1366,-3.1409,-3.1467,-3.1467,-3.1467,-3.1467,-0.5636,-0.626,-0.6618,-0.6881,-0.7139,-0.7503,-0.7852,-0.8372,-0.968,-1.089,-1.2015,-1.2796,-1.3307,-1.3652,-1.3913,-1.4088,-1.4166,-1.4496,-1.4985,-1.5477,-1.6319,-1.7139,-1.8031,-1.8834,-1.9548,-1.9942,-2.0333,-2.0576,-2.0576,-2.0576,-2.0576,-2.0576,-2.0654,-2.0654,-2.0896,-2.1128,-2.1578,-2.2025,-2.2628,-2.3298,-2.3813,-2.4515,-2.5087,-2.5523,-2.598,-2.627,-2.6339,-2.6465,-2.6465,-2.6521,-2.6521,-2.6521,-2.6521,-2.6521,-2.6521,-2.6521,-2.6521,-2.6521,-2.6521,-2.6521,-2.6521,-2.6521,-2.6671,-2.6807,-2.7011,-2.7335,-2.7723,-2.8183,-2.8573,-2.8958,-2.9338,-2.9837,-3.0129,-3.0387,-3.0582,-3.0702,-3.0821,-3.0836,-3.0836,-3.0895,-3.0955,-3.0821,-3.0762,-3.0687,-3.019,-2.9898,-2.9526,-2.9275,-2.9275,-2.9512,-2.9761,-2.9884,-3.0068,-3.0266,-3.0507,-3.0568,-3.0702,-3.0955,-3.1014,-3.1014,-3.1132,-3.1249,-3.1292,-3.1278,-3.1409,-3.1467,-3.1467,-3.1467,-3.1467,-3.1467,-3.1467,-3.1467,-3.1467,-3.1467,-3.1467,-0.5369,-0.6083,-0.6526,-0.6789,-0.7143,-0.7415,-0.7856,-0.864,-0.9854,-1.0895,-1.1752,-1.2613,-1.3222,-1.3568,-1.3913,-1.4088,-1.4166,-1.4489,-1.4985,-1.5477,-1.6319,-1.7139,-1.8031,-1.8825,-1.946,-1.9932,-2.0333,-2.0576,-2.0576,-2.0576,-2.0654,-2.0731,-2.0741,-2.0964,-2.1205,-2.1502,-2.1731,-2.2327,-2.3001,-2.3604,-2.4177,-2.4814,-2.5382,-2.5676,-2.605,-2.6396,-2.6452,-2.6521,-2.6521,-2.6521,-2.6521,-2.6521,-2.6521,-2.6521,-2.6521,-2.6521,-2.6521,-2.6521,-2.6521,-2.6521,-2.6521,-2.6521,-2.6671,-2.6943,-2.7201,-2.759,-2.8052,-2.8495,-2.8881,-2.9324,-2.9775,-3.0251,-3.0447,-3.0702,-3.0881,-3.1014,-3.1117,-3.1132,-3.1132,-3.119,-3.119,-3.1117,-3.0999,-3.0999,-3.0807,-3.0582,-3.0401,-3.0158,-2.9898,-3.0144,-3.0312,-3.0372,-3.0507,-3.0687,-3.0881,-3.094,-3.1058,-3.119,-3.1205,-3.119,-3.1249,-3.1366,-3.1351,-3.1336,-3.1467,-3.1467,-3.1467,-3.1467,-3.1467,-3.1467,-3.1467,-3.1467,-3.1467,-3.1467,-3.1467,-0.5193,-0.6083,-0.6343,-0.6697,-0.7054,-0.7415,-0.8036,-0.8911,-0.9602,-1.0467,-1.1327,-1.2272,-1.296,-1.3398,-1.3828,-1.4082,-1.4166,-1.4489,-1.4985,-1.556,-1.6312,-1.7139,-1.8031,-1.8904,-1.946,-1.9932,-2.0333,-2.0576,-2.0576,-2.0654,-2.0731,-2.0896,-2.0906,-2.1282,-2.1502,-2.1883,-2.2176,-2.2777,-2.3446,-2.4043,-2.4611,-2.5194,-2.5618,-2.598,-2.6258,-2.6396,-2.6521,-2.6521,-2.6521,-2.6521,-2.6521,-2.6521,-2.6521,-2.6521,-2.6521,-2.6521,-2.6521,-2.6521,-2.6521,-2.6521,-2.6602,-2.6602,-2.6807,-2.7146,-2.7469,-2.7842,-2.8365,-2.883,-2.9275,-2.9761,-3.019,-3.0447,-3.0702,-3.0881,-3.1014,-3.119,-3.1292,-3.1292,-3.1366,-3.1424,-3.1409,-3.1351,-3.1292,-3.1234,-3.1176,-3.1058,-3.0881,-3.0762,-3.0568,-3.0568,-3.0747,-3.0687,-3.0866,-3.1117,-3.1176,-3.1234,-3.1249,-3.1366,-3.1424,-3.1424,-3.1482,-3.1482,-3.1467,-3.1467,-3.1467,-3.1467,-3.1467,-3.1467,-3.1467,-3.1467,-3.1467,-3.1467,-3.1467,-3.1467,-3.1467,-0.4478,-0.5366,-0.5902,-0.6435,-0.6881,-0.7326,-0.786,-0.8464,-0.9165,-0.9951,-1.0809,-1.1752,-1.2613,-1.3228,-1.3659,-1.3913,-1.4166,-1.458,-1.4985,-1.556,-1.6312,-1.7131,-1.8023,-1.8825,-1.946,-1.9932,-2.0333,-2.0576,-2.0654,-2.0731,-2.0819,-2.0906,-2.1215,-2.1578,-2.1959,-2.2402,-2.2852,-2.3298,-2.3886,-2.4467,-2.4969,-2.5548,-2.591,-2.6131,-2.6327,-2.6465,-2.6521,-2.6521,-2.6521,-2.6521,-2.6521,-2.6521,-2.6521,-2.6521,-2.6521,-2.6521,-2.6521,-2.6521,-2.6521,-2.6521,-2.6589,-2.6739,-2.6943,-2.7066,-2.7456,-2.7973,-2.856,-2.9085,-2.9526,-3.0007,-3.0447,-3.0702,-3.0881,-3.1058,-3.1176,-3.1292,-3.1409,-3.1409,-3.1467,-3.1467,-3.1467,-3.1467,-3.1409,-3.1409,-3.1351,-3.1351,-3.1292,-3.1176,-3.1117,-3.1043,-3.1043,-3.0984,-3.1102,-3.1292,-3.1351,-3.1409,-3.1424,-3.1482,-3.1467,-3.1467,-3.1467,-3.1467,-3.1467,-3.1467,-3.1467,-3.1467,-3.1467,-3.1467,-3.1467,-3.1467,-3.1467,-3.1467,-3.1524,-3.1524,-3.1582,-0.4121,-0.5099,-0.5813,-0.6438,-0.6881,-0.7238,-0.7588,-0.8201,-0.8995,-0.9777,-1.0641,-1.158,-1.2357,-1.3052,-1.3568,-1.3828,-1.4088,-1.4496,-1.4985,-1.5477,-1.6312,-1.7139,-1.8023,-1.8825,-1.9469,-1.9942,-2.0333,-2.0576,-2.0654,-2.0819,-2.0916,-2.1051,-2.1425,-2.1883,-2.2327,-2.2916,-2.3446,-2.3959,-2.4406,-2.4897,-2.5324,-2.577,-2.6062,-2.6201,-2.6408,-2.6465,-2.6521,-2.6521,-2.6521,-2.6521,-2.6521,-2.6521,-2.6521,-2.6521,-2.6521,-2.6521,-2.6521,-2.6521,-2.6521,-2.6521,-2.6658,-2.6807,-2.6943,-2.7201,-2.759,-2.8118,-2.8702,-2.9289,-2.9699,-3.0176,-3.0568,-3.094,-3.1102,-3.1278,-3.1394,-3.1467,-3.1467,-3.1467,-3.1467,-3.1467,-3.1467,-3.1467,-3.1467,-3.1467,-3.1467,-3.1467,-3.1467,-3.1424,-3.1351,-3.1292,-3.1278,-3.1219,-3.1278,-3.1467,-3.1467,-3.1467,-3.1467,-3.1482,-3.1467,-3.1467,-3.1467,-3.1467,-3.1467,-3.1467,-3.1467,-3.1467,-3.1467,-3.1467,-3.1467,-3.1524,-3.1597,-3.1655,-3.1655,-3.1655,-3.1712,-0.4032,-0.4919,-0.5716,-0.6407,-0.7031,-0.7095,-0.7351,-0.7903,-0.8744,-0.9657,-1.0534,-1.1499,-1.2272,-1.2966,-1.3392,-1.3828,-1.4082,-1.4489,-1.4901,-1.5394,-1.6154,-1.7057,-1.787,-1.8745,-1.9311,-1.9863,-2.0255,-2.0566,-2.0644,-2.0819,-2.1061,-2.1205,-2.1655,-2.2176,-2.2703,-2.3298,-2.3886,-2.4418,-2.4826,-2.5241,-2.5465,-2.584,-2.6213,-2.627,-2.6396,-2.6521,-2.6521,-2.6521,-2.6521,-2.6521,-2.6521,-2.6521,-2.6521,-2.6521,-2.6521,-2.6521,-2.6521,-2.6521,-2.6521,-2.6521,-2.6589,-2.6739,-2.6875,-2.7268,-2.7723,-2.8249,-2.878,-2.9415,-2.9837,-3.0326,-3.0762,-3.0999,-3.1176,-3.1336,-3.1409,-3.1467,-3.1467,-3.1467,-3.1467,-3.1467,-3.1467,-3.1467,-3.1467,-3.1467,-3.1467,-3.1467,-3.1467,-3.1482,-3.1482,-3.1467,-3.1409,-3.1336,-3.1409,-3.1467,-3.1467,-3.1467,-3.1467,-3.1467,-3.1467,-3.1467,-3.1467,-3.1467,-3.1467,-3.1467,-3.1467,-3.1467,-3.1467,-3.1524,-3.1539,-3.1597,-3.167,-3.1784,-3.1841,-3.1883,-3.194,-0.3229,-0.4026,-0.5365,-0.6282,-0.6698,-0.6766,-0.7066,-0.7567,-0.7899,-0.8896,-1.0163,-1.1058,-1.1901,-1.2723,-1.3178,-1.3613,-1.4048,-1.4391,-1.4741,-1.5242,-1.5997,-1.682,-1.7627,-1.8505,-1.9143,-1.9636,-2.0108,-2.0489,-2.0644,-2.0896,-2.1138,-2.1282,-2.1807,-2.2478,-2.2927,-2.3593,-2.4261,-2.4706,-2.5265,-2.5606,-2.5758,-2.598,-2.627,-2.6327,-2.6521,-2.6521,-2.6521,-2.6521,-2.6521,-2.6521,-2.6521,-2.6521,-2.6521,-2.6521,-2.6521,-2.6521,-2.6521,-2.6521,-2.6521,-2.6521,-2.6602,-2.6807,-2.7011,-2.7469,-2.7868,-2.8327,-2.8844,-2.9415,-2.9974,-3.0476,-3.0836,-3.1014,-3.1234,-3.1351,-3.1467,-3.1467,-3.1467,-3.1467,-3.1467,-3.1467,-3.1467,-3.1467,-3.1467,-3.1467,-3.1467,-3.1467,-3.1467,-3.1467,-3.1467,-3.1467,-3.1467,-3.1409,-3.1467,-3.1467,-3.1467,-3.1467,-3.1467,-3.1467,-3.1467,-3.1467,-3.1467,-3.1467,-3.1467,-3.1467,-3.1467,-3.1467,-3.1524,-3.1539,-3.1539,-3.167,-3.1826,-3.1996,-3.2191,-3.2287,-3.2287,-0.2854,-0.3703,-0.5173,-0.6057,-0.6466,-0.6649,-0.695,-0.7278,-0.7525,-0.8376,-0.948,-1.0343,-1.1266,-1.2147,-1.2726,-1.3297,-1.3831,-1.4357,-1.4727,-1.5249,-1.5801,-1.6648,-1.7465,-1.8273,-1.8993,-1.9557,-2.0108,-2.0489,-2.0644,-2.0974,-2.1215,-2.1359,-2.1949,-2.2628,-2.3075,-2.3751,-2.4406,-2.4909,-2.5548,-2.591,-2.598,-2.6188,-2.6327,-2.6465,-2.6521,-2.6521,-2.6521,-2.6521,-2.6521,-2.6521,-2.6521,-2.6521,-2.6521,-2.6521,-2.6521,-2.6521,-2.6521,-2.6521,-2.6521,-2.6521,-2.6602,-2.6807,-2.7011,-2.7335,-2.7669,-2.8183,-2.8688,-2.9324,-2.9837,-3.0326,-3.0762,-3.0999,-3.1176,-3.1351,-3.1467,-3.1467,-3.1467,-3.1467,-3.1467,-3.1467,-3.1467,-3.1467,-3.1467,-3.1467,-3.1467,-3.1467,-3.1467,-3.1467,-3.1467,-3.1467,-3.1467,-3.1467,-3.1467,-3.1467,-3.1467,-3.1467,-3.1467,-3.1467,-3.1467,-3.1467,-3.1467,-3.1467,-3.1467,-3.1524,-3.1524,-3.1467,-3.1524,-3.1597,-3.167,-3.1742,-3.194,-3.2191,-3.2453,-3.2765,-3.2873,-0.2645,-0.3623,-0.5053,-0.5918,-0.6328,-0.6562,-0.6795,-0.704,-0.7453,-0.7943,-0.8603,-0.9404,-1.0311,-1.1352,-1.2143,-1.2713,-1.33,-1.3885,-1.4441,-1.5058,-1.5808,-1.6495,-1.7277,-1.8112,-1.8913,-1.9627,-2.0255,-2.0489,-2.0634,-2.0964,-2.1205,-2.1349,-2.1883,-2.2553,-2.3075,-2.3666,-2.4334,-2.4897,-2.5394,-2.591,-2.6119,-2.6396,-2.6465,-2.6465,-2.6521,-2.6521,-2.6521,-2.6521,-2.6521,-2.6521,-2.6521,-2.6521,-2.6521,-2.6521,-2.6521,-2.6521,-2.6521,-2.6521,-2.6521,-2.6521,-2.6589,-2.6726,-2.6863,-2.7134,-2.7523,-2.7973,-2.8546,-2.9121,-2.9685,-3.019,-3.0568,-3.094,-3.1176,-3.1351,-3.1409,-3.1467,-3.1467,-3.1467,-3.1467,-3.1467,-3.1467,-3.1467,-3.1467,-3.1467,-3.1467,-3.1467,-3.1467,-3.1467,-3.1467,-3.1467,-3.1467,-3.1467,-3.1467,-3.1467,-3.1467,-3.1467,-3.1467,-3.1467,-3.1467,-3.1467,-3.1524,-3.1539,-3.1597,-3.1597,-3.1597,-3.164,-3.1697,-3.1769,-3.1841,-3.1898,-3.2191,-3.2492,-3.2834,-3.3156,-3.3523,-0.2587,-0.396,-0.4859,-0.5462,-0.5935,-0.6238,-0.6496,-0.6731,-0.6969,-0.7348,-0.7848,-0.8476,-0.9605,-1.1358,-1.1882,-1.2407,-1.2901,-1.3487,-1.3959,-1.449,-1.5256,-1.6071,-1.6928,-1.7886,-1.8798,-1.9618,-2.0333,-2.0566,-2.0644,-2.0809,-2.1061,-2.1205,-2.1655,-2.2262,-2.2777,-2.3446,-2.4105,-2.4683,-2.5324,-2.5758,-2.605,-2.6245,-2.6452,-2.6521,-2.6521,-2.6521,-2.6521,-2.6521,-2.6521,-2.6521,-2.6521,-2.6521,-2.6521,-2.6521,-2.6521,-2.6521,-2.6521,-2.6521,-2.6521,-2.6521,-2.6589,-2.6658,-2.6863,-2.7066,-2.7469,-2.7789,-2.8365,-2.8789,-2.9359,-3.0007,-3.0447,-3.0895,-3.119,-3.1307,-3.1409,-3.1467,-3.1467,-3.1467,-3.1467,-3.1467,-3.1467,-3.1467,-3.1467,-3.1467,-3.1467,-3.1467,-3.1467,-3.1467,-3.1467,-3.1467,-3.1467,-3.1467,-3.1467,-3.1467,-3.1467,-3.1467,-3.1467,-3.1467,-3.1524,-3.1539,-3.1597,-3.167,-3.1727,-3.1769,-3.1826,-3.1883,-3.194,-3.2038,-3.2135,-3.2302,-3.2547,-3.2803,-3.3208,-3.3591,-3.3949]}]]